<?xml version="1.0" encoding="UTF-8" standalone="no" ?>
<gpx xmlns="http://www.topografix.com/GPX/1/1" xmlns:xsi="http://www.w3.org/2001/XMLSchema-instance" xsi:schemaLocation="http://www.topografix.com/GPX/1/1 http://www.topografix.com/GPX/1/1/gpx.xsd" version="1.1" creator="VisuGPX - https://www.visugpx.com">
  <metadata>
    <name>Bignan - Plumelin</name>
    <desc><![CDATA[boucle pour une rando à la journée dans les Landes de Lanvaux entre Bignan et Plumelin]]></desc>
  </metadata>
  <trk>
    <name><![CDATA[kerguével - plumelin 36 km]]></name>
    <trkseg>
      <trkpt lat="47.8521" lon="-2.79086">
        <ele>91.46</ele>
        <time>2018-01-25T08:08:47Z</time>
      </trkpt>
      <trkpt lat="47.85211" lon="-2.79086">
        <ele>91.46</ele>
        <time>2018-01-25T08:08:48Z</time>
      </trkpt>
      <trkpt lat="47.85206" lon="-2.79098">
        <ele>91.24</ele>
        <time>2018-01-25T08:09:08Z</time>
      </trkpt>
      <trkpt lat="47.85202" lon="-2.79094">
        <ele>90.88</ele>
        <time>2018-01-25T08:09:26Z</time>
      </trkpt>
      <trkpt lat="47.852" lon="-2.79092">
        <ele>91.17</ele>
        <time>2018-01-25T08:09:49Z</time>
      </trkpt>
      <trkpt lat="47.852" lon="-2.79092">
        <ele>91.17</ele>
        <time>2018-01-25T08:09:51Z</time>
      </trkpt>
      <trkpt lat="47.85201" lon="-2.79096">
        <ele>91.04</ele>
        <time>2018-01-25T08:10:03Z</time>
      </trkpt>
      <trkpt lat="47.85202" lon="-2.79096">
        <ele>91.35</ele>
        <time>2018-01-25T08:10:30Z</time>
      </trkpt>
      <trkpt lat="47.85203" lon="-2.79097">
        <ele>91.23</ele>
        <time>2018-01-25T08:10:47Z</time>
      </trkpt>
      <trkpt lat="47.85208" lon="-2.79084">
        <ele>91.48</ele>
        <time>2018-01-25T08:11:02Z</time>
      </trkpt>
      <trkpt lat="47.85208" lon="-2.79085">
        <ele>91.73</ele>
        <time>2018-01-25T08:11:21Z</time>
      </trkpt>
      <trkpt lat="47.8521" lon="-2.79085">
        <ele>91.59</ele>
        <time>2018-01-25T08:11:41Z</time>
      </trkpt>
      <trkpt lat="47.85206" lon="-2.79098">
        <ele>91.44</ele>
        <time>2018-01-25T08:11:56Z</time>
      </trkpt>
      <trkpt lat="47.85205" lon="-2.79099">
        <ele>91.12</ele>
        <time>2018-01-25T08:12:15Z</time>
      </trkpt>
      <trkpt lat="47.85205" lon="-2.79095">
        <ele>90.96</ele>
        <time>2018-01-25T08:12:39Z</time>
      </trkpt>
      <trkpt lat="47.85205" lon="-2.79095">
        <ele>91.24</ele>
        <time>2018-01-25T08:13:05Z</time>
      </trkpt>
      <trkpt lat="47.8521" lon="-2.79099">
        <ele>91.01</ele>
        <time>2018-01-25T08:13:38Z</time>
      </trkpt>
      <trkpt lat="47.8521" lon="-2.79101">
        <ele>91.18</ele>
        <time>2018-01-25T08:13:54Z</time>
      </trkpt>
      <trkpt lat="47.8521" lon="-2.79104">
        <ele>91.38</ele>
        <time>2018-01-25T08:14:18Z</time>
      </trkpt>
      <trkpt lat="47.85209" lon="-2.79105">
        <ele>91.4</ele>
        <time>2018-01-25T08:14:35Z</time>
      </trkpt>
      <trkpt lat="47.85211" lon="-2.79099">
        <ele>91.5</ele>
        <time>2018-01-25T08:14:56Z</time>
      </trkpt>
      <trkpt lat="47.85214" lon="-2.79088">
        <ele>91.87</ele>
        <time>2018-01-25T08:15:10Z</time>
      </trkpt>
      <trkpt lat="47.85215" lon="-2.79083">
        <ele>92.03</ele>
        <time>2018-01-25T08:15:14Z</time>
      </trkpt>
      <trkpt lat="47.85217" lon="-2.79066">
        <ele>92.27</ele>
        <time>2018-01-25T08:15:24Z</time>
      </trkpt>
      <trkpt lat="47.8522" lon="-2.79055">
        <ele>92.37</ele>
        <time>2018-01-25T08:15:31Z</time>
      </trkpt>
      <trkpt lat="47.8522" lon="-2.79046">
        <ele>92.35</ele>
        <time>2018-01-25T08:15:36Z</time>
      </trkpt>
      <trkpt lat="47.85232" lon="-2.79039">
        <ele>92.86</ele>
        <time>2018-01-25T08:15:51Z</time>
      </trkpt>
      <trkpt lat="47.85236" lon="-2.7904">
        <ele>93.49</ele>
        <time>2018-01-25T08:15:55Z</time>
      </trkpt>
      <trkpt lat="47.85244" lon="-2.79046">
        <ele>94.82</ele>
        <time>2018-01-25T08:16:04Z</time>
      </trkpt>
      <trkpt lat="47.85252" lon="-2.79052">
        <ele>96.37</ele>
        <time>2018-01-25T08:16:19Z</time>
      </trkpt>
      <trkpt lat="47.8525" lon="-2.79054">
        <ele>96.33</ele>
        <time>2018-01-25T08:16:32Z</time>
      </trkpt>
      <trkpt lat="47.85252" lon="-2.79052">
        <ele>96.02</ele>
        <time>2018-01-25T08:16:52Z</time>
      </trkpt>
      <trkpt lat="47.85248" lon="-2.79062">
        <ele>96.13</ele>
        <time>2018-01-25T08:17:05Z</time>
      </trkpt>
      <trkpt lat="47.85248" lon="-2.79067">
        <ele>95.93</ele>
        <time>2018-01-25T08:17:30Z</time>
      </trkpt>
      <trkpt lat="47.85241" lon="-2.79073">
        <ele>95.88</ele>
        <time>2018-01-25T08:18:14Z</time>
      </trkpt>
      <trkpt lat="47.85238" lon="-2.79075">
        <ele>95.67</ele>
        <time>2018-01-25T08:18:28Z</time>
      </trkpt>
      <trkpt lat="47.85236" lon="-2.79071">
        <ele>95.7</ele>
        <time>2018-01-25T08:18:38Z</time>
      </trkpt>
      <trkpt lat="47.85238" lon="-2.7907">
        <ele>95.75</ele>
        <time>2018-01-25T08:18:44Z</time>
      </trkpt>
      <trkpt lat="47.85241" lon="-2.79067">
        <ele>95.88</ele>
        <time>2018-01-25T08:18:47Z</time>
      </trkpt>
      <trkpt lat="47.85243" lon="-2.79061">
        <ele>95.42</ele>
        <time>2018-01-25T08:19:09Z</time>
      </trkpt>
      <trkpt lat="47.8524" lon="-2.7906">
        <ele>95.31</ele>
        <time>2018-01-25T08:19:51Z</time>
      </trkpt>
      <trkpt lat="47.8524" lon="-2.79065">
        <ele>94.9</ele>
        <time>2018-01-25T08:20:22Z</time>
      </trkpt>
      <trkpt lat="47.8524" lon="-2.7907">
        <ele>94.86</ele>
        <time>2018-01-25T08:20:54Z</time>
      </trkpt>
      <trkpt lat="47.8524" lon="-2.79072">
        <ele>94.45</ele>
        <time>2018-01-25T08:21:28Z</time>
      </trkpt>
      <trkpt lat="47.85238" lon="-2.79073">
        <ele>94.21</ele>
        <time>2018-01-25T08:22:03Z</time>
      </trkpt>
      <trkpt lat="47.85237" lon="-2.79072">
        <ele>94.31</ele>
        <time>2018-01-25T08:22:36Z</time>
      </trkpt>
      <trkpt lat="47.85241" lon="-2.79072">
        <ele>93.91</ele>
        <time>2018-01-25T08:23:22Z</time>
      </trkpt>
      <trkpt lat="47.85242" lon="-2.79069">
        <ele>94.03</ele>
        <time>2018-01-25T08:23:58Z</time>
      </trkpt>
      <trkpt lat="47.85241" lon="-2.79066">
        <ele>94.26</ele>
        <time>2018-01-25T08:24:44Z</time>
      </trkpt>
      <trkpt lat="47.8524" lon="-2.79076">
        <ele>94.36</ele>
        <time>2018-01-25T08:25:39Z</time>
      </trkpt>
      <trkpt lat="47.85243" lon="-2.79072">
        <ele>94.48</ele>
        <time>2018-01-25T08:26:10Z</time>
      </trkpt>
      <trkpt lat="47.85239" lon="-2.79064">
        <ele>94.85</ele>
        <time>2018-01-25T08:26:59Z</time>
      </trkpt>
      <trkpt lat="47.85243" lon="-2.79066">
        <ele>94.1</ele>
        <time>2018-01-25T08:28:15Z</time>
      </trkpt>
      <trkpt lat="47.8524" lon="-2.79064">
        <ele>94.11</ele>
        <time>2018-01-25T08:28:51Z</time>
      </trkpt>
      <trkpt lat="47.8524" lon="-2.79061">
        <ele>94.29</ele>
        <time>2018-01-25T08:28:57Z</time>
      </trkpt>
      <trkpt lat="47.85243" lon="-2.79059">
        <ele>94.25</ele>
        <time>2018-01-25T08:29:04Z</time>
      </trkpt>
      <trkpt lat="47.8525" lon="-2.79052">
        <ele>93.96</ele>
        <time>2018-01-25T08:29:16Z</time>
      </trkpt>
      <trkpt lat="47.8525" lon="-2.79051">
        <ele>94.43</ele>
        <time>2018-01-25T08:29:36Z</time>
      </trkpt>
      <trkpt lat="47.85252" lon="-2.79053">
        <ele>94.34</ele>
        <time>2018-01-25T08:30:00Z</time>
      </trkpt>
      <trkpt lat="47.85247" lon="-2.79051">
        <ele>94.14</ele>
        <time>2018-01-25T08:30:17Z</time>
      </trkpt>
      <trkpt lat="47.85247" lon="-2.79051">
        <ele>94.07</ele>
        <time>2018-01-25T08:30:35Z</time>
      </trkpt>
      <trkpt lat="47.85245" lon="-2.79052">
        <ele>93.77</ele>
        <time>2018-01-25T08:30:57Z</time>
      </trkpt>
      <trkpt lat="47.85245" lon="-2.79051">
        <ele>93.61</ele>
        <time>2018-01-25T08:31:14Z</time>
      </trkpt>
      <trkpt lat="47.85248" lon="-2.79055">
        <ele>93.81</ele>
        <time>2018-01-25T08:31:38Z</time>
      </trkpt>
      <trkpt lat="47.85248" lon="-2.79055">
        <ele>93.79</ele>
        <time>2018-01-25T08:32:12Z</time>
      </trkpt>
      <trkpt lat="47.85246" lon="-2.79054">
        <ele>93.75</ele>
        <time>2018-01-25T08:32:20Z</time>
      </trkpt>
      <trkpt lat="47.85245" lon="-2.79047">
        <ele>93.19</ele>
        <time>2018-01-25T08:32:36Z</time>
      </trkpt>
      <trkpt lat="47.85248" lon="-2.79049">
        <ele>93.44</ele>
        <time>2018-01-25T08:32:59Z</time>
      </trkpt>
      <trkpt lat="47.85247" lon="-2.79045">
        <ele>93.46</ele>
        <time>2018-01-25T08:33:20Z</time>
      </trkpt>
      <trkpt lat="47.85244" lon="-2.79043">
        <ele>93.38</ele>
        <time>2018-01-25T08:33:22Z</time>
      </trkpt>
      <trkpt lat="47.85224" lon="-2.79037">
        <ele>91.32</ele>
        <time>2018-01-25T08:33:37Z</time>
      </trkpt>
      <trkpt lat="47.8522" lon="-2.79039">
        <ele>90.77</ele>
        <time>2018-01-25T08:33:40Z</time>
      </trkpt>
      <trkpt lat="47.85219" lon="-2.79052">
        <ele>89.84</ele>
        <time>2018-01-25T08:33:47Z</time>
      </trkpt>
      <trkpt lat="47.85223" lon="-2.7907">
        <ele>89.82</ele>
        <time>2018-01-25T08:33:59Z</time>
      </trkpt>
      <trkpt lat="47.85223" lon="-2.7911">
        <ele>91.11</ele>
        <time>2018-01-25T08:34:18Z</time>
      </trkpt>
      <trkpt lat="47.85226" lon="-2.7914">
        <ele>92.59</ele>
        <time>2018-01-25T08:34:33Z</time>
      </trkpt>
      <trkpt lat="47.85226" lon="-2.79142">
        <ele>92.7</ele>
        <time>2018-01-25T08:34:34Z</time>
      </trkpt>
      <trkpt lat="47.8523" lon="-2.79156">
        <ele>93.83</ele>
        <time>2018-01-25T08:34:42Z</time>
      </trkpt>
      <trkpt lat="47.85233" lon="-2.79164">
        <ele>94.36</ele>
        <time>2018-01-25T08:34:47Z</time>
      </trkpt>
      <trkpt lat="47.85237" lon="-2.79189">
        <ele>96.16</ele>
        <time>2018-01-25T08:35:01Z</time>
      </trkpt>
      <trkpt lat="47.85235" lon="-2.79219">
        <ele>97.58</ele>
        <time>2018-01-25T08:35:15Z</time>
      </trkpt>
      <trkpt lat="47.8523" lon="-2.79257">
        <ele>97.78</ele>
        <time>2018-01-25T08:35:31Z</time>
      </trkpt>
      <trkpt lat="47.85229" lon="-2.79297">
        <ele>97.2</ele>
        <time>2018-01-25T08:35:50Z</time>
      </trkpt>
      <trkpt lat="47.85227" lon="-2.79327">
        <ele>97.08</ele>
        <time>2018-01-25T08:36:04Z</time>
      </trkpt>
      <trkpt lat="47.85226" lon="-2.79355">
        <ele>96.85</ele>
        <time>2018-01-25T08:36:17Z</time>
      </trkpt>
      <trkpt lat="47.85227" lon="-2.79389">
        <ele>96.74</ele>
        <time>2018-01-25T08:36:34Z</time>
      </trkpt>
      <trkpt lat="47.85234" lon="-2.79422">
        <ele>97.05</ele>
        <time>2018-01-25T08:36:52Z</time>
      </trkpt>
      <trkpt lat="47.85243" lon="-2.79457">
        <ele>98.07</ele>
        <time>2018-01-25T08:37:08Z</time>
      </trkpt>
      <trkpt lat="47.8525" lon="-2.79479">
        <ele>98.89</ele>
        <time>2018-01-25T08:37:20Z</time>
      </trkpt>
      <trkpt lat="47.85261" lon="-2.79495">
        <ele>99.81</ele>
        <time>2018-01-25T08:37:35Z</time>
      </trkpt>
      <trkpt lat="47.85261" lon="-2.79496">
        <ele>100.58</ele>
        <time>2018-01-25T08:37:50Z</time>
      </trkpt>
      <trkpt lat="47.85256" lon="-2.79494">
        <ele>100.99</ele>
        <time>2018-01-25T08:38:03Z</time>
      </trkpt>
      <trkpt lat="47.85256" lon="-2.79499">
        <ele>100.87</ele>
        <time>2018-01-25T08:38:06Z</time>
      </trkpt>
      <trkpt lat="47.85266" lon="-2.79536">
        <ele>100.75</ele>
        <time>2018-01-25T08:38:24Z</time>
      </trkpt>
      <trkpt lat="47.85272" lon="-2.79564">
        <ele>101.64</ele>
        <time>2018-01-25T08:38:39Z</time>
      </trkpt>
      <trkpt lat="47.85275" lon="-2.79602">
        <ele>102.32</ele>
        <time>2018-01-25T08:38:55Z</time>
      </trkpt>
      <trkpt lat="47.85278" lon="-2.7964">
        <ele>102.8</ele>
        <time>2018-01-25T08:39:11Z</time>
      </trkpt>
      <trkpt lat="47.8528" lon="-2.79677">
        <ele>102.45</ele>
        <time>2018-01-25T08:39:26Z</time>
      </trkpt>
      <trkpt lat="47.85283" lon="-2.79707">
        <ele>101.54</ele>
        <time>2018-01-25T08:39:39Z</time>
      </trkpt>
      <trkpt lat="47.85283" lon="-2.79751">
        <ele>100.06</ele>
        <time>2018-01-25T08:39:56Z</time>
      </trkpt>
      <trkpt lat="47.85284" lon="-2.79805">
        <ele>98.71</ele>
        <time>2018-01-25T08:40:16Z</time>
      </trkpt>
      <trkpt lat="47.85281" lon="-2.79845">
        <ele>97.51</ele>
        <time>2018-01-25T08:40:32Z</time>
      </trkpt>
      <trkpt lat="47.85275" lon="-2.79899">
        <ele>96.59</ele>
        <time>2018-01-25T08:40:51Z</time>
      </trkpt>
      <trkpt lat="47.8527" lon="-2.79946">
        <ele>95.42</ele>
        <time>2018-01-25T08:41:09Z</time>
      </trkpt>
      <trkpt lat="47.85265" lon="-2.80001">
        <ele>94.26</ele>
        <time>2018-01-25T08:41:31Z</time>
      </trkpt>
      <trkpt lat="47.85267" lon="-2.80041">
        <ele>94.4</ele>
        <time>2018-01-25T08:41:48Z</time>
      </trkpt>
      <trkpt lat="47.85274" lon="-2.80079">
        <ele>94.91</ele>
        <time>2018-01-25T08:42:04Z</time>
      </trkpt>
      <trkpt lat="47.85279" lon="-2.80117">
        <ele>95.93</ele>
        <time>2018-01-25T08:42:21Z</time>
      </trkpt>
      <trkpt lat="47.85287" lon="-2.80153">
        <ele>96.9</ele>
        <time>2018-01-25T08:42:38Z</time>
      </trkpt>
      <trkpt lat="47.85304" lon="-2.80187">
        <ele>98.08</ele>
        <time>2018-01-25T08:42:56Z</time>
      </trkpt>
      <trkpt lat="47.85322" lon="-2.8021">
        <ele>99.82</ele>
        <time>2018-01-25T08:43:13Z</time>
      </trkpt>
      <trkpt lat="47.8534" lon="-2.80236">
        <ele>101.49</ele>
        <time>2018-01-25T08:43:30Z</time>
      </trkpt>
      <trkpt lat="47.85361" lon="-2.8026">
        <ele>103.73</ele>
        <time>2018-01-25T08:43:48Z</time>
      </trkpt>
      <trkpt lat="47.85382" lon="-2.80282">
        <ele>104.8</ele>
        <time>2018-01-25T08:44:06Z</time>
      </trkpt>
      <trkpt lat="47.85403" lon="-2.80301">
        <ele>105.64</ele>
        <time>2018-01-25T08:44:22Z</time>
      </trkpt>
      <trkpt lat="47.85409" lon="-2.80342">
        <ele>104.94</ele>
        <time>2018-01-25T08:44:39Z</time>
      </trkpt>
      <trkpt lat="47.85406" lon="-2.80384">
        <ele>101.91</ele>
        <time>2018-01-25T08:44:57Z</time>
      </trkpt>
      <trkpt lat="47.85404" lon="-2.80415">
        <ele>99.67</ele>
        <time>2018-01-25T08:45:11Z</time>
      </trkpt>
      <trkpt lat="47.85404" lon="-2.80421">
        <ele>99.06</ele>
        <time>2018-01-25T08:45:14Z</time>
      </trkpt>
      <trkpt lat="47.85404" lon="-2.80448">
        <ele>97.03</ele>
        <time>2018-01-25T08:45:25Z</time>
      </trkpt>
      <trkpt lat="47.85402" lon="-2.80458">
        <ele>96.1</ele>
        <time>2018-01-25T08:45:30Z</time>
      </trkpt>
      <trkpt lat="47.85398" lon="-2.80466">
        <ele>94.84</ele>
        <time>2018-01-25T08:45:36Z</time>
      </trkpt>
      <trkpt lat="47.85388" lon="-2.80471">
        <ele>92.84</ele>
        <time>2018-01-25T08:45:48Z</time>
      </trkpt>
      <trkpt lat="47.85379" lon="-2.80471">
        <ele>91.79</ele>
        <time>2018-01-25T08:45:55Z</time>
      </trkpt>
      <trkpt lat="47.85374" lon="-2.80471">
        <ele>91.03</ele>
        <time>2018-01-25T08:45:58Z</time>
      </trkpt>
      <trkpt lat="47.85356" lon="-2.80465">
        <ele>88.83</ele>
        <time>2018-01-25T08:46:11Z</time>
      </trkpt>
      <trkpt lat="47.85344" lon="-2.80457">
        <ele>87.17</ele>
        <time>2018-01-25T08:46:20Z</time>
      </trkpt>
      <trkpt lat="47.85332" lon="-2.80446">
        <ele>84.53</ele>
        <time>2018-01-25T08:46:33Z</time>
      </trkpt>
      <trkpt lat="47.8533" lon="-2.80445">
        <ele>84.23</ele>
        <time>2018-01-25T08:46:35Z</time>
      </trkpt>
      <trkpt lat="47.85323" lon="-2.80442">
        <ele>83.48</ele>
        <time>2018-01-25T08:46:39Z</time>
      </trkpt>
      <trkpt lat="47.85309" lon="-2.80441">
        <ele>80.3</ele>
        <time>2018-01-25T08:46:50Z</time>
      </trkpt>
      <trkpt lat="47.85302" lon="-2.80443">
        <ele>78.63</ele>
        <time>2018-01-25T08:46:56Z</time>
      </trkpt>
      <trkpt lat="47.85291" lon="-2.8044">
        <ele>76.73</ele>
        <time>2018-01-25T08:47:04Z</time>
      </trkpt>
      <trkpt lat="47.85265" lon="-2.80435">
        <ele>73.88</ele>
        <time>2018-01-25T08:47:21Z</time>
      </trkpt>
      <trkpt lat="47.85253" lon="-2.80433">
        <ele>73.26</ele>
        <time>2018-01-25T08:47:28Z</time>
      </trkpt>
      <trkpt lat="47.85249" lon="-2.80433">
        <ele>72.97</ele>
        <time>2018-01-25T08:47:33Z</time>
      </trkpt>
      <trkpt lat="47.85237" lon="-2.80435">
        <ele>72.89</ele>
        <time>2018-01-25T08:47:57Z</time>
      </trkpt>
      <trkpt lat="47.85229" lon="-2.8044">
        <ele>72.85</ele>
        <time>2018-01-25T08:48:17Z</time>
      </trkpt>
      <trkpt lat="47.85221" lon="-2.8044">
        <ele>72.57</ele>
        <time>2018-01-25T08:48:22Z</time>
      </trkpt>
      <trkpt lat="47.85186" lon="-2.80425">
        <ele>71.46</ele>
        <time>2018-01-25T08:48:42Z</time>
      </trkpt>
      <trkpt lat="47.85174" lon="-2.80423">
        <ele>70.48</ele>
        <time>2018-01-25T08:48:50Z</time>
      </trkpt>
      <trkpt lat="47.85166" lon="-2.80418">
        <ele>68.18</ele>
        <time>2018-01-25T08:49:03Z</time>
      </trkpt>
      <trkpt lat="47.85157" lon="-2.8044">
        <ele>65.12</ele>
        <time>2018-01-25T08:49:19Z</time>
      </trkpt>
      <trkpt lat="47.85156" lon="-2.80445">
        <ele>64.88</ele>
        <time>2018-01-25T08:49:21Z</time>
      </trkpt>
      <trkpt lat="47.85154" lon="-2.8045">
        <ele>64.56</ele>
        <time>2018-01-25T08:49:23Z</time>
      </trkpt>
      <trkpt lat="47.85139" lon="-2.80482">
        <ele>63.01</ele>
        <time>2018-01-25T08:49:38Z</time>
      </trkpt>
      <trkpt lat="47.85137" lon="-2.80491">
        <ele>62.79</ele>
        <time>2018-01-25T08:49:41Z</time>
      </trkpt>
      <trkpt lat="47.85135" lon="-2.80495">
        <ele>62.53</ele>
        <time>2018-01-25T08:49:44Z</time>
      </trkpt>
      <trkpt lat="47.85131" lon="-2.80515">
        <ele>61.36</ele>
        <time>2018-01-25T08:49:55Z</time>
      </trkpt>
      <trkpt lat="47.8513" lon="-2.80526">
        <ele>60.69</ele>
        <time>2018-01-25T08:50:01Z</time>
      </trkpt>
      <trkpt lat="47.85128" lon="-2.80533">
        <ele>60.5</ele>
        <time>2018-01-25T08:50:04Z</time>
      </trkpt>
      <trkpt lat="47.85116" lon="-2.80563">
        <ele>61.29</ele>
        <time>2018-01-25T08:50:18Z</time>
      </trkpt>
      <trkpt lat="47.85094" lon="-2.80638">
        <ele>64.65</ele>
        <time>2018-01-25T08:50:32Z</time>
      </trkpt>
      <trkpt lat="47.85071" lon="-2.80701">
        <ele>67.87</ele>
        <time>2018-01-25T08:50:43Z</time>
      </trkpt>
      <trkpt lat="47.85048" lon="-2.80772">
        <ele>70.17</ele>
        <time>2018-01-25T08:50:57Z</time>
      </trkpt>
      <trkpt lat="47.85048" lon="-2.80782">
        <ele>70.94</ele>
        <time>2018-01-25T08:51:02Z</time>
      </trkpt>
      <trkpt lat="47.85048" lon="-2.80783">
        <ele>71.06</ele>
        <time>2018-01-25T08:51:03Z</time>
      </trkpt>
      <trkpt lat="47.85049" lon="-2.80784">
        <ele>71.17</ele>
        <time>2018-01-25T08:51:04Z</time>
      </trkpt>
      <trkpt lat="47.85051" lon="-2.80785">
        <ele>71.23</ele>
        <time>2018-01-25T08:51:05Z</time>
      </trkpt>
      <trkpt lat="47.85052" lon="-2.80785">
        <ele>71.32</ele>
        <time>2018-01-25T08:51:06Z</time>
      </trkpt>
      <trkpt lat="47.85083" lon="-2.80794">
        <ele>71.94</ele>
        <time>2018-01-25T08:51:26Z</time>
      </trkpt>
      <trkpt lat="47.85089" lon="-2.80797">
        <ele>72.26</ele>
        <time>2018-01-25T08:51:41Z</time>
      </trkpt>
      <trkpt lat="47.8509" lon="-2.80799">
        <ele>72.52</ele>
        <time>2018-01-25T08:52:14Z</time>
      </trkpt>
      <trkpt lat="47.8509" lon="-2.808">
        <ele>72.65</ele>
        <time>2018-01-25T08:52:38Z</time>
      </trkpt>
      <trkpt lat="47.85094" lon="-2.80801">
        <ele>72.83</ele>
        <time>2018-01-25T08:53:17Z</time>
      </trkpt>
      <trkpt lat="47.85097" lon="-2.80803">
        <ele>72.75</ele>
        <time>2018-01-25T08:53:20Z</time>
      </trkpt>
      <trkpt lat="47.85119" lon="-2.80805">
        <ele>72.77</ele>
        <time>2018-01-25T08:53:36Z</time>
      </trkpt>
      <trkpt lat="47.85127" lon="-2.80802">
        <ele>73.32</ele>
        <time>2018-01-25T08:53:43Z</time>
      </trkpt>
      <trkpt lat="47.85138" lon="-2.80801">
        <ele>73.75</ele>
        <time>2018-01-25T08:53:53Z</time>
      </trkpt>
      <trkpt lat="47.85159" lon="-2.80801">
        <ele>74.18</ele>
        <time>2018-01-25T08:54:06Z</time>
      </trkpt>
      <trkpt lat="47.8517" lon="-2.80801">
        <ele>74.52</ele>
        <time>2018-01-25T08:54:15Z</time>
      </trkpt>
      <trkpt lat="47.852" lon="-2.808">
        <ele>75.07</ele>
        <time>2018-01-25T08:54:30Z</time>
      </trkpt>
      <trkpt lat="47.85222" lon="-2.80805">
        <ele>75.9</ele>
        <time>2018-01-25T08:54:43Z</time>
      </trkpt>
      <trkpt lat="47.85243" lon="-2.80806">
        <ele>76.41</ele>
        <time>2018-01-25T08:54:55Z</time>
      </trkpt>
      <trkpt lat="47.85273" lon="-2.80806">
        <ele>77.32</ele>
        <time>2018-01-25T08:55:12Z</time>
      </trkpt>
      <trkpt lat="47.853" lon="-2.80805">
        <ele>78.05</ele>
        <time>2018-01-25T08:55:28Z</time>
      </trkpt>
      <trkpt lat="47.85328" lon="-2.80806">
        <ele>78.78</ele>
        <time>2018-01-25T08:55:45Z</time>
      </trkpt>
      <trkpt lat="47.85346" lon="-2.80808">
        <ele>79.6</ele>
        <time>2018-01-25T08:55:59Z</time>
      </trkpt>
      <trkpt lat="47.85365" lon="-2.80805">
        <ele>80.68</ele>
        <time>2018-01-25T08:56:17Z</time>
      </trkpt>
      <trkpt lat="47.85379" lon="-2.80808">
        <ele>81.23</ele>
        <time>2018-01-25T08:56:26Z</time>
      </trkpt>
      <trkpt lat="47.8538" lon="-2.80808">
        <ele>81.27</ele>
        <time>2018-01-25T08:56:27Z</time>
      </trkpt>
      <trkpt lat="47.85382" lon="-2.80807">
        <ele>81.32</ele>
        <time>2018-01-25T08:56:28Z</time>
      </trkpt>
      <trkpt lat="47.85383" lon="-2.80808">
        <ele>81.38</ele>
        <time>2018-01-25T08:56:29Z</time>
      </trkpt>
      <trkpt lat="47.85385" lon="-2.80808">
        <ele>81.44</ele>
        <time>2018-01-25T08:56:30Z</time>
      </trkpt>
      <trkpt lat="47.85418" lon="-2.80808">
        <ele>82.46</ele>
        <time>2018-01-25T08:56:46Z</time>
      </trkpt>
      <trkpt lat="47.8544" lon="-2.80813">
        <ele>83.08</ele>
        <time>2018-01-25T08:57:01Z</time>
      </trkpt>
      <trkpt lat="47.85464" lon="-2.80818">
        <ele>83.91</ele>
        <time>2018-01-25T08:57:15Z</time>
      </trkpt>
      <trkpt lat="47.85489" lon="-2.80826">
        <ele>84.39</ele>
        <time>2018-01-25T08:57:30Z</time>
      </trkpt>
      <trkpt lat="47.85507" lon="-2.80832">
        <ele>84.89</ele>
        <time>2018-01-25T08:57:43Z</time>
      </trkpt>
      <trkpt lat="47.85525" lon="-2.80847">
        <ele>85.61</ele>
        <time>2018-01-25T08:57:55Z</time>
      </trkpt>
      <trkpt lat="47.85543" lon="-2.80864">
        <ele>86.39</ele>
        <time>2018-01-25T08:58:08Z</time>
      </trkpt>
      <trkpt lat="47.85559" lon="-2.80883">
        <ele>87</ele>
        <time>2018-01-25T08:58:22Z</time>
      </trkpt>
      <trkpt lat="47.85568" lon="-2.80895">
        <ele>87.37</ele>
        <time>2018-01-25T08:58:31Z</time>
      </trkpt>
      <trkpt lat="47.85577" lon="-2.80907">
        <ele>87.7</ele>
        <time>2018-01-25T08:58:40Z</time>
      </trkpt>
      <trkpt lat="47.8558" lon="-2.80908">
        <ele>87.72</ele>
        <time>2018-01-25T08:58:41Z</time>
      </trkpt>
      <trkpt lat="47.85595" lon="-2.80924">
        <ele>88.13</ele>
        <time>2018-01-25T08:58:54Z</time>
      </trkpt>
      <trkpt lat="47.85597" lon="-2.80926">
        <ele>88.17</ele>
        <time>2018-01-25T08:58:55Z</time>
      </trkpt>
      <trkpt lat="47.85612" lon="-2.80939">
        <ele>88.24</ele>
        <time>2018-01-25T08:59:03Z</time>
      </trkpt>
      <trkpt lat="47.85618" lon="-2.80942">
        <ele>88.4</ele>
        <time>2018-01-25T08:59:06Z</time>
      </trkpt>
      <trkpt lat="47.8562" lon="-2.80943">
        <ele>88.48</ele>
        <time>2018-01-25T08:59:07Z</time>
      </trkpt>
      <trkpt lat="47.85626" lon="-2.80957">
        <ele>89</ele>
        <time>2018-01-25T08:59:19Z</time>
      </trkpt>
      <trkpt lat="47.85643" lon="-2.80973">
        <ele>89.36</ele>
        <time>2018-01-25T08:59:32Z</time>
      </trkpt>
      <trkpt lat="47.85646" lon="-2.80978">
        <ele>89.47</ele>
        <time>2018-01-25T08:59:36Z</time>
      </trkpt>
      <trkpt lat="47.85648" lon="-2.80981">
        <ele>89.48</ele>
        <time>2018-01-25T08:59:37Z</time>
      </trkpt>
      <trkpt lat="47.85658" lon="-2.81002">
        <ele>89.31</ele>
        <time>2018-01-25T08:59:45Z</time>
      </trkpt>
      <trkpt lat="47.85663" lon="-2.81048">
        <ele>91.46</ele>
        <time>2018-01-25T09:00:01Z</time>
      </trkpt>
      <trkpt lat="47.85652" lon="-2.81077">
        <ele>94.77</ele>
        <time>2018-01-25T09:00:14Z</time>
      </trkpt>
      <trkpt lat="47.85635" lon="-2.81092">
        <ele>97.79</ele>
        <time>2018-01-25T09:00:24Z</time>
      </trkpt>
      <trkpt lat="47.8561" lon="-2.81088">
        <ele>100.84</ele>
        <time>2018-01-25T09:00:40Z</time>
      </trkpt>
      <trkpt lat="47.85582" lon="-2.8108">
        <ele>103.92</ele>
        <time>2018-01-25T09:00:59Z</time>
      </trkpt>
      <trkpt lat="47.85579" lon="-2.81081">
        <ele>104.07</ele>
        <time>2018-01-25T09:01:01Z</time>
      </trkpt>
      <trkpt lat="47.85578" lon="-2.81082">
        <ele>104.13</ele>
        <time>2018-01-25T09:01:02Z</time>
      </trkpt>
      <trkpt lat="47.85577" lon="-2.81084">
        <ele>104.16</ele>
        <time>2018-01-25T09:01:03Z</time>
      </trkpt>
      <trkpt lat="47.85577" lon="-2.81085">
        <ele>104.24</ele>
        <time>2018-01-25T09:01:04Z</time>
      </trkpt>
      <trkpt lat="47.85576" lon="-2.81087">
        <ele>104.36</ele>
        <time>2018-01-25T09:01:05Z</time>
      </trkpt>
      <trkpt lat="47.85575" lon="-2.81089">
        <ele>104.48</ele>
        <time>2018-01-25T09:01:06Z</time>
      </trkpt>
      <trkpt lat="47.85575" lon="-2.81091">
        <ele>104.6</ele>
        <time>2018-01-25T09:01:07Z</time>
      </trkpt>
      <trkpt lat="47.85583" lon="-2.81121">
        <ele>106.7</ele>
        <time>2018-01-25T09:01:24Z</time>
      </trkpt>
      <trkpt lat="47.85605" lon="-2.8113">
        <ele>107.26</ele>
        <time>2018-01-25T09:01:40Z</time>
      </trkpt>
      <trkpt lat="47.85627" lon="-2.81138">
        <ele>107.25</ele>
        <time>2018-01-25T09:01:54Z</time>
      </trkpt>
      <trkpt lat="47.85655" lon="-2.81149">
        <ele>106.75</ele>
        <time>2018-01-25T09:02:10Z</time>
      </trkpt>
      <trkpt lat="47.85683" lon="-2.8116">
        <ele>106.41</ele>
        <time>2018-01-25T09:02:26Z</time>
      </trkpt>
      <trkpt lat="47.85709" lon="-2.81169">
        <ele>105.74</ele>
        <time>2018-01-25T09:02:42Z</time>
      </trkpt>
      <trkpt lat="47.85734" lon="-2.81174">
        <ele>106.2</ele>
        <time>2018-01-25T09:02:56Z</time>
      </trkpt>
      <trkpt lat="47.85766" lon="-2.81182">
        <ele>108.4</ele>
        <time>2018-01-25T09:03:15Z</time>
      </trkpt>
      <trkpt lat="47.85795" lon="-2.81188">
        <ele>111</ele>
        <time>2018-01-25T09:03:32Z</time>
      </trkpt>
      <trkpt lat="47.85821" lon="-2.81193">
        <ele>114.1</ele>
        <time>2018-01-25T09:03:49Z</time>
      </trkpt>
      <trkpt lat="47.85838" lon="-2.81199">
        <ele>115.94</ele>
        <time>2018-01-25T09:04:02Z</time>
      </trkpt>
      <trkpt lat="47.85859" lon="-2.81206">
        <ele>118.7</ele>
        <time>2018-01-25T09:04:18Z</time>
      </trkpt>
      <trkpt lat="47.8588" lon="-2.81213">
        <ele>121.7</ele>
        <time>2018-01-25T09:04:34Z</time>
      </trkpt>
      <trkpt lat="47.8589" lon="-2.81214">
        <ele>123.05</ele>
        <time>2018-01-25T09:04:42Z</time>
      </trkpt>
      <trkpt lat="47.85894" lon="-2.81215">
        <ele>123.35</ele>
        <time>2018-01-25T09:04:44Z</time>
      </trkpt>
      <trkpt lat="47.85911" lon="-2.81217">
        <ele>125.32</ele>
        <time>2018-01-25T09:04:56Z</time>
      </trkpt>
      <trkpt lat="47.85927" lon="-2.81221">
        <ele>127.32</ele>
        <time>2018-01-25T09:05:11Z</time>
      </trkpt>
      <trkpt lat="47.85952" lon="-2.81237">
        <ele>129.44</ele>
        <time>2018-01-25T09:05:28Z</time>
      </trkpt>
      <trkpt lat="47.85959" lon="-2.81237">
        <ele>129.99</ele>
        <time>2018-01-25T09:05:33Z</time>
      </trkpt>
      <trkpt lat="47.85983" lon="-2.81241">
        <ele>131.43</ele>
        <time>2018-01-25T09:05:47Z</time>
      </trkpt>
      <trkpt lat="47.85983" lon="-2.81244">
        <ele>131.62</ele>
        <time>2018-01-25T09:05:49Z</time>
      </trkpt>
      <trkpt lat="47.8598" lon="-2.81271">
        <ele>134.12</ele>
        <time>2018-01-25T09:06:04Z</time>
      </trkpt>
      <trkpt lat="47.85979" lon="-2.81288">
        <ele>137.2</ele>
        <time>2018-01-25T09:06:16Z</time>
      </trkpt>
      <trkpt lat="47.85978" lon="-2.81315">
        <ele>139.97</ele>
        <time>2018-01-25T09:06:34Z</time>
      </trkpt>
      <trkpt lat="47.85978" lon="-2.8132">
        <ele>140.07</ele>
        <time>2018-01-25T09:06:36Z</time>
      </trkpt>
      <trkpt lat="47.85976" lon="-2.81329">
        <ele>140.47</ele>
        <time>2018-01-25T09:06:40Z</time>
      </trkpt>
      <trkpt lat="47.8597" lon="-2.81366">
        <ele>142.54</ele>
        <time>2018-01-25T09:06:58Z</time>
      </trkpt>
      <trkpt lat="47.85972" lon="-2.81397">
        <ele>145.05</ele>
        <time>2018-01-25T09:07:13Z</time>
      </trkpt>
      <trkpt lat="47.85957" lon="-2.81408">
        <ele>144.32</ele>
        <time>2018-01-25T09:07:26Z</time>
      </trkpt>
      <trkpt lat="47.85938" lon="-2.8142">
        <ele>142.31</ele>
        <time>2018-01-25T09:07:39Z</time>
      </trkpt>
      <trkpt lat="47.85906" lon="-2.8145">
        <ele>140.88</ele>
        <time>2018-01-25T09:07:54Z</time>
      </trkpt>
      <trkpt lat="47.85879" lon="-2.81482">
        <ele>140.71</ele>
        <time>2018-01-25T09:08:13Z</time>
      </trkpt>
      <trkpt lat="47.85863" lon="-2.81511">
        <ele>141.18</ele>
        <time>2018-01-25T09:08:31Z</time>
      </trkpt>
      <trkpt lat="47.85862" lon="-2.81516">
        <ele>141.34</ele>
        <time>2018-01-25T09:08:35Z</time>
      </trkpt>
      <trkpt lat="47.8586" lon="-2.81521">
        <ele>141.46</ele>
        <time>2018-01-25T09:08:37Z</time>
      </trkpt>
      <trkpt lat="47.8585" lon="-2.81554">
        <ele>142.76</ele>
        <time>2018-01-25T09:08:52Z</time>
      </trkpt>
      <trkpt lat="47.85842" lon="-2.81591">
        <ele>144.15</ele>
        <time>2018-01-25T09:09:04Z</time>
      </trkpt>
      <trkpt lat="47.85837" lon="-2.81643">
        <ele>145.31</ele>
        <time>2018-01-25T09:09:16Z</time>
      </trkpt>
      <trkpt lat="47.85845" lon="-2.81701">
        <ele>145.68</ele>
        <time>2018-01-25T09:09:28Z</time>
      </trkpt>
      <trkpt lat="47.85856" lon="-2.81753">
        <ele>144.98</ele>
        <time>2018-01-25T09:09:40Z</time>
      </trkpt>
      <trkpt lat="47.85875" lon="-2.818">
        <ele>143.73</ele>
        <time>2018-01-25T09:09:52Z</time>
      </trkpt>
      <trkpt lat="47.85896" lon="-2.81838">
        <ele>143.48</ele>
        <time>2018-01-25T09:10:03Z</time>
      </trkpt>
      <trkpt lat="47.85916" lon="-2.81872">
        <ele>143.62</ele>
        <time>2018-01-25T09:10:16Z</time>
      </trkpt>
      <trkpt lat="47.85933" lon="-2.81899">
        <ele>142.36</ele>
        <time>2018-01-25T09:10:32Z</time>
      </trkpt>
      <trkpt lat="47.85944" lon="-2.81913">
        <ele>141.05</ele>
        <time>2018-01-25T09:10:40Z</time>
      </trkpt>
      <trkpt lat="47.85945" lon="-2.81915">
        <ele>140.89</ele>
        <time>2018-01-25T09:10:41Z</time>
      </trkpt>
      <trkpt lat="47.85947" lon="-2.81917">
        <ele>140.62</ele>
        <time>2018-01-25T09:10:42Z</time>
      </trkpt>
      <trkpt lat="47.8595" lon="-2.81921">
        <ele>140.29</ele>
        <time>2018-01-25T09:10:44Z</time>
      </trkpt>
      <trkpt lat="47.85952" lon="-2.81923">
        <ele>140.09</ele>
        <time>2018-01-25T09:10:45Z</time>
      </trkpt>
      <trkpt lat="47.85953" lon="-2.81925">
        <ele>139.86</ele>
        <time>2018-01-25T09:10:46Z</time>
      </trkpt>
      <trkpt lat="47.85954" lon="-2.81928">
        <ele>139.63</ele>
        <time>2018-01-25T09:10:47Z</time>
      </trkpt>
      <trkpt lat="47.85955" lon="-2.8193">
        <ele>139.4</ele>
        <time>2018-01-25T09:10:48Z</time>
      </trkpt>
      <trkpt lat="47.85956" lon="-2.81931">
        <ele>139.19</ele>
        <time>2018-01-25T09:10:49Z</time>
      </trkpt>
      <trkpt lat="47.85957" lon="-2.81932">
        <ele>139</ele>
        <time>2018-01-25T09:10:50Z</time>
      </trkpt>
      <trkpt lat="47.85958" lon="-2.81934">
        <ele>138.83</ele>
        <time>2018-01-25T09:10:51Z</time>
      </trkpt>
      <trkpt lat="47.85959" lon="-2.81936">
        <ele>138.67</ele>
        <time>2018-01-25T09:10:52Z</time>
      </trkpt>
      <trkpt lat="47.85966" lon="-2.81961">
        <ele>135.94</ele>
        <time>2018-01-25T09:11:06Z</time>
      </trkpt>
      <trkpt lat="47.85968" lon="-2.81981">
        <ele>133.37</ele>
        <time>2018-01-25T09:11:15Z</time>
      </trkpt>
      <trkpt lat="47.85971" lon="-2.82001">
        <ele>130.35</ele>
        <time>2018-01-25T09:11:27Z</time>
      </trkpt>
      <trkpt lat="47.85967" lon="-2.82035">
        <ele>127.15</ele>
        <time>2018-01-25T09:11:40Z</time>
      </trkpt>
      <trkpt lat="47.85958" lon="-2.82057">
        <ele>124.06</ele>
        <time>2018-01-25T09:11:52Z</time>
      </trkpt>
      <trkpt lat="47.85947" lon="-2.82067">
        <ele>123.2</ele>
        <time>2018-01-25T09:12:01Z</time>
      </trkpt>
      <trkpt lat="47.85946" lon="-2.82067">
        <ele>123.21</ele>
        <time>2018-01-25T09:12:02Z</time>
      </trkpt>
      <trkpt lat="47.85918" lon="-2.82073">
        <ele>123.25</ele>
        <time>2018-01-25T09:12:18Z</time>
      </trkpt>
      <trkpt lat="47.85891" lon="-2.82082">
        <ele>122.28</ele>
        <time>2018-01-25T09:12:32Z</time>
      </trkpt>
      <trkpt lat="47.8589" lon="-2.82083">
        <ele>122.18</ele>
        <time>2018-01-25T09:12:33Z</time>
      </trkpt>
      <trkpt lat="47.85889" lon="-2.82085">
        <ele>122.06</ele>
        <time>2018-01-25T09:12:34Z</time>
      </trkpt>
      <trkpt lat="47.85888" lon="-2.82087">
        <ele>121.95</ele>
        <time>2018-01-25T09:12:35Z</time>
      </trkpt>
      <trkpt lat="47.85887" lon="-2.82089">
        <ele>121.82</ele>
        <time>2018-01-25T09:12:36Z</time>
      </trkpt>
      <trkpt lat="47.85887" lon="-2.82091">
        <ele>121.66</ele>
        <time>2018-01-25T09:12:37Z</time>
      </trkpt>
      <trkpt lat="47.85884" lon="-2.82113">
        <ele>119.77</ele>
        <time>2018-01-25T09:12:50Z</time>
      </trkpt>
      <trkpt lat="47.85877" lon="-2.8214">
        <ele>117.67</ele>
        <time>2018-01-25T09:13:04Z</time>
      </trkpt>
      <trkpt lat="47.85878" lon="-2.82144">
        <ele>117.12</ele>
        <time>2018-01-25T09:13:31Z</time>
      </trkpt>
      <trkpt lat="47.85881" lon="-2.82148">
        <ele>117.12</ele>
        <time>2018-01-25T09:14:16Z</time>
      </trkpt>
      <trkpt lat="47.85875" lon="-2.82145">
        <ele>116.97</ele>
        <time>2018-01-25T09:14:35Z</time>
      </trkpt>
      <trkpt lat="47.85874" lon="-2.82142">
        <ele>116.99</ele>
        <time>2018-01-25T09:14:57Z</time>
      </trkpt>
      <trkpt lat="47.85874" lon="-2.82141">
        <ele>117.06</ele>
        <time>2018-01-25T09:15:23Z</time>
      </trkpt>
      <trkpt lat="47.85873" lon="-2.82141">
        <ele>117</ele>
        <time>2018-01-25T09:15:42Z</time>
      </trkpt>
      <trkpt lat="47.85868" lon="-2.8214">
        <ele>116.85</ele>
        <time>2018-01-25T09:15:46Z</time>
      </trkpt>
      <trkpt lat="47.8585" lon="-2.82139">
        <ele>115.17</ele>
        <time>2018-01-25T09:16:00Z</time>
      </trkpt>
      <trkpt lat="47.85828" lon="-2.82151">
        <ele>112.81</ele>
        <time>2018-01-25T09:16:13Z</time>
      </trkpt>
      <trkpt lat="47.85816" lon="-2.82173">
        <ele>109.99</ele>
        <time>2018-01-25T09:16:27Z</time>
      </trkpt>
      <trkpt lat="47.85815" lon="-2.8221">
        <ele>108.88</ele>
        <time>2018-01-25T09:16:44Z</time>
      </trkpt>
      <trkpt lat="47.85795" lon="-2.82229">
        <ele>106.84</ele>
        <time>2018-01-25T09:16:59Z</time>
      </trkpt>
      <trkpt lat="47.85771" lon="-2.82213">
        <ele>103.85</ele>
        <time>2018-01-25T09:17:14Z</time>
      </trkpt>
      <trkpt lat="47.85748" lon="-2.82191">
        <ele>101.08</ele>
        <time>2018-01-25T09:17:30Z</time>
      </trkpt>
      <trkpt lat="47.85721" lon="-2.82176">
        <ele>98.22</ele>
        <time>2018-01-25T09:17:47Z</time>
      </trkpt>
      <trkpt lat="47.85715" lon="-2.82198">
        <ele>96.41</ele>
        <time>2018-01-25T09:17:58Z</time>
      </trkpt>
      <trkpt lat="47.85736" lon="-2.82218">
        <ele>96.72</ele>
        <time>2018-01-25T09:18:15Z</time>
      </trkpt>
      <trkpt lat="47.85761" lon="-2.82235">
        <ele>97.64</ele>
        <time>2018-01-25T09:18:30Z</time>
      </trkpt>
      <trkpt lat="47.85784" lon="-2.82254">
        <ele>98.83</ele>
        <time>2018-01-25T09:18:46Z</time>
      </trkpt>
      <trkpt lat="47.85798" lon="-2.82265">
        <ele>99.45</ele>
        <time>2018-01-25T09:18:58Z</time>
      </trkpt>
      <trkpt lat="47.8581" lon="-2.82271">
        <ele>99.81</ele>
        <time>2018-01-25T09:19:06Z</time>
      </trkpt>
      <trkpt lat="47.85811" lon="-2.82272">
        <ele>99.8</ele>
        <time>2018-01-25T09:19:07Z</time>
      </trkpt>
      <trkpt lat="47.85813" lon="-2.82274">
        <ele>99.78</ele>
        <time>2018-01-25T09:19:08Z</time>
      </trkpt>
      <trkpt lat="47.85815" lon="-2.82275">
        <ele>99.76</ele>
        <time>2018-01-25T09:19:09Z</time>
      </trkpt>
      <trkpt lat="47.85817" lon="-2.82276">
        <ele>99.76</ele>
        <time>2018-01-25T09:19:10Z</time>
      </trkpt>
      <trkpt lat="47.85838" lon="-2.82302">
        <ele>100.31</ele>
        <time>2018-01-25T09:19:24Z</time>
      </trkpt>
      <trkpt lat="47.85864" lon="-2.82326">
        <ele>100.96</ele>
        <time>2018-01-25T09:19:42Z</time>
      </trkpt>
      <trkpt lat="47.85878" lon="-2.82357">
        <ele>101.76</ele>
        <time>2018-01-25T09:19:58Z</time>
      </trkpt>
      <trkpt lat="47.8589" lon="-2.82384">
        <ele>102.97</ele>
        <time>2018-01-25T09:20:12Z</time>
      </trkpt>
      <trkpt lat="47.85903" lon="-2.82402">
        <ele>103.73</ele>
        <time>2018-01-25T09:20:24Z</time>
      </trkpt>
      <trkpt lat="47.85938" lon="-2.82437">
        <ele>104.55</ele>
        <time>2018-01-25T09:20:38Z</time>
      </trkpt>
      <trkpt lat="47.85955" lon="-2.82493">
        <ele>104.92</ele>
        <time>2018-01-25T09:20:50Z</time>
      </trkpt>
      <trkpt lat="47.8596" lon="-2.82543">
        <ele>105.72</ele>
        <time>2018-01-25T09:21:00Z</time>
      </trkpt>
      <trkpt lat="47.85951" lon="-2.82589">
        <ele>107.44</ele>
        <time>2018-01-25T09:21:10Z</time>
      </trkpt>
      <trkpt lat="47.85943" lon="-2.82646">
        <ele>109.94</ele>
        <time>2018-01-25T09:21:21Z</time>
      </trkpt>
      <trkpt lat="47.85939" lon="-2.82676">
        <ele>112.36</ele>
        <time>2018-01-25T09:21:31Z</time>
      </trkpt>
      <trkpt lat="47.8594" lon="-2.8268">
        <ele>112.64</ele>
        <time>2018-01-25T09:21:33Z</time>
      </trkpt>
      <trkpt lat="47.85941" lon="-2.82683">
        <ele>112.73</ele>
        <time>2018-01-25T09:21:34Z</time>
      </trkpt>
      <trkpt lat="47.85942" lon="-2.82684">
        <ele>112.77</ele>
        <time>2018-01-25T09:21:35Z</time>
      </trkpt>
      <trkpt lat="47.8596" lon="-2.82703">
        <ele>113.05</ele>
        <time>2018-01-25T09:21:48Z</time>
      </trkpt>
      <trkpt lat="47.85983" lon="-2.82718">
        <ele>112.84</ele>
        <time>2018-01-25T09:22:02Z</time>
      </trkpt>
      <trkpt lat="47.86009" lon="-2.82731">
        <ele>112.73</ele>
        <time>2018-01-25T09:22:18Z</time>
      </trkpt>
      <trkpt lat="47.86035" lon="-2.82741">
        <ele>112.69</ele>
        <time>2018-01-25T09:22:35Z</time>
      </trkpt>
      <trkpt lat="47.86044" lon="-2.82747">
        <ele>112.83</ele>
        <time>2018-01-25T09:22:42Z</time>
      </trkpt>
      <trkpt lat="47.86044" lon="-2.8275">
        <ele>112.84</ele>
        <time>2018-01-25T09:22:43Z</time>
      </trkpt>
      <trkpt lat="47.86044" lon="-2.82784">
        <ele>113.66</ele>
        <time>2018-01-25T09:22:51Z</time>
      </trkpt>
      <trkpt lat="47.8604" lon="-2.82795">
        <ele>115.91</ele>
        <time>2018-01-25T09:22:56Z</time>
      </trkpt>
      <trkpt lat="47.86042" lon="-2.82802">
        <ele>117.97</ele>
        <time>2018-01-25T09:23:00Z</time>
      </trkpt>
      <trkpt lat="47.86046" lon="-2.82817">
        <ele>121.61</ele>
        <time>2018-01-25T09:23:07Z</time>
      </trkpt>
      <trkpt lat="47.86046" lon="-2.82823">
        <ele>123.09</ele>
        <time>2018-01-25T09:23:10Z</time>
      </trkpt>
      <trkpt lat="47.86048" lon="-2.82834">
        <ele>126.17</ele>
        <time>2018-01-25T09:23:17Z</time>
      </trkpt>
      <trkpt lat="47.86053" lon="-2.82848">
        <ele>129.32</ele>
        <time>2018-01-25T09:23:28Z</time>
      </trkpt>
      <trkpt lat="47.86064" lon="-2.82867">
        <ele>132.38</ele>
        <time>2018-01-25T09:23:41Z</time>
      </trkpt>
      <trkpt lat="47.86067" lon="-2.82886">
        <ele>134.45</ele>
        <time>2018-01-25T09:23:52Z</time>
      </trkpt>
      <trkpt lat="47.86069" lon="-2.82897">
        <ele>135.11</ele>
        <time>2018-01-25T09:23:56Z</time>
      </trkpt>
      <trkpt lat="47.86065" lon="-2.82915">
        <ele>136.3</ele>
        <time>2018-01-25T09:24:04Z</time>
      </trkpt>
      <trkpt lat="47.86067" lon="-2.82923">
        <ele>136.87</ele>
        <time>2018-01-25T09:24:08Z</time>
      </trkpt>
      <trkpt lat="47.86066" lon="-2.82948">
        <ele>139.2</ele>
        <time>2018-01-25T09:24:22Z</time>
      </trkpt>
      <trkpt lat="47.86066" lon="-2.82962">
        <ele>139.79</ele>
        <time>2018-01-25T09:24:30Z</time>
      </trkpt>
      <trkpt lat="47.86059" lon="-2.82972">
        <ele>140.39</ele>
        <time>2018-01-25T09:24:36Z</time>
      </trkpt>
      <trkpt lat="47.86052" lon="-2.82992">
        <ele>141.23</ele>
        <time>2018-01-25T09:24:46Z</time>
      </trkpt>
      <trkpt lat="47.86047" lon="-2.83021">
        <ele>142.94</ele>
        <time>2018-01-25T09:24:57Z</time>
      </trkpt>
      <trkpt lat="47.86044" lon="-2.8305">
        <ele>144.29</ele>
        <time>2018-01-25T09:25:09Z</time>
      </trkpt>
      <trkpt lat="47.86038" lon="-2.83071">
        <ele>145.46</ele>
        <time>2018-01-25T09:25:21Z</time>
      </trkpt>
      <trkpt lat="47.86036" lon="-2.83075">
        <ele>145.6</ele>
        <time>2018-01-25T09:25:24Z</time>
      </trkpt>
      <trkpt lat="47.86032" lon="-2.83085">
        <ele>146.08</ele>
        <time>2018-01-25T09:25:30Z</time>
      </trkpt>
      <trkpt lat="47.86019" lon="-2.83105">
        <ele>146.82</ele>
        <time>2018-01-25T09:25:42Z</time>
      </trkpt>
      <trkpt lat="47.86013" lon="-2.83112">
        <ele>147</ele>
        <time>2018-01-25T09:25:47Z</time>
      </trkpt>
      <trkpt lat="47.86005" lon="-2.83133">
        <ele>147.5</ele>
        <time>2018-01-25T09:25:59Z</time>
      </trkpt>
      <trkpt lat="47.86005" lon="-2.83139">
        <ele>147.81</ele>
        <time>2018-01-25T09:26:02Z</time>
      </trkpt>
      <trkpt lat="47.86003" lon="-2.83151">
        <ele>148.36</ele>
        <time>2018-01-25T09:26:08Z</time>
      </trkpt>
      <trkpt lat="47.85999" lon="-2.83169">
        <ele>148.92</ele>
        <time>2018-01-25T09:26:17Z</time>
      </trkpt>
      <trkpt lat="47.85989" lon="-2.83189">
        <ele>149.68</ele>
        <time>2018-01-25T09:26:31Z</time>
      </trkpt>
      <trkpt lat="47.85979" lon="-2.83214">
        <ele>150.64</ele>
        <time>2018-01-25T09:26:46Z</time>
      </trkpt>
      <trkpt lat="47.85961" lon="-2.83245">
        <ele>151.55</ele>
        <time>2018-01-25T09:27:04Z</time>
      </trkpt>
      <trkpt lat="47.85954" lon="-2.83277">
        <ele>152.78</ele>
        <time>2018-01-25T09:27:21Z</time>
      </trkpt>
      <trkpt lat="47.85947" lon="-2.83307">
        <ele>153.86</ele>
        <time>2018-01-25T09:27:36Z</time>
      </trkpt>
      <trkpt lat="47.85945" lon="-2.83313">
        <ele>153.86</ele>
        <time>2018-01-25T09:27:38Z</time>
      </trkpt>
      <trkpt lat="47.85942" lon="-2.83341">
        <ele>154.31</ele>
        <time>2018-01-25T09:27:53Z</time>
      </trkpt>
      <trkpt lat="47.8595" lon="-2.83369">
        <ele>155.28</ele>
        <time>2018-01-25T09:28:10Z</time>
      </trkpt>
      <trkpt lat="47.85959" lon="-2.83385">
        <ele>155.5</ele>
        <time>2018-01-25T09:28:20Z</time>
      </trkpt>
      <trkpt lat="47.85966" lon="-2.83419">
        <ele>155.07</ele>
        <time>2018-01-25T09:28:34Z</time>
      </trkpt>
      <trkpt lat="47.85962" lon="-2.83447">
        <ele>154.11</ele>
        <time>2018-01-25T09:28:46Z</time>
      </trkpt>
      <trkpt lat="47.85963" lon="-2.83473">
        <ele>153.71</ele>
        <time>2018-01-25T09:28:59Z</time>
      </trkpt>
      <trkpt lat="47.8597" lon="-2.83512">
        <ele>152.64</ele>
        <time>2018-01-25T09:29:16Z</time>
      </trkpt>
      <trkpt lat="47.85972" lon="-2.83526">
        <ele>152.43</ele>
        <time>2018-01-25T09:29:20Z</time>
      </trkpt>
      <trkpt lat="47.85985" lon="-2.83562">
        <ele>151.58</ele>
        <time>2018-01-25T09:29:34Z</time>
      </trkpt>
      <trkpt lat="47.85977" lon="-2.83591">
        <ele>151.04</ele>
        <time>2018-01-25T09:29:47Z</time>
      </trkpt>
      <trkpt lat="47.8597" lon="-2.83593">
        <ele>151.02</ele>
        <time>2018-01-25T09:29:52Z</time>
      </trkpt>
      <trkpt lat="47.85955" lon="-2.83594">
        <ele>150.86</ele>
        <time>2018-01-25T09:30:01Z</time>
      </trkpt>
      <trkpt lat="47.85943" lon="-2.83606">
        <ele>150.35</ele>
        <time>2018-01-25T09:30:12Z</time>
      </trkpt>
      <trkpt lat="47.85928" lon="-2.83609">
        <ele>149.73</ele>
        <time>2018-01-25T09:30:22Z</time>
      </trkpt>
      <trkpt lat="47.85909" lon="-2.83618">
        <ele>148.7</ele>
        <time>2018-01-25T09:30:34Z</time>
      </trkpt>
      <trkpt lat="47.85896" lon="-2.83627">
        <ele>147.91</ele>
        <time>2018-01-25T09:30:44Z</time>
      </trkpt>
      <trkpt lat="47.85883" lon="-2.83637">
        <ele>147.25</ele>
        <time>2018-01-25T09:30:52Z</time>
      </trkpt>
      <trkpt lat="47.85868" lon="-2.83626">
        <ele>147.39</ele>
        <time>2018-01-25T09:31:06Z</time>
      </trkpt>
      <trkpt lat="47.85867" lon="-2.83625">
        <ele>147.4</ele>
        <time>2018-01-25T09:31:07Z</time>
      </trkpt>
      <trkpt lat="47.85848" lon="-2.83615">
        <ele>147.71</ele>
        <time>2018-01-25T09:31:22Z</time>
      </trkpt>
      <trkpt lat="47.85824" lon="-2.83619">
        <ele>146.74</ele>
        <time>2018-01-25T09:31:38Z</time>
      </trkpt>
      <trkpt lat="47.85811" lon="-2.83635">
        <ele>145.12</ele>
        <time>2018-01-25T09:31:53Z</time>
      </trkpt>
      <trkpt lat="47.85809" lon="-2.83646">
        <ele>144.7</ele>
        <time>2018-01-25T09:31:58Z</time>
      </trkpt>
      <trkpt lat="47.85803" lon="-2.83657">
        <ele>144.42</ele>
        <time>2018-01-25T09:32:03Z</time>
      </trkpt>
      <trkpt lat="47.85791" lon="-2.83677">
        <ele>143.53</ele>
        <time>2018-01-25T09:32:18Z</time>
      </trkpt>
      <trkpt lat="47.85776" lon="-2.83699">
        <ele>142.28</ele>
        <time>2018-01-25T09:32:31Z</time>
      </trkpt>
      <trkpt lat="47.85768" lon="-2.83709">
        <ele>141.55</ele>
        <time>2018-01-25T09:32:38Z</time>
      </trkpt>
      <trkpt lat="47.85762" lon="-2.83714">
        <ele>141.03</ele>
        <time>2018-01-25T09:32:44Z</time>
      </trkpt>
      <trkpt lat="47.85751" lon="-2.83714">
        <ele>140.2</ele>
        <time>2018-01-25T09:32:48Z</time>
      </trkpt>
      <trkpt lat="47.85736" lon="-2.83704">
        <ele>138.83</ele>
        <time>2018-01-25T09:32:56Z</time>
      </trkpt>
      <trkpt lat="47.85716" lon="-2.83676">
        <ele>137.64</ele>
        <time>2018-01-25T09:33:12Z</time>
      </trkpt>
      <trkpt lat="47.85692" lon="-2.83639">
        <ele>134.29</ele>
        <time>2018-01-25T09:33:31Z</time>
      </trkpt>
      <trkpt lat="47.85676" lon="-2.83608">
        <ele>131.07</ele>
        <time>2018-01-25T09:33:47Z</time>
      </trkpt>
      <trkpt lat="47.8566" lon="-2.83581">
        <ele>127.84</ele>
        <time>2018-01-25T09:34:00Z</time>
      </trkpt>
      <trkpt lat="47.85655" lon="-2.83573">
        <ele>126.93</ele>
        <time>2018-01-25T09:34:04Z</time>
      </trkpt>
      <trkpt lat="47.8565" lon="-2.83565">
        <ele>125.95</ele>
        <time>2018-01-25T09:34:08Z</time>
      </trkpt>
      <trkpt lat="47.85635" lon="-2.83544">
        <ele>122.28</ele>
        <time>2018-01-25T09:34:20Z</time>
      </trkpt>
      <trkpt lat="47.85615" lon="-2.83524">
        <ele>119.26</ele>
        <time>2018-01-25T09:34:34Z</time>
      </trkpt>
      <trkpt lat="47.85596" lon="-2.83512">
        <ele>116.13</ele>
        <time>2018-01-25T09:34:46Z</time>
      </trkpt>
      <trkpt lat="47.85576" lon="-2.83502">
        <ele>112.93</ele>
        <time>2018-01-25T09:34:59Z</time>
      </trkpt>
      <trkpt lat="47.85567" lon="-2.83494">
        <ele>111.3</ele>
        <time>2018-01-25T09:35:06Z</time>
      </trkpt>
      <trkpt lat="47.85561" lon="-2.8349">
        <ele>110.47</ele>
        <time>2018-01-25T09:35:10Z</time>
      </trkpt>
      <trkpt lat="47.85551" lon="-2.83486">
        <ele>108.98</ele>
        <time>2018-01-25T09:35:17Z</time>
      </trkpt>
      <trkpt lat="47.8554" lon="-2.83495">
        <ele>107.75</ele>
        <time>2018-01-25T09:35:25Z</time>
      </trkpt>
      <trkpt lat="47.85519" lon="-2.8349">
        <ele>105.87</ele>
        <time>2018-01-25T09:35:40Z</time>
      </trkpt>
      <trkpt lat="47.85515" lon="-2.8349">
        <ele>105.48</ele>
        <time>2018-01-25T09:35:43Z</time>
      </trkpt>
      <trkpt lat="47.85507" lon="-2.83511">
        <ele>104.87</ele>
        <time>2018-01-25T09:35:55Z</time>
      </trkpt>
      <trkpt lat="47.85508" lon="-2.83515">
        <ele>104.65</ele>
        <time>2018-01-25T09:36:12Z</time>
      </trkpt>
      <trkpt lat="47.85506" lon="-2.83515">
        <ele>104.21</ele>
        <time>2018-01-25T09:36:32Z</time>
      </trkpt>
      <trkpt lat="47.85507" lon="-2.83511">
        <ele>104.02</ele>
        <time>2018-01-25T09:36:45Z</time>
      </trkpt>
      <trkpt lat="47.85516" lon="-2.83505">
        <ele>104.4</ele>
        <time>2018-01-25T09:36:58Z</time>
      </trkpt>
      <trkpt lat="47.85518" lon="-2.83508">
        <ele>104.54</ele>
        <time>2018-01-25T09:37:16Z</time>
      </trkpt>
      <trkpt lat="47.85519" lon="-2.83514">
        <ele>104.51</ele>
        <time>2018-01-25T09:37:31Z</time>
      </trkpt>
      <trkpt lat="47.85523" lon="-2.83513">
        <ele>104.28</ele>
        <time>2018-01-25T09:37:38Z</time>
      </trkpt>
      <trkpt lat="47.85525" lon="-2.83504">
        <ele>104.88</ele>
        <time>2018-01-25T09:37:51Z</time>
      </trkpt>
      <trkpt lat="47.85526" lon="-2.83505">
        <ele>104.98</ele>
        <time>2018-01-25T09:38:08Z</time>
      </trkpt>
      <trkpt lat="47.85526" lon="-2.83512">
        <ele>104.83</ele>
        <time>2018-01-25T09:38:12Z</time>
      </trkpt>
      <trkpt lat="47.85523" lon="-2.83518">
        <ele>104.65</ele>
        <time>2018-01-25T09:38:16Z</time>
      </trkpt>
      <trkpt lat="47.85521" lon="-2.83533">
        <ele>103.81</ele>
        <time>2018-01-25T09:38:27Z</time>
      </trkpt>
      <trkpt lat="47.85521" lon="-2.83533">
        <ele>103.71</ele>
        <time>2018-01-25T09:38:29Z</time>
      </trkpt>
      <trkpt lat="47.85522" lon="-2.83535">
        <ele>103.3</ele>
        <time>2018-01-25T09:38:46Z</time>
      </trkpt>
      <trkpt lat="47.85523" lon="-2.83538">
        <ele>104.18</ele>
        <time>2018-01-25T09:39:05Z</time>
      </trkpt>
      <trkpt lat="47.85525" lon="-2.8353">
        <ele>104</ele>
        <time>2018-01-25T09:40:00Z</time>
      </trkpt>
      <trkpt lat="47.85518" lon="-2.83523">
        <ele>103.99</ele>
        <time>2018-01-25T09:40:25Z</time>
      </trkpt>
      <trkpt lat="47.85523" lon="-2.8352">
        <ele>103.94</ele>
        <time>2018-01-25T09:41:40Z</time>
      </trkpt>
      <trkpt lat="47.8552" lon="-2.83498">
        <ele>104.64</ele>
        <time>2018-01-25T09:42:28Z</time>
      </trkpt>
      <trkpt lat="47.85513" lon="-2.8348">
        <ele>103.82</ele>
        <time>2018-01-25T09:43:19Z</time>
      </trkpt>
      <trkpt lat="47.85545" lon="-2.83538">
        <ele>103.65</ele>
        <time>2018-01-25T09:43:49Z</time>
      </trkpt>
      <trkpt lat="47.85552" lon="-2.83568">
        <ele>104.07</ele>
        <time>2018-01-25T09:44:25Z</time>
      </trkpt>
      <trkpt lat="47.85553" lon="-2.83561">
        <ele>104.27</ele>
        <time>2018-01-25T09:44:35Z</time>
      </trkpt>
      <trkpt lat="47.85554" lon="-2.83562">
        <ele>104.35</ele>
        <time>2018-01-25T09:44:42Z</time>
      </trkpt>
      <trkpt lat="47.85527" lon="-2.83523">
        <ele>104.64</ele>
        <time>2018-01-25T09:44:53Z</time>
      </trkpt>
      <trkpt lat="47.85515" lon="-2.83512">
        <ele>104.3</ele>
        <time>2018-01-25T09:45:00Z</time>
      </trkpt>
      <trkpt lat="47.85514" lon="-2.83506">
        <ele>105.13</ele>
        <time>2018-01-25T09:45:15Z</time>
      </trkpt>
      <trkpt lat="47.85514" lon="-2.83506">
        <ele>104.83</ele>
        <time>2018-01-25T09:45:36Z</time>
      </trkpt>
      <trkpt lat="47.85516" lon="-2.83506">
        <ele>105.27</ele>
        <time>2018-01-25T09:45:57Z</time>
      </trkpt>
      <trkpt lat="47.85521" lon="-2.83504">
        <ele>105.38</ele>
        <time>2018-01-25T09:46:04Z</time>
      </trkpt>
      <trkpt lat="47.85529" lon="-2.835">
        <ele>105.84</ele>
        <time>2018-01-25T09:46:11Z</time>
      </trkpt>
      <trkpt lat="47.85545" lon="-2.83487">
        <ele>107.06</ele>
        <time>2018-01-25T09:46:26Z</time>
      </trkpt>
      <trkpt lat="47.85549" lon="-2.83486">
        <ele>107.27</ele>
        <time>2018-01-25T09:46:29Z</time>
      </trkpt>
      <trkpt lat="47.85563" lon="-2.83497">
        <ele>108.63</ele>
        <time>2018-01-25T09:46:41Z</time>
      </trkpt>
      <trkpt lat="47.8557" lon="-2.83501">
        <ele>110.37</ele>
        <time>2018-01-25T09:46:55Z</time>
      </trkpt>
      <trkpt lat="47.85577" lon="-2.83503">
        <ele>111.41</ele>
        <time>2018-01-25T09:47:11Z</time>
      </trkpt>
      <trkpt lat="47.8558" lon="-2.83503">
        <ele>112.26</ele>
        <time>2018-01-25T09:47:31Z</time>
      </trkpt>
      <trkpt lat="47.85579" lon="-2.83502">
        <ele>112.49</ele>
        <time>2018-01-25T09:47:48Z</time>
      </trkpt>
      <trkpt lat="47.8558" lon="-2.83502">
        <ele>112.49</ele>
        <time>2018-01-25T09:47:52Z</time>
      </trkpt>
      <trkpt lat="47.8559" lon="-2.83506">
        <ele>113.28</ele>
        <time>2018-01-25T09:48:00Z</time>
      </trkpt>
      <trkpt lat="47.85607" lon="-2.83522">
        <ele>116.13</ele>
        <time>2018-01-25T09:48:12Z</time>
      </trkpt>
      <trkpt lat="47.85628" lon="-2.83545">
        <ele>119.15</ele>
        <time>2018-01-25T09:48:25Z</time>
      </trkpt>
      <trkpt lat="47.8564" lon="-2.8356">
        <ele>122.19</ele>
        <time>2018-01-25T09:48:34Z</time>
      </trkpt>
      <trkpt lat="47.85653" lon="-2.83584">
        <ele>125.22</ele>
        <time>2018-01-25T09:48:48Z</time>
      </trkpt>
      <trkpt lat="47.85661" lon="-2.83597">
        <ele>126.9</ele>
        <time>2018-01-25T09:48:56Z</time>
      </trkpt>
      <trkpt lat="47.85662" lon="-2.83599">
        <ele>127.12</ele>
        <time>2018-01-25T09:48:57Z</time>
      </trkpt>
      <trkpt lat="47.85676" lon="-2.83624">
        <ele>130.16</ele>
        <time>2018-01-25T09:49:12Z</time>
      </trkpt>
      <trkpt lat="47.85694" lon="-2.83657">
        <ele>133.01</ele>
        <time>2018-01-25T09:49:25Z</time>
      </trkpt>
      <trkpt lat="47.85706" lon="-2.83682">
        <ele>136.21</ele>
        <time>2018-01-25T09:49:35Z</time>
      </trkpt>
      <trkpt lat="47.8572" lon="-2.83711">
        <ele>138.54</ele>
        <time>2018-01-25T09:49:47Z</time>
      </trkpt>
      <trkpt lat="47.85734" lon="-2.83727">
        <ele>139.41</ele>
        <time>2018-01-25T09:49:59Z</time>
      </trkpt>
      <trkpt lat="47.85747" lon="-2.83746">
        <ele>140.94</ele>
        <time>2018-01-25T09:50:17Z</time>
      </trkpt>
      <trkpt lat="47.85752" lon="-2.83758">
        <ele>141.44</ele>
        <time>2018-01-25T09:50:24Z</time>
      </trkpt>
      <trkpt lat="47.85752" lon="-2.83789">
        <ele>141.05</ele>
        <time>2018-01-25T09:50:41Z</time>
      </trkpt>
      <trkpt lat="47.85752" lon="-2.83792">
        <ele>141</ele>
        <time>2018-01-25T09:50:42Z</time>
      </trkpt>
      <trkpt lat="47.85743" lon="-2.83815">
        <ele>140.19</ele>
        <time>2018-01-25T09:50:58Z</time>
      </trkpt>
      <trkpt lat="47.85731" lon="-2.83838">
        <ele>139.4</ele>
        <time>2018-01-25T09:51:14Z</time>
      </trkpt>
      <trkpt lat="47.85719" lon="-2.83864">
        <ele>138.37</ele>
        <time>2018-01-25T09:51:29Z</time>
      </trkpt>
      <trkpt lat="47.85707" lon="-2.83893">
        <ele>135.91</ele>
        <time>2018-01-25T09:51:46Z</time>
      </trkpt>
      <trkpt lat="47.85687" lon="-2.83915">
        <ele>133.81</ele>
        <time>2018-01-25T09:52:04Z</time>
      </trkpt>
      <trkpt lat="47.85682" lon="-2.83918">
        <ele>133.57</ele>
        <time>2018-01-25T09:52:07Z</time>
      </trkpt>
      <trkpt lat="47.85665" lon="-2.83931">
        <ele>131.37</ele>
        <time>2018-01-25T09:52:20Z</time>
      </trkpt>
      <trkpt lat="47.8566" lon="-2.83933">
        <ele>130.88</ele>
        <time>2018-01-25T09:52:23Z</time>
      </trkpt>
      <trkpt lat="47.85641" lon="-2.83931">
        <ele>128.21</ele>
        <time>2018-01-25T09:52:38Z</time>
      </trkpt>
      <trkpt lat="47.85622" lon="-2.83931">
        <ele>125.29</ele>
        <time>2018-01-25T09:52:53Z</time>
      </trkpt>
      <trkpt lat="47.85616" lon="-2.83934">
        <ele>123.77</ele>
        <time>2018-01-25T09:53:00Z</time>
      </trkpt>
      <trkpt lat="47.85616" lon="-2.83954">
        <ele>121.82</ele>
        <time>2018-01-25T09:53:09Z</time>
      </trkpt>
      <trkpt lat="47.85614" lon="-2.83975">
        <ele>120.71</ele>
        <time>2018-01-25T09:53:19Z</time>
      </trkpt>
      <trkpt lat="47.85619" lon="-2.83991">
        <ele>119.97</ele>
        <time>2018-01-25T09:53:26Z</time>
      </trkpt>
      <trkpt lat="47.8562" lon="-2.84005">
        <ele>118.85</ele>
        <time>2018-01-25T09:53:32Z</time>
      </trkpt>
      <trkpt lat="47.85627" lon="-2.84043">
        <ele>117.24</ele>
        <time>2018-01-25T09:53:45Z</time>
      </trkpt>
      <trkpt lat="47.85631" lon="-2.84066">
        <ele>116.3</ele>
        <time>2018-01-25T09:53:57Z</time>
      </trkpt>
      <trkpt lat="47.8563" lon="-2.84072">
        <ele>116.18</ele>
        <time>2018-01-25T09:53:59Z</time>
      </trkpt>
      <trkpt lat="47.85634" lon="-2.84087">
        <ele>115.63</ele>
        <time>2018-01-25T09:54:07Z</time>
      </trkpt>
      <trkpt lat="47.85638" lon="-2.84105">
        <ele>115.15</ele>
        <time>2018-01-25T09:54:14Z</time>
      </trkpt>
      <trkpt lat="47.85639" lon="-2.84115">
        <ele>114.59</ele>
        <time>2018-01-25T09:54:18Z</time>
      </trkpt>
      <trkpt lat="47.85657" lon="-2.84134">
        <ele>113.93</ele>
        <time>2018-01-25T09:54:31Z</time>
      </trkpt>
      <trkpt lat="47.85675" lon="-2.84138">
        <ele>113.89</ele>
        <time>2018-01-25T09:54:44Z</time>
      </trkpt>
      <trkpt lat="47.85692" lon="-2.84127">
        <ele>113.3</ele>
        <time>2018-01-25T09:54:59Z</time>
      </trkpt>
      <trkpt lat="47.857" lon="-2.84108">
        <ele>112.42</ele>
        <time>2018-01-25T09:55:08Z</time>
      </trkpt>
      <trkpt lat="47.85721" lon="-2.84089">
        <ele>110.75</ele>
        <time>2018-01-25T09:55:23Z</time>
      </trkpt>
      <trkpt lat="47.85736" lon="-2.84068">
        <ele>110.55</ele>
        <time>2018-01-25T09:55:35Z</time>
      </trkpt>
      <trkpt lat="47.85749" lon="-2.84045">
        <ele>110.79</ele>
        <time>2018-01-25T09:55:48Z</time>
      </trkpt>
      <trkpt lat="47.85768" lon="-2.8403">
        <ele>111.68</ele>
        <time>2018-01-25T09:56:02Z</time>
      </trkpt>
      <trkpt lat="47.85797" lon="-2.84012">
        <ele>112.57</ele>
        <time>2018-01-25T09:56:17Z</time>
      </trkpt>
      <trkpt lat="47.85833" lon="-2.84004">
        <ele>113.28</ele>
        <time>2018-01-25T09:56:34Z</time>
      </trkpt>
      <trkpt lat="47.85861" lon="-2.84008">
        <ele>114.15</ele>
        <time>2018-01-25T09:56:52Z</time>
      </trkpt>
      <trkpt lat="47.85884" lon="-2.84025">
        <ele>114.64</ele>
        <time>2018-01-25T09:57:07Z</time>
      </trkpt>
      <trkpt lat="47.85899" lon="-2.84058">
        <ele>115.27</ele>
        <time>2018-01-25T09:57:22Z</time>
      </trkpt>
      <trkpt lat="47.85912" lon="-2.84091">
        <ele>115.56</ele>
        <time>2018-01-25T09:57:38Z</time>
      </trkpt>
      <trkpt lat="47.8592" lon="-2.84126">
        <ele>116.42</ele>
        <time>2018-01-25T09:57:53Z</time>
      </trkpt>
      <trkpt lat="47.85926" lon="-2.84171">
        <ele>118.07</ele>
        <time>2018-01-25T09:58:13Z</time>
      </trkpt>
      <trkpt lat="47.85923" lon="-2.84226">
        <ele>119.28</ele>
        <time>2018-01-25T09:58:36Z</time>
      </trkpt>
      <trkpt lat="47.85913" lon="-2.84272">
        <ele>119.32</ele>
        <time>2018-01-25T09:58:56Z</time>
      </trkpt>
      <trkpt lat="47.85895" lon="-2.84309">
        <ele>119.32</ele>
        <time>2018-01-25T09:59:14Z</time>
      </trkpt>
      <trkpt lat="47.85886" lon="-2.84333">
        <ele>119.39</ele>
        <time>2018-01-25T09:59:29Z</time>
      </trkpt>
      <trkpt lat="47.85883" lon="-2.84331">
        <ele>119.47</ele>
        <time>2018-01-25T09:59:41Z</time>
      </trkpt>
      <trkpt lat="47.85881" lon="-2.84331">
        <ele>119.42</ele>
        <time>2018-01-25T09:59:42Z</time>
      </trkpt>
      <trkpt lat="47.8588" lon="-2.84331">
        <ele>119.4</ele>
        <time>2018-01-25T09:59:43Z</time>
      </trkpt>
      <trkpt lat="47.85879" lon="-2.84333">
        <ele>119.39</ele>
        <time>2018-01-25T09:59:44Z</time>
      </trkpt>
      <trkpt lat="47.85878" lon="-2.84334">
        <ele>119.39</ele>
        <time>2018-01-25T09:59:45Z</time>
      </trkpt>
      <trkpt lat="47.85877" lon="-2.84336">
        <ele>119.4</ele>
        <time>2018-01-25T09:59:46Z</time>
      </trkpt>
      <trkpt lat="47.85852" lon="-2.84376">
        <ele>119.47</ele>
        <time>2018-01-25T10:00:08Z</time>
      </trkpt>
      <trkpt lat="47.85828" lon="-2.84412">
        <ele>118.85</ele>
        <time>2018-01-25T10:00:28Z</time>
      </trkpt>
      <trkpt lat="47.85806" lon="-2.84446">
        <ele>118.69</ele>
        <time>2018-01-25T10:00:47Z</time>
      </trkpt>
      <trkpt lat="47.85787" lon="-2.84473">
        <ele>119.73</ele>
        <time>2018-01-25T10:01:03Z</time>
      </trkpt>
      <trkpt lat="47.85772" lon="-2.84498">
        <ele>120.71</ele>
        <time>2018-01-25T10:01:18Z</time>
      </trkpt>
      <trkpt lat="47.85757" lon="-2.84519">
        <ele>121.26</ele>
        <time>2018-01-25T10:01:29Z</time>
      </trkpt>
      <trkpt lat="47.85743" lon="-2.84541">
        <ele>121.66</ele>
        <time>2018-01-25T10:01:43Z</time>
      </trkpt>
      <trkpt lat="47.85723" lon="-2.84575">
        <ele>120.92</ele>
        <time>2018-01-25T10:01:59Z</time>
      </trkpt>
      <trkpt lat="47.85705" lon="-2.84604">
        <ele>119.72</ele>
        <time>2018-01-25T10:02:16Z</time>
      </trkpt>
      <trkpt lat="47.85686" lon="-2.84636">
        <ele>118.51</ele>
        <time>2018-01-25T10:02:32Z</time>
      </trkpt>
      <trkpt lat="47.85668" lon="-2.84667">
        <ele>117.55</ele>
        <time>2018-01-25T10:02:48Z</time>
      </trkpt>
      <trkpt lat="47.85652" lon="-2.84694">
        <ele>116.43</ele>
        <time>2018-01-25T10:03:03Z</time>
      </trkpt>
      <trkpt lat="47.85633" lon="-2.84732">
        <ele>114.49</ele>
        <time>2018-01-25T10:03:22Z</time>
      </trkpt>
      <trkpt lat="47.85622" lon="-2.84761">
        <ele>113.27</ele>
        <time>2018-01-25T10:03:36Z</time>
      </trkpt>
      <trkpt lat="47.85606" lon="-2.84783">
        <ele>112.25</ele>
        <time>2018-01-25T10:03:51Z</time>
      </trkpt>
      <trkpt lat="47.85601" lon="-2.84791">
        <ele>111.45</ele>
        <time>2018-01-25T10:03:56Z</time>
      </trkpt>
      <trkpt lat="47.856" lon="-2.84792">
        <ele>111.27</ele>
        <time>2018-01-25T10:03:57Z</time>
      </trkpt>
      <trkpt lat="47.856" lon="-2.84795">
        <ele>111.1</ele>
        <time>2018-01-25T10:03:58Z</time>
      </trkpt>
      <trkpt lat="47.85599" lon="-2.84797">
        <ele>110.93</ele>
        <time>2018-01-25T10:03:59Z</time>
      </trkpt>
      <trkpt lat="47.85598" lon="-2.84798">
        <ele>110.75</ele>
        <time>2018-01-25T10:04:00Z</time>
      </trkpt>
      <trkpt lat="47.85597" lon="-2.848">
        <ele>110.42</ele>
        <time>2018-01-25T10:04:01Z</time>
      </trkpt>
      <trkpt lat="47.85582" lon="-2.84826">
        <ele>107.52</ele>
        <time>2018-01-25T10:04:16Z</time>
      </trkpt>
      <trkpt lat="47.85561" lon="-2.8484">
        <ele>104.6</ele>
        <time>2018-01-25T10:04:28Z</time>
      </trkpt>
      <trkpt lat="47.85547" lon="-2.8487">
        <ele>101.44</ele>
        <time>2018-01-25T10:04:42Z</time>
      </trkpt>
      <trkpt lat="47.85535" lon="-2.84905">
        <ele>98.3</ele>
        <time>2018-01-25T10:04:57Z</time>
      </trkpt>
      <trkpt lat="47.85522" lon="-2.84934">
        <ele>95.38</ele>
        <time>2018-01-25T10:05:12Z</time>
      </trkpt>
      <trkpt lat="47.85502" lon="-2.8495">
        <ele>92.28</ele>
        <time>2018-01-25T10:05:25Z</time>
      </trkpt>
      <trkpt lat="47.85493" lon="-2.84955">
        <ele>91.03</ele>
        <time>2018-01-25T10:05:31Z</time>
      </trkpt>
      <trkpt lat="47.85491" lon="-2.84956">
        <ele>90.79</ele>
        <time>2018-01-25T10:05:32Z</time>
      </trkpt>
      <trkpt lat="47.85467" lon="-2.84961">
        <ele>87.67</ele>
        <time>2018-01-25T10:05:46Z</time>
      </trkpt>
      <trkpt lat="47.85445" lon="-2.84962">
        <ele>84.62</ele>
        <time>2018-01-25T10:05:58Z</time>
      </trkpt>
      <trkpt lat="47.85425" lon="-2.84963">
        <ele>81.46</ele>
        <time>2018-01-25T10:06:09Z</time>
      </trkpt>
      <trkpt lat="47.85406" lon="-2.84965">
        <ele>78.44</ele>
        <time>2018-01-25T10:06:20Z</time>
      </trkpt>
      <trkpt lat="47.8538" lon="-2.84969">
        <ele>75.26</ele>
        <time>2018-01-25T10:06:34Z</time>
      </trkpt>
      <trkpt lat="47.8535" lon="-2.84974">
        <ele>72.16</ele>
        <time>2018-01-25T10:06:51Z</time>
      </trkpt>
      <trkpt lat="47.85321" lon="-2.84979">
        <ele>69.01</ele>
        <time>2018-01-25T10:07:08Z</time>
      </trkpt>
      <trkpt lat="47.85288" lon="-2.84983">
        <ele>65.86</ele>
        <time>2018-01-25T10:07:26Z</time>
      </trkpt>
      <trkpt lat="47.85256" lon="-2.84986">
        <ele>62.83</ele>
        <time>2018-01-25T10:07:44Z</time>
      </trkpt>
      <trkpt lat="47.85238" lon="-2.84986">
        <ele>60.58</ele>
        <time>2018-01-25T10:08:03Z</time>
      </trkpt>
      <trkpt lat="47.85234" lon="-2.84983">
        <ele>60.23</ele>
        <time>2018-01-25T10:08:13Z</time>
      </trkpt>
      <trkpt lat="47.85232" lon="-2.84983">
        <ele>60.19</ele>
        <time>2018-01-25T10:08:14Z</time>
      </trkpt>
      <trkpt lat="47.8523" lon="-2.84982">
        <ele>60.13</ele>
        <time>2018-01-25T10:08:15Z</time>
      </trkpt>
      <trkpt lat="47.85203" lon="-2.84978">
        <ele>58.81</ele>
        <time>2018-01-25T10:08:27Z</time>
      </trkpt>
      <trkpt lat="47.85175" lon="-2.84968">
        <ele>58.56</ele>
        <time>2018-01-25T10:08:37Z</time>
      </trkpt>
      <trkpt lat="47.85116" lon="-2.84944">
        <ele>60.85</ele>
        <time>2018-01-25T10:08:51Z</time>
      </trkpt>
      <trkpt lat="47.85112" lon="-2.84943">
        <ele>61.1</ele>
        <time>2018-01-25T10:08:52Z</time>
      </trkpt>
      <trkpt lat="47.85108" lon="-2.84943">
        <ele>61.38</ele>
        <time>2018-01-25T10:08:53Z</time>
      </trkpt>
      <trkpt lat="47.85104" lon="-2.84942">
        <ele>61.65</ele>
        <time>2018-01-25T10:08:54Z</time>
      </trkpt>
      <trkpt lat="47.85099" lon="-2.84941">
        <ele>61.94</ele>
        <time>2018-01-25T10:08:55Z</time>
      </trkpt>
      <trkpt lat="47.85094" lon="-2.84939">
        <ele>62.28</ele>
        <time>2018-01-25T10:08:56Z</time>
      </trkpt>
      <trkpt lat="47.85088" lon="-2.84935">
        <ele>62.61</ele>
        <time>2018-01-25T10:08:57Z</time>
      </trkpt>
      <trkpt lat="47.85083" lon="-2.84933">
        <ele>62.91</ele>
        <time>2018-01-25T10:08:58Z</time>
      </trkpt>
      <trkpt lat="47.85078" lon="-2.8493">
        <ele>63.18</ele>
        <time>2018-01-25T10:08:59Z</time>
      </trkpt>
      <trkpt lat="47.85073" lon="-2.84929">
        <ele>63.46</ele>
        <time>2018-01-25T10:09:00Z</time>
      </trkpt>
      <trkpt lat="47.85068" lon="-2.84928">
        <ele>64.18</ele>
        <time>2018-01-25T10:09:01Z</time>
      </trkpt>
      <trkpt lat="47.85063" lon="-2.84926">
        <ele>64.58</ele>
        <time>2018-01-25T10:09:02Z</time>
      </trkpt>
      <trkpt lat="47.85053" lon="-2.84924">
        <ele>65.43</ele>
        <time>2018-01-25T10:09:04Z</time>
      </trkpt>
      <trkpt lat="47.85048" lon="-2.84921">
        <ele>65.8</ele>
        <time>2018-01-25T10:09:05Z</time>
      </trkpt>
      <trkpt lat="47.85038" lon="-2.84917">
        <ele>66.72</ele>
        <time>2018-01-25T10:09:07Z</time>
      </trkpt>
      <trkpt lat="47.85033" lon="-2.84914">
        <ele>67.19</ele>
        <time>2018-01-25T10:09:08Z</time>
      </trkpt>
      <trkpt lat="47.85028" lon="-2.84911">
        <ele>67.66</ele>
        <time>2018-01-25T10:09:09Z</time>
      </trkpt>
      <trkpt lat="47.8501" lon="-2.84903">
        <ele>69.09</ele>
        <time>2018-01-25T10:09:12Z</time>
      </trkpt>
      <trkpt lat="47.84992" lon="-2.84897">
        <ele>70.65</ele>
        <time>2018-01-25T10:09:15Z</time>
      </trkpt>
      <trkpt lat="47.84987" lon="-2.84894">
        <ele>71.27</ele>
        <time>2018-01-25T10:09:16Z</time>
      </trkpt>
      <trkpt lat="47.84967" lon="-2.84892">
        <ele>74.98</ele>
        <time>2018-01-25T10:09:21Z</time>
      </trkpt>
      <trkpt lat="47.84961" lon="-2.84899">
        <ele>78.47</ele>
        <time>2018-01-25T10:09:25Z</time>
      </trkpt>
      <trkpt lat="47.84959" lon="-2.84913">
        <ele>81.11</ele>
        <time>2018-01-25T10:09:32Z</time>
      </trkpt>
      <trkpt lat="47.8496" lon="-2.84914">
        <ele>81.26</ele>
        <time>2018-01-25T10:09:33Z</time>
      </trkpt>
      <trkpt lat="47.84963" lon="-2.84932">
        <ele>80.22</ele>
        <time>2018-01-25T10:09:48Z</time>
      </trkpt>
      <trkpt lat="47.84964" lon="-2.84934">
        <ele>80.15</ele>
        <time>2018-01-25T10:09:49Z</time>
      </trkpt>
      <trkpt lat="47.84963" lon="-2.84936">
        <ele>80.07</ele>
        <time>2018-01-25T10:09:50Z</time>
      </trkpt>
      <trkpt lat="47.84963" lon="-2.84938">
        <ele>79.94</ele>
        <time>2018-01-25T10:09:51Z</time>
      </trkpt>
      <trkpt lat="47.84963" lon="-2.84939">
        <ele>79.87</ele>
        <time>2018-01-25T10:09:52Z</time>
      </trkpt>
      <trkpt lat="47.84962" lon="-2.84945">
        <ele>79.7</ele>
        <time>2018-01-25T10:09:55Z</time>
      </trkpt>
      <trkpt lat="47.84964" lon="-2.84971">
        <ele>79.36</ele>
        <time>2018-01-25T10:10:08Z</time>
      </trkpt>
      <trkpt lat="47.84964" lon="-2.84973">
        <ele>79.36</ele>
        <time>2018-01-25T10:10:09Z</time>
      </trkpt>
      <trkpt lat="47.84964" lon="-2.84976">
        <ele>79.38</ele>
        <time>2018-01-25T10:10:10Z</time>
      </trkpt>
      <trkpt lat="47.84964" lon="-2.8498">
        <ele>79.37</ele>
        <time>2018-01-25T10:10:12Z</time>
      </trkpt>
      <trkpt lat="47.84968" lon="-2.85002">
        <ele>79.7</ele>
        <time>2018-01-25T10:10:26Z</time>
      </trkpt>
      <trkpt lat="47.84967" lon="-2.85037">
        <ele>81.55</ele>
        <time>2018-01-25T10:10:45Z</time>
      </trkpt>
      <trkpt lat="47.84967" lon="-2.8504">
        <ele>81.69</ele>
        <time>2018-01-25T10:10:46Z</time>
      </trkpt>
      <trkpt lat="47.84966" lon="-2.85051">
        <ele>82.13</ele>
        <time>2018-01-25T10:10:51Z</time>
      </trkpt>
      <trkpt lat="47.84966" lon="-2.85053">
        <ele>82.18</ele>
        <time>2018-01-25T10:10:52Z</time>
      </trkpt>
      <trkpt lat="47.84965" lon="-2.85071">
        <ele>82.7</ele>
        <time>2018-01-25T10:11:03Z</time>
      </trkpt>
      <trkpt lat="47.84965" lon="-2.85087">
        <ele>82.61</ele>
        <time>2018-01-25T10:11:10Z</time>
      </trkpt>
      <trkpt lat="47.84966" lon="-2.85098">
        <ele>82.5</ele>
        <time>2018-01-25T10:11:15Z</time>
      </trkpt>
      <trkpt lat="47.84966" lon="-2.851">
        <ele>82.48</ele>
        <time>2018-01-25T10:11:16Z</time>
      </trkpt>
      <trkpt lat="47.84966" lon="-2.85103">
        <ele>82.48</ele>
        <time>2018-01-25T10:11:17Z</time>
      </trkpt>
      <trkpt lat="47.84965" lon="-2.85142">
        <ele>82.47</ele>
        <time>2018-01-25T10:11:32Z</time>
      </trkpt>
      <trkpt lat="47.84964" lon="-2.85153">
        <ele>82.41</ele>
        <time>2018-01-25T10:11:37Z</time>
      </trkpt>
      <trkpt lat="47.84964" lon="-2.85155">
        <ele>82.39</ele>
        <time>2018-01-25T10:11:38Z</time>
      </trkpt>
      <trkpt lat="47.84964" lon="-2.85184">
        <ele>82.08</ele>
        <time>2018-01-25T10:11:51Z</time>
      </trkpt>
      <trkpt lat="47.84964" lon="-2.85217">
        <ele>81.64</ele>
        <time>2018-01-25T10:12:08Z</time>
      </trkpt>
      <trkpt lat="47.84966" lon="-2.85231">
        <ele>81.44</ele>
        <time>2018-01-25T10:12:14Z</time>
      </trkpt>
      <trkpt lat="47.84966" lon="-2.85233">
        <ele>81.41</ele>
        <time>2018-01-25T10:12:15Z</time>
      </trkpt>
      <trkpt lat="47.84966" lon="-2.85235">
        <ele>81.36</ele>
        <time>2018-01-25T10:12:16Z</time>
      </trkpt>
      <trkpt lat="47.84967" lon="-2.85237">
        <ele>81.32</ele>
        <time>2018-01-25T10:12:17Z</time>
      </trkpt>
      <trkpt lat="47.84968" lon="-2.85257">
        <ele>80.59</ele>
        <time>2018-01-25T10:12:29Z</time>
      </trkpt>
      <trkpt lat="47.84966" lon="-2.85286">
        <ele>79.67</ele>
        <time>2018-01-25T10:12:45Z</time>
      </trkpt>
      <trkpt lat="47.84965" lon="-2.85294">
        <ele>79.47</ele>
        <time>2018-01-25T10:12:48Z</time>
      </trkpt>
      <trkpt lat="47.84964" lon="-2.853">
        <ele>79.34</ele>
        <time>2018-01-25T10:12:50Z</time>
      </trkpt>
      <trkpt lat="47.84964" lon="-2.85302">
        <ele>79.29</ele>
        <time>2018-01-25T10:12:51Z</time>
      </trkpt>
      <trkpt lat="47.84967" lon="-2.85318">
        <ele>78.65</ele>
        <time>2018-01-25T10:12:58Z</time>
      </trkpt>
      <trkpt lat="47.84967" lon="-2.85321">
        <ele>78.56</ele>
        <time>2018-01-25T10:12:59Z</time>
      </trkpt>
      <trkpt lat="47.84968" lon="-2.85324">
        <ele>78.48</ele>
        <time>2018-01-25T10:13:00Z</time>
      </trkpt>
      <trkpt lat="47.84968" lon="-2.85326">
        <ele>78.4</ele>
        <time>2018-01-25T10:13:01Z</time>
      </trkpt>
      <trkpt lat="47.84967" lon="-2.85329">
        <ele>78.31</ele>
        <time>2018-01-25T10:13:02Z</time>
      </trkpt>
      <trkpt lat="47.84967" lon="-2.85331">
        <ele>78.23</ele>
        <time>2018-01-25T10:13:03Z</time>
      </trkpt>
      <trkpt lat="47.84968" lon="-2.85363">
        <ele>77.31</ele>
        <time>2018-01-25T10:13:18Z</time>
      </trkpt>
      <trkpt lat="47.84964" lon="-2.8538">
        <ele>76.24</ele>
        <time>2018-01-25T10:13:33Z</time>
      </trkpt>
      <trkpt lat="47.84964" lon="-2.85405">
        <ele>73.89</ele>
        <time>2018-01-25T10:13:49Z</time>
      </trkpt>
      <trkpt lat="47.84964" lon="-2.85408">
        <ele>73.63</ele>
        <time>2018-01-25T10:13:50Z</time>
      </trkpt>
      <trkpt lat="47.84964" lon="-2.85411">
        <ele>73.33</ele>
        <time>2018-01-25T10:13:51Z</time>
      </trkpt>
      <trkpt lat="47.84963" lon="-2.85415">
        <ele>73.08</ele>
        <time>2018-01-25T10:13:52Z</time>
      </trkpt>
      <trkpt lat="47.84962" lon="-2.85418">
        <ele>72.88</ele>
        <time>2018-01-25T10:13:53Z</time>
      </trkpt>
      <trkpt lat="47.84961" lon="-2.85421">
        <ele>72.72</ele>
        <time>2018-01-25T10:13:54Z</time>
      </trkpt>
      <trkpt lat="47.84961" lon="-2.85424">
        <ele>72.63</ele>
        <time>2018-01-25T10:13:55Z</time>
      </trkpt>
      <trkpt lat="47.84961" lon="-2.85427">
        <ele>72.6</ele>
        <time>2018-01-25T10:13:56Z</time>
      </trkpt>
      <trkpt lat="47.84962" lon="-2.8543">
        <ele>72.58</ele>
        <time>2018-01-25T10:13:57Z</time>
      </trkpt>
      <trkpt lat="47.84963" lon="-2.85433">
        <ele>72.56</ele>
        <time>2018-01-25T10:13:58Z</time>
      </trkpt>
      <trkpt lat="47.84963" lon="-2.85436">
        <ele>72.51</ele>
        <time>2018-01-25T10:13:59Z</time>
      </trkpt>
      <trkpt lat="47.84978" lon="-2.85468">
        <ele>71.54</ele>
        <time>2018-01-25T10:14:15Z</time>
      </trkpt>
      <trkpt lat="47.84991" lon="-2.85477">
        <ele>71.99</ele>
        <time>2018-01-25T10:14:30Z</time>
      </trkpt>
      <trkpt lat="47.85005" lon="-2.8548">
        <ele>70.84</ele>
        <time>2018-01-25T10:14:40Z</time>
      </trkpt>
      <trkpt lat="47.85017" lon="-2.85484">
        <ele>70.4</ele>
        <time>2018-01-25T10:14:50Z</time>
      </trkpt>
      <trkpt lat="47.85019" lon="-2.85487">
        <ele>70.56</ele>
        <time>2018-01-25T10:14:52Z</time>
      </trkpt>
      <trkpt lat="47.85023" lon="-2.85491">
        <ele>70.97</ele>
        <time>2018-01-25T10:14:56Z</time>
      </trkpt>
      <trkpt lat="47.85027" lon="-2.85495">
        <ele>71.31</ele>
        <time>2018-01-25T10:15:00Z</time>
      </trkpt>
      <trkpt lat="47.85046" lon="-2.85507">
        <ele>71.29</ele>
        <time>2018-01-25T10:15:11Z</time>
      </trkpt>
      <trkpt lat="47.85063" lon="-2.85529">
        <ele>71.48</ele>
        <time>2018-01-25T10:15:28Z</time>
      </trkpt>
      <trkpt lat="47.85067" lon="-2.85536">
        <ele>71.51</ele>
        <time>2018-01-25T10:15:32Z</time>
      </trkpt>
      <trkpt lat="47.85068" lon="-2.85538">
        <ele>71.53</ele>
        <time>2018-01-25T10:15:33Z</time>
      </trkpt>
      <trkpt lat="47.8507" lon="-2.85539">
        <ele>71.54</ele>
        <time>2018-01-25T10:15:34Z</time>
      </trkpt>
      <trkpt lat="47.85072" lon="-2.85543">
        <ele>71.54</ele>
        <time>2018-01-25T10:15:36Z</time>
      </trkpt>
      <trkpt lat="47.85073" lon="-2.85545">
        <ele>71.54</ele>
        <time>2018-01-25T10:15:37Z</time>
      </trkpt>
      <trkpt lat="47.85073" lon="-2.85547">
        <ele>71.51</ele>
        <time>2018-01-25T10:15:38Z</time>
      </trkpt>
      <trkpt lat="47.85074" lon="-2.85549">
        <ele>71.46</ele>
        <time>2018-01-25T10:15:39Z</time>
      </trkpt>
      <trkpt lat="47.85075" lon="-2.8555">
        <ele>71.4</ele>
        <time>2018-01-25T10:15:40Z</time>
      </trkpt>
      <trkpt lat="47.8508" lon="-2.85562">
        <ele>71.09</ele>
        <time>2018-01-25T10:15:47Z</time>
      </trkpt>
      <trkpt lat="47.85086" lon="-2.85571">
        <ele>70.88</ele>
        <time>2018-01-25T10:15:52Z</time>
      </trkpt>
      <trkpt lat="47.85087" lon="-2.85574">
        <ele>70.84</ele>
        <time>2018-01-25T10:15:53Z</time>
      </trkpt>
      <trkpt lat="47.85087" lon="-2.85576">
        <ele>70.78</ele>
        <time>2018-01-25T10:15:54Z</time>
      </trkpt>
      <trkpt lat="47.8509" lon="-2.85598">
        <ele>70.6</ele>
        <time>2018-01-25T10:16:05Z</time>
      </trkpt>
      <trkpt lat="47.85091" lon="-2.856">
        <ele>70.61</ele>
        <time>2018-01-25T10:16:06Z</time>
      </trkpt>
      <trkpt lat="47.85092" lon="-2.85602">
        <ele>70.6</ele>
        <time>2018-01-25T10:16:07Z</time>
      </trkpt>
      <trkpt lat="47.85096" lon="-2.85633">
        <ele>70.63</ele>
        <time>2018-01-25T10:16:22Z</time>
      </trkpt>
      <trkpt lat="47.85096" lon="-2.85645">
        <ele>70.31</ele>
        <time>2018-01-25T10:16:37Z</time>
      </trkpt>
      <trkpt lat="47.85098" lon="-2.85654">
        <ele>70.28</ele>
        <time>2018-01-25T10:16:59Z</time>
      </trkpt>
      <trkpt lat="47.85096" lon="-2.85658">
        <ele>70.42</ele>
        <time>2018-01-25T10:17:19Z</time>
      </trkpt>
      <trkpt lat="47.85094" lon="-2.85663">
        <ele>70.47</ele>
        <time>2018-01-25T10:17:22Z</time>
      </trkpt>
      <trkpt lat="47.85093" lon="-2.85664">
        <ele>70.49</ele>
        <time>2018-01-25T10:17:23Z</time>
      </trkpt>
      <trkpt lat="47.85084" lon="-2.85669">
        <ele>70.77</ele>
        <time>2018-01-25T10:17:30Z</time>
      </trkpt>
      <trkpt lat="47.85082" lon="-2.85671">
        <ele>70.91</ele>
        <time>2018-01-25T10:17:31Z</time>
      </trkpt>
      <trkpt lat="47.85081" lon="-2.85674">
        <ele>71.07</ele>
        <time>2018-01-25T10:17:32Z</time>
      </trkpt>
      <trkpt lat="47.85079" lon="-2.85677">
        <ele>71.19</ele>
        <time>2018-01-25T10:17:33Z</time>
      </trkpt>
      <trkpt lat="47.85077" lon="-2.8568">
        <ele>71.29</ele>
        <time>2018-01-25T10:17:34Z</time>
      </trkpt>
      <trkpt lat="47.85074" lon="-2.85682">
        <ele>71.37</ele>
        <time>2018-01-25T10:17:35Z</time>
      </trkpt>
      <trkpt lat="47.85072" lon="-2.85685">
        <ele>71.48</ele>
        <time>2018-01-25T10:17:36Z</time>
      </trkpt>
      <trkpt lat="47.85069" lon="-2.85688">
        <ele>71.6</ele>
        <time>2018-01-25T10:17:37Z</time>
      </trkpt>
      <trkpt lat="47.85066" lon="-2.85691">
        <ele>71.74</ele>
        <time>2018-01-25T10:17:38Z</time>
      </trkpt>
      <trkpt lat="47.85063" lon="-2.85695">
        <ele>71.87</ele>
        <time>2018-01-25T10:17:39Z</time>
      </trkpt>
      <trkpt lat="47.8506" lon="-2.857">
        <ele>72.02</ele>
        <time>2018-01-25T10:17:40Z</time>
      </trkpt>
      <trkpt lat="47.85058" lon="-2.85703">
        <ele>72.29</ele>
        <time>2018-01-25T10:17:41Z</time>
      </trkpt>
      <trkpt lat="47.85048" lon="-2.85721">
        <ele>75.38</ele>
        <time>2018-01-25T10:17:49Z</time>
      </trkpt>
      <trkpt lat="47.8504" lon="-2.85731">
        <ele>78.46</ele>
        <time>2018-01-25T10:18:01Z</time>
      </trkpt>
      <trkpt lat="47.85039" lon="-2.85734">
        <ele>78.59</ele>
        <time>2018-01-25T10:18:02Z</time>
      </trkpt>
      <trkpt lat="47.85033" lon="-2.85765">
        <ele>79.44</ele>
        <time>2018-01-25T10:18:10Z</time>
      </trkpt>
      <trkpt lat="47.85033" lon="-2.8579">
        <ele>79.91</ele>
        <time>2018-01-25T10:18:16Z</time>
      </trkpt>
      <trkpt lat="47.85024" lon="-2.85856">
        <ele>79.84</ele>
        <time>2018-01-25T10:18:29Z</time>
      </trkpt>
      <trkpt lat="47.85024" lon="-2.85881">
        <ele>79.35</ele>
        <time>2018-01-25T10:18:34Z</time>
      </trkpt>
      <trkpt lat="47.85018" lon="-2.85903">
        <ele>79.48</ele>
        <time>2018-01-25T10:18:40Z</time>
      </trkpt>
      <trkpt lat="47.85008" lon="-2.85956">
        <ele>80.57</ele>
        <time>2018-01-25T10:18:51Z</time>
      </trkpt>
      <trkpt lat="47.84995" lon="-2.85985">
        <ele>80.72</ele>
        <time>2018-01-25T10:18:59Z</time>
      </trkpt>
      <trkpt lat="47.84991" lon="-2.85994">
        <ele>81.56</ele>
        <time>2018-01-25T10:19:03Z</time>
      </trkpt>
      <trkpt lat="47.84987" lon="-2.8602">
        <ele>82.94</ele>
        <time>2018-01-25T10:19:19Z</time>
      </trkpt>
      <trkpt lat="47.84986" lon="-2.8603">
        <ele>82.94</ele>
        <time>2018-01-25T10:19:24Z</time>
      </trkpt>
      <trkpt lat="47.8498" lon="-2.86045">
        <ele>82.68</ele>
        <time>2018-01-25T10:19:31Z</time>
      </trkpt>
      <trkpt lat="47.84979" lon="-2.86057">
        <ele>82.77</ele>
        <time>2018-01-25T10:19:34Z</time>
      </trkpt>
      <trkpt lat="47.84978" lon="-2.86082">
        <ele>83.01</ele>
        <time>2018-01-25T10:19:40Z</time>
      </trkpt>
      <trkpt lat="47.8498" lon="-2.86106">
        <ele>83.4</ele>
        <time>2018-01-25T10:19:48Z</time>
      </trkpt>
      <trkpt lat="47.84979" lon="-2.86113">
        <ele>83.52</ele>
        <time>2018-01-25T10:19:50Z</time>
      </trkpt>
      <trkpt lat="47.84977" lon="-2.86121">
        <ele>83.61</ele>
        <time>2018-01-25T10:19:53Z</time>
      </trkpt>
      <trkpt lat="47.84978" lon="-2.86133">
        <ele>83.68</ele>
        <time>2018-01-25T10:19:59Z</time>
      </trkpt>
      <trkpt lat="47.84979" lon="-2.86151">
        <ele>83.78</ele>
        <time>2018-01-25T10:20:06Z</time>
      </trkpt>
      <trkpt lat="47.84977" lon="-2.86175">
        <ele>83.51</ele>
        <time>2018-01-25T10:20:15Z</time>
      </trkpt>
      <trkpt lat="47.84977" lon="-2.86182">
        <ele>83.43</ele>
        <time>2018-01-25T10:20:18Z</time>
      </trkpt>
      <trkpt lat="47.84976" lon="-2.86187">
        <ele>83.32</ele>
        <time>2018-01-25T10:20:20Z</time>
      </trkpt>
      <trkpt lat="47.84978" lon="-2.86202">
        <ele>83.14</ele>
        <time>2018-01-25T10:20:26Z</time>
      </trkpt>
      <trkpt lat="47.84974" lon="-2.86229">
        <ele>83.01</ele>
        <time>2018-01-25T10:20:38Z</time>
      </trkpt>
      <trkpt lat="47.84971" lon="-2.86262">
        <ele>82.69</ele>
        <time>2018-01-25T10:20:52Z</time>
      </trkpt>
      <trkpt lat="47.8497" lon="-2.86267">
        <ele>82.64</ele>
        <time>2018-01-25T10:20:54Z</time>
      </trkpt>
      <trkpt lat="47.84969" lon="-2.86289">
        <ele>82.51</ele>
        <time>2018-01-25T10:21:03Z</time>
      </trkpt>
      <trkpt lat="47.84968" lon="-2.86297">
        <ele>82.38</ele>
        <time>2018-01-25T10:21:07Z</time>
      </trkpt>
      <trkpt lat="47.84967" lon="-2.86318">
        <ele>82.33</ele>
        <time>2018-01-25T10:21:16Z</time>
      </trkpt>
      <trkpt lat="47.84961" lon="-2.8635">
        <ele>81.88</ele>
        <time>2018-01-25T10:21:29Z</time>
      </trkpt>
      <trkpt lat="47.84959" lon="-2.86358">
        <ele>81.59</ele>
        <time>2018-01-25T10:21:33Z</time>
      </trkpt>
      <trkpt lat="47.84952" lon="-2.86399">
        <ele>80.48</ele>
        <time>2018-01-25T10:21:49Z</time>
      </trkpt>
      <trkpt lat="47.84947" lon="-2.86427">
        <ele>80.22</ele>
        <time>2018-01-25T10:22:02Z</time>
      </trkpt>
      <trkpt lat="47.84944" lon="-2.86431">
        <ele>80.28</ele>
        <time>2018-01-25T10:22:04Z</time>
      </trkpt>
      <trkpt lat="47.84925" lon="-2.86431">
        <ele>79.03</ele>
        <time>2018-01-25T10:22:21Z</time>
      </trkpt>
      <trkpt lat="47.84923" lon="-2.86431">
        <ele>78.87</ele>
        <time>2018-01-25T10:22:22Z</time>
      </trkpt>
      <trkpt lat="47.84911" lon="-2.8643">
        <ele>75.64</ele>
        <time>2018-01-25T10:22:33Z</time>
      </trkpt>
      <trkpt lat="47.84902" lon="-2.86441">
        <ele>72.6</ele>
        <time>2018-01-25T10:22:48Z</time>
      </trkpt>
      <trkpt lat="47.84897" lon="-2.8646">
        <ele>69.56</ele>
        <time>2018-01-25T10:23:01Z</time>
      </trkpt>
      <trkpt lat="47.84895" lon="-2.86466">
        <ele>69.11</ele>
        <time>2018-01-25T10:23:04Z</time>
      </trkpt>
      <trkpt lat="47.8489" lon="-2.86482">
        <ele>67.75</ele>
        <time>2018-01-25T10:23:12Z</time>
      </trkpt>
      <trkpt lat="47.84886" lon="-2.86501">
        <ele>66.38</ele>
        <time>2018-01-25T10:23:21Z</time>
      </trkpt>
      <trkpt lat="47.84885" lon="-2.86504">
        <ele>66.17</ele>
        <time>2018-01-25T10:23:23Z</time>
      </trkpt>
      <trkpt lat="47.84882" lon="-2.86523">
        <ele>64.68</ele>
        <time>2018-01-25T10:23:37Z</time>
      </trkpt>
      <trkpt lat="47.84882" lon="-2.86549">
        <ele>64.61</ele>
        <time>2018-01-25T10:23:51Z</time>
      </trkpt>
      <trkpt lat="47.8488" lon="-2.86563">
        <ele>64.49</ele>
        <time>2018-01-25T10:23:59Z</time>
      </trkpt>
      <trkpt lat="47.84874" lon="-2.86597">
        <ele>61.99</ele>
        <time>2018-01-25T10:24:15Z</time>
      </trkpt>
      <trkpt lat="47.84871" lon="-2.86624">
        <ele>59.87</ele>
        <time>2018-01-25T10:24:32Z</time>
      </trkpt>
      <trkpt lat="47.84864" lon="-2.86623">
        <ele>59.15</ele>
        <time>2018-01-25T10:24:37Z</time>
      </trkpt>
      <trkpt lat="47.84852" lon="-2.86602">
        <ele>57.9</ele>
        <time>2018-01-25T10:24:51Z</time>
      </trkpt>
      <trkpt lat="47.84833" lon="-2.86577">
        <ele>58.44</ele>
        <time>2018-01-25T10:25:05Z</time>
      </trkpt>
      <trkpt lat="47.84817" lon="-2.86546">
        <ele>58.57</ele>
        <time>2018-01-25T10:25:22Z</time>
      </trkpt>
      <trkpt lat="47.8481" lon="-2.86533">
        <ele>58.6</ele>
        <time>2018-01-25T10:25:29Z</time>
      </trkpt>
      <trkpt lat="47.84807" lon="-2.86542">
        <ele>58.88</ele>
        <time>2018-01-25T10:25:36Z</time>
      </trkpt>
      <trkpt lat="47.84801" lon="-2.86577">
        <ele>58.86</ele>
        <time>2018-01-25T10:25:49Z</time>
      </trkpt>
      <trkpt lat="47.84789" lon="-2.86585">
        <ele>59.49</ele>
        <time>2018-01-25T10:25:55Z</time>
      </trkpt>
      <trkpt lat="47.84785" lon="-2.86594">
        <ele>63.66</ele>
        <time>2018-01-25T10:26:00Z</time>
      </trkpt>
      <trkpt lat="47.84782" lon="-2.86606">
        <ele>65.8</ele>
        <time>2018-01-25T10:26:04Z</time>
      </trkpt>
      <trkpt lat="47.84779" lon="-2.86613">
        <ele>66.39</ele>
        <time>2018-01-25T10:26:06Z</time>
      </trkpt>
      <trkpt lat="47.84773" lon="-2.86646">
        <ele>69.71</ele>
        <time>2018-01-25T10:26:21Z</time>
      </trkpt>
      <trkpt lat="47.84771" lon="-2.86675">
        <ele>68.79</ele>
        <time>2018-01-25T10:26:36Z</time>
      </trkpt>
      <trkpt lat="47.84774" lon="-2.86691">
        <ele>67.19</ele>
        <time>2018-01-25T10:26:45Z</time>
      </trkpt>
      <trkpt lat="47.84785" lon="-2.86718">
        <ele>64.94</ele>
        <time>2018-01-25T10:27:00Z</time>
      </trkpt>
      <trkpt lat="47.84795" lon="-2.86765">
        <ele>63.14</ele>
        <time>2018-01-25T10:27:14Z</time>
      </trkpt>
      <trkpt lat="47.8481" lon="-2.86814">
        <ele>63.93</ele>
        <time>2018-01-25T10:27:25Z</time>
      </trkpt>
      <trkpt lat="47.84829" lon="-2.8686">
        <ele>66.05</ele>
        <time>2018-01-25T10:27:35Z</time>
      </trkpt>
      <trkpt lat="47.84829" lon="-2.86893">
        <ele>69.32</ele>
        <time>2018-01-25T10:27:41Z</time>
      </trkpt>
      <trkpt lat="47.84834" lon="-2.86922">
        <ele>72.49</ele>
        <time>2018-01-25T10:27:48Z</time>
      </trkpt>
      <trkpt lat="47.84842" lon="-2.86953">
        <ele>75.79</ele>
        <time>2018-01-25T10:27:57Z</time>
      </trkpt>
      <trkpt lat="47.84845" lon="-2.86974">
        <ele>78.62</ele>
        <time>2018-01-25T10:28:08Z</time>
      </trkpt>
      <trkpt lat="47.84847" lon="-2.86986">
        <ele>79.22</ele>
        <time>2018-01-25T10:28:13Z</time>
      </trkpt>
      <trkpt lat="47.84859" lon="-2.86989">
        <ele>80.07</ele>
        <time>2018-01-25T10:28:29Z</time>
      </trkpt>
      <trkpt lat="47.84858" lon="-2.86989">
        <ele>79.88</ele>
        <time>2018-01-25T10:28:56Z</time>
      </trkpt>
      <trkpt lat="47.84859" lon="-2.86994">
        <ele>79.94</ele>
        <time>2018-01-25T10:29:29Z</time>
      </trkpt>
      <trkpt lat="47.84861" lon="-2.87005">
        <ele>80.02</ele>
        <time>2018-01-25T10:29:46Z</time>
      </trkpt>
      <trkpt lat="47.84868" lon="-2.87031">
        <ele>80.71</ele>
        <time>2018-01-25T10:29:58Z</time>
      </trkpt>
      <trkpt lat="47.84873" lon="-2.87044">
        <ele>81.23</ele>
        <time>2018-01-25T10:30:04Z</time>
      </trkpt>
      <trkpt lat="47.84879" lon="-2.8707">
        <ele>82.11</ele>
        <time>2018-01-25T10:30:17Z</time>
      </trkpt>
      <trkpt lat="47.84886" lon="-2.8709">
        <ele>82.26</ele>
        <time>2018-01-25T10:30:31Z</time>
      </trkpt>
      <trkpt lat="47.84886" lon="-2.87092">
        <ele>82.21</ele>
        <time>2018-01-25T10:30:40Z</time>
      </trkpt>
      <trkpt lat="47.84887" lon="-2.87102">
        <ele>82.2</ele>
        <time>2018-01-25T10:30:46Z</time>
      </trkpt>
      <trkpt lat="47.84888" lon="-2.87113">
        <ele>82.03</ele>
        <time>2018-01-25T10:30:50Z</time>
      </trkpt>
      <trkpt lat="47.84887" lon="-2.87161">
        <ele>81.65</ele>
        <time>2018-01-25T10:31:09Z</time>
      </trkpt>
      <trkpt lat="47.84882" lon="-2.87197">
        <ele>81.22</ele>
        <time>2018-01-25T10:31:24Z</time>
      </trkpt>
      <trkpt lat="47.8488" lon="-2.87236">
        <ele>80.63</ele>
        <time>2018-01-25T10:31:39Z</time>
      </trkpt>
      <trkpt lat="47.84879" lon="-2.8728">
        <ele>80</ele>
        <time>2018-01-25T10:31:56Z</time>
      </trkpt>
      <trkpt lat="47.84875" lon="-2.8733">
        <ele>78.55</ele>
        <time>2018-01-25T10:32:17Z</time>
      </trkpt>
      <trkpt lat="47.84875" lon="-2.87348">
        <ele>78.16</ele>
        <time>2018-01-25T10:32:24Z</time>
      </trkpt>
      <trkpt lat="47.84879" lon="-2.87356">
        <ele>77.92</ele>
        <time>2018-01-25T10:32:28Z</time>
      </trkpt>
      <trkpt lat="47.84881" lon="-2.87358">
        <ele>77.92</ele>
        <time>2018-01-25T10:32:29Z</time>
      </trkpt>
      <trkpt lat="47.84906" lon="-2.87373">
        <ele>79.24</ele>
        <time>2018-01-25T10:32:44Z</time>
      </trkpt>
      <trkpt lat="47.84935" lon="-2.87395">
        <ele>80.42</ele>
        <time>2018-01-25T10:33:03Z</time>
      </trkpt>
      <trkpt lat="47.84938" lon="-2.874">
        <ele>80.5</ele>
        <time>2018-01-25T10:33:06Z</time>
      </trkpt>
      <trkpt lat="47.84931" lon="-2.87439">
        <ele>79.97</ele>
        <time>2018-01-25T10:33:25Z</time>
      </trkpt>
      <trkpt lat="47.84923" lon="-2.87481">
        <ele>79.63</ele>
        <time>2018-01-25T10:33:44Z</time>
      </trkpt>
      <trkpt lat="47.84924" lon="-2.87517">
        <ele>79.17</ele>
        <time>2018-01-25T10:34:00Z</time>
      </trkpt>
      <trkpt lat="47.84923" lon="-2.87563">
        <ele>78.63</ele>
        <time>2018-01-25T10:34:17Z</time>
      </trkpt>
      <trkpt lat="47.84929" lon="-2.8761">
        <ele>78.4</ele>
        <time>2018-01-25T10:34:36Z</time>
      </trkpt>
      <trkpt lat="47.84932" lon="-2.87647">
        <ele>78.2</ele>
        <time>2018-01-25T10:34:54Z</time>
      </trkpt>
      <trkpt lat="47.84935" lon="-2.87688">
        <ele>78.51</ele>
        <time>2018-01-25T10:35:11Z</time>
      </trkpt>
      <trkpt lat="47.84935" lon="-2.87724">
        <ele>78.39</ele>
        <time>2018-01-25T10:35:24Z</time>
      </trkpt>
      <trkpt lat="47.84931" lon="-2.87768">
        <ele>78.64</ele>
        <time>2018-01-25T10:35:42Z</time>
      </trkpt>
      <trkpt lat="47.84927" lon="-2.87813">
        <ele>78.69</ele>
        <time>2018-01-25T10:36:02Z</time>
      </trkpt>
      <trkpt lat="47.84929" lon="-2.87864">
        <ele>78</ele>
        <time>2018-01-25T10:36:15Z</time>
      </trkpt>
      <trkpt lat="47.84911" lon="-2.87909">
        <ele>77.14</ele>
        <time>2018-01-25T10:36:25Z</time>
      </trkpt>
      <trkpt lat="47.84893" lon="-2.87926">
        <ele>74.3</ele>
        <time>2018-01-25T10:36:36Z</time>
      </trkpt>
      <trkpt lat="47.84879" lon="-2.87931">
        <ele>71.63</ele>
        <time>2018-01-25T10:36:50Z</time>
      </trkpt>
      <trkpt lat="47.84862" lon="-2.87937">
        <ele>68.72</ele>
        <time>2018-01-25T10:37:03Z</time>
      </trkpt>
      <trkpt lat="47.84839" lon="-2.87936">
        <ele>66.48</ele>
        <time>2018-01-25T10:37:16Z</time>
      </trkpt>
      <trkpt lat="47.84824" lon="-2.8793">
        <ele>64.52</ele>
        <time>2018-01-25T10:37:27Z</time>
      </trkpt>
      <trkpt lat="47.84812" lon="-2.87956">
        <ele>61.26</ele>
        <time>2018-01-25T10:37:42Z</time>
      </trkpt>
      <trkpt lat="47.84809" lon="-2.87991">
        <ele>59.11</ele>
        <time>2018-01-25T10:37:59Z</time>
      </trkpt>
      <trkpt lat="47.84788" lon="-2.88004">
        <ele>56.1</ele>
        <time>2018-01-25T10:38:10Z</time>
      </trkpt>
      <trkpt lat="47.84786" lon="-2.88006">
        <ele>55.27</ele>
        <time>2018-01-25T10:38:11Z</time>
      </trkpt>
      <trkpt lat="47.84784" lon="-2.8801">
        <ele>54.57</ele>
        <time>2018-01-25T10:38:13Z</time>
      </trkpt>
      <trkpt lat="47.84748" lon="-2.88019">
        <ele>52.83</ele>
        <time>2018-01-25T10:38:24Z</time>
      </trkpt>
      <trkpt lat="47.84716" lon="-2.88025">
        <ele>53.6</ele>
        <time>2018-01-25T10:38:33Z</time>
      </trkpt>
      <trkpt lat="47.84675" lon="-2.88032">
        <ele>54.08</ele>
        <time>2018-01-25T10:38:44Z</time>
      </trkpt>
      <trkpt lat="47.84639" lon="-2.88037">
        <ele>54.45</ele>
        <time>2018-01-25T10:38:53Z</time>
      </trkpt>
      <trkpt lat="47.84632" lon="-2.8804">
        <ele>54.49</ele>
        <time>2018-01-25T10:38:55Z</time>
      </trkpt>
      <trkpt lat="47.84615" lon="-2.8803">
        <ele>54.46</ele>
        <time>2018-01-25T10:38:59Z</time>
      </trkpt>
      <trkpt lat="47.84588" lon="-2.87989">
        <ele>56.38</ele>
        <time>2018-01-25T10:39:09Z</time>
      </trkpt>
      <trkpt lat="47.84553" lon="-2.8796">
        <ele>57.63</ele>
        <time>2018-01-25T10:39:19Z</time>
      </trkpt>
      <trkpt lat="47.84532" lon="-2.87942">
        <ele>58.1</ele>
        <time>2018-01-25T10:39:25Z</time>
      </trkpt>
      <trkpt lat="47.84527" lon="-2.87939">
        <ele>58.17</ele>
        <time>2018-01-25T10:39:26Z</time>
      </trkpt>
      <trkpt lat="47.84449" lon="-2.87909">
        <ele>60.89</ele>
        <time>2018-01-25T10:39:37Z</time>
      </trkpt>
      <trkpt lat="47.84392" lon="-2.87889">
        <ele>64.74</ele>
        <time>2018-01-25T10:39:44Z</time>
      </trkpt>
      <trkpt lat="47.84383" lon="-2.87886">
        <ele>64.74</ele>
        <time>2018-01-25T10:39:45Z</time>
      </trkpt>
      <trkpt lat="47.84338" lon="-2.87872">
        <ele>67.87</ele>
        <time>2018-01-25T10:39:50Z</time>
      </trkpt>
      <trkpt lat="47.84291" lon="-2.87855">
        <ele>71.33</ele>
        <time>2018-01-25T10:39:56Z</time>
      </trkpt>
      <trkpt lat="47.84257" lon="-2.87842">
        <ele>74.45</ele>
        <time>2018-01-25T10:40:01Z</time>
      </trkpt>
      <trkpt lat="47.84229" lon="-2.87833">
        <ele>77.49</ele>
        <time>2018-01-25T10:40:06Z</time>
      </trkpt>
      <trkpt lat="47.84207" lon="-2.87825">
        <ele>81.41</ele>
        <time>2018-01-25T10:40:12Z</time>
      </trkpt>
      <trkpt lat="47.84182" lon="-2.87817">
        <ele>84.49</ele>
        <time>2018-01-25T10:40:20Z</time>
      </trkpt>
      <trkpt lat="47.84135" lon="-2.8781">
        <ele>87.44</ele>
        <time>2018-01-25T10:40:35Z</time>
      </trkpt>
      <trkpt lat="47.84108" lon="-2.87791">
        <ele>88.15</ele>
        <time>2018-01-25T10:40:47Z</time>
      </trkpt>
      <trkpt lat="47.84101" lon="-2.87745">
        <ele>89.6</ele>
        <time>2018-01-25T10:40:57Z</time>
      </trkpt>
      <trkpt lat="47.84092" lon="-2.87705">
        <ele>91.88</ele>
        <time>2018-01-25T10:41:07Z</time>
      </trkpt>
      <trkpt lat="47.84061" lon="-2.87701">
        <ele>92.35</ele>
        <time>2018-01-25T10:41:19Z</time>
      </trkpt>
      <trkpt lat="47.84007" lon="-2.87707">
        <ele>90.49</ele>
        <time>2018-01-25T10:41:33Z</time>
      </trkpt>
      <trkpt lat="47.83962" lon="-2.87721">
        <ele>89.5</ele>
        <time>2018-01-25T10:41:43Z</time>
      </trkpt>
      <trkpt lat="47.8391" lon="-2.87734">
        <ele>89.22</ele>
        <time>2018-01-25T10:41:54Z</time>
      </trkpt>
      <trkpt lat="47.83905" lon="-2.87735">
        <ele>89.17</ele>
        <time>2018-01-25T10:41:55Z</time>
      </trkpt>
      <trkpt lat="47.83875" lon="-2.87755">
        <ele>89.08</ele>
        <time>2018-01-25T10:42:01Z</time>
      </trkpt>
      <trkpt lat="47.8387" lon="-2.87761">
        <ele>89.08</ele>
        <time>2018-01-25T10:42:02Z</time>
      </trkpt>
      <trkpt lat="47.83865" lon="-2.87767">
        <ele>89.06</ele>
        <time>2018-01-25T10:42:03Z</time>
      </trkpt>
      <trkpt lat="47.83861" lon="-2.87771">
        <ele>89.05</ele>
        <time>2018-01-25T10:42:04Z</time>
      </trkpt>
      <trkpt lat="47.83857" lon="-2.87775">
        <ele>89.06</ele>
        <time>2018-01-25T10:42:05Z</time>
      </trkpt>
      <trkpt lat="47.83852" lon="-2.8778">
        <ele>89.11</ele>
        <time>2018-01-25T10:42:06Z</time>
      </trkpt>
      <trkpt lat="47.83847" lon="-2.87787">
        <ele>89.21</ele>
        <time>2018-01-25T10:42:07Z</time>
      </trkpt>
      <trkpt lat="47.83843" lon="-2.87791">
        <ele>89.34</ele>
        <time>2018-01-25T10:42:08Z</time>
      </trkpt>
      <trkpt lat="47.83803" lon="-2.87843">
        <ele>92.19</ele>
        <time>2018-01-25T10:42:21Z</time>
      </trkpt>
      <trkpt lat="47.83796" lon="-2.87881">
        <ele>93.23</ele>
        <time>2018-01-25T10:42:35Z</time>
      </trkpt>
      <trkpt lat="47.83801" lon="-2.87915">
        <ele>91.89</ele>
        <time>2018-01-25T10:42:52Z</time>
      </trkpt>
      <trkpt lat="47.8381" lon="-2.87941">
        <ele>89.79</ele>
        <time>2018-01-25T10:43:07Z</time>
      </trkpt>
      <trkpt lat="47.83815" lon="-2.87954">
        <ele>88.52</ele>
        <time>2018-01-25T10:43:16Z</time>
      </trkpt>
      <trkpt lat="47.83815" lon="-2.87956">
        <ele>88.38</ele>
        <time>2018-01-25T10:43:17Z</time>
      </trkpt>
      <trkpt lat="47.83816" lon="-2.87958">
        <ele>88.26</ele>
        <time>2018-01-25T10:43:18Z</time>
      </trkpt>
      <trkpt lat="47.83816" lon="-2.8796">
        <ele>88.13</ele>
        <time>2018-01-25T10:43:19Z</time>
      </trkpt>
      <trkpt lat="47.83816" lon="-2.87962">
        <ele>87.97</ele>
        <time>2018-01-25T10:43:20Z</time>
      </trkpt>
      <trkpt lat="47.83817" lon="-2.87964">
        <ele>87.81</ele>
        <time>2018-01-25T10:43:21Z</time>
      </trkpt>
      <trkpt lat="47.83818" lon="-2.87966">
        <ele>87.64</ele>
        <time>2018-01-25T10:43:22Z</time>
      </trkpt>
      <trkpt lat="47.83819" lon="-2.8797">
        <ele>87.26</ele>
        <time>2018-01-25T10:43:25Z</time>
      </trkpt>
      <trkpt lat="47.83819" lon="-2.87972">
        <ele>87.13</ele>
        <time>2018-01-25T10:43:26Z</time>
      </trkpt>
      <trkpt lat="47.83819" lon="-2.87974">
        <ele>86.98</ele>
        <time>2018-01-25T10:43:27Z</time>
      </trkpt>
      <trkpt lat="47.83819" lon="-2.87976">
        <ele>86.8</ele>
        <time>2018-01-25T10:43:28Z</time>
      </trkpt>
      <trkpt lat="47.83819" lon="-2.87978">
        <ele>86.65</ele>
        <time>2018-01-25T10:43:29Z</time>
      </trkpt>
      <trkpt lat="47.83815" lon="-2.87988">
        <ele>85.5</ele>
        <time>2018-01-25T10:43:42Z</time>
      </trkpt>
      <trkpt lat="47.8381" lon="-2.88002">
        <ele>85.48</ele>
        <time>2018-01-25T10:44:00Z</time>
      </trkpt>
      <trkpt lat="47.83813" lon="-2.88014">
        <ele>85.4</ele>
        <time>2018-01-25T10:44:07Z</time>
      </trkpt>
      <trkpt lat="47.83813" lon="-2.88016">
        <ele>85.42</ele>
        <time>2018-01-25T10:44:08Z</time>
      </trkpt>
      <trkpt lat="47.83814" lon="-2.8802">
        <ele>85.46</ele>
        <time>2018-01-25T10:44:10Z</time>
      </trkpt>
      <trkpt lat="47.83815" lon="-2.88022">
        <ele>85.49</ele>
        <time>2018-01-25T10:44:11Z</time>
      </trkpt>
      <trkpt lat="47.83826" lon="-2.8804">
        <ele>85.45</ele>
        <time>2018-01-25T10:44:24Z</time>
      </trkpt>
      <trkpt lat="47.83847" lon="-2.88071">
        <ele>83.76</ele>
        <time>2018-01-25T10:44:44Z</time>
      </trkpt>
      <trkpt lat="47.83849" lon="-2.88077">
        <ele>83.56</ele>
        <time>2018-01-25T10:44:47Z</time>
      </trkpt>
      <trkpt lat="47.83851" lon="-2.88087">
        <ele>83.42</ele>
        <time>2018-01-25T10:44:50Z</time>
      </trkpt>
      <trkpt lat="47.83852" lon="-2.88113">
        <ele>84</ele>
        <time>2018-01-25T10:45:05Z</time>
      </trkpt>
      <trkpt lat="47.83858" lon="-2.88153">
        <ele>83.4</ele>
        <time>2018-01-25T10:45:22Z</time>
      </trkpt>
      <trkpt lat="47.8386" lon="-2.8818">
        <ele>83.08</ele>
        <time>2018-01-25T10:45:39Z</time>
      </trkpt>
      <trkpt lat="47.8386" lon="-2.88184">
        <ele>82.53</ele>
        <time>2018-01-25T10:45:44Z</time>
      </trkpt>
      <trkpt lat="47.83872" lon="-2.8818">
        <ele>82.8</ele>
        <time>2018-01-25T10:46:03Z</time>
      </trkpt>
      <trkpt lat="47.83889" lon="-2.88157">
        <ele>82.2</ele>
        <time>2018-01-25T10:46:21Z</time>
      </trkpt>
      <trkpt lat="47.83892" lon="-2.88151">
        <ele>81.77</ele>
        <time>2018-01-25T10:46:24Z</time>
      </trkpt>
      <trkpt lat="47.83904" lon="-2.88138">
        <ele>80.22</ele>
        <time>2018-01-25T10:46:35Z</time>
      </trkpt>
      <trkpt lat="47.83914" lon="-2.88142">
        <ele>78.83</ele>
        <time>2018-01-25T10:46:50Z</time>
      </trkpt>
      <trkpt lat="47.83938" lon="-2.88141">
        <ele>76.75</ele>
        <time>2018-01-25T10:47:09Z</time>
      </trkpt>
      <trkpt lat="47.83969" lon="-2.88143">
        <ele>75</ele>
        <time>2018-01-25T10:47:31Z</time>
      </trkpt>
      <trkpt lat="47.83974" lon="-2.88142">
        <ele>74.73</ele>
        <time>2018-01-25T10:47:34Z</time>
      </trkpt>
      <trkpt lat="47.8398" lon="-2.88141">
        <ele>74.49</ele>
        <time>2018-01-25T10:47:36Z</time>
      </trkpt>
      <trkpt lat="47.84008" lon="-2.88143">
        <ele>73.3</ele>
        <time>2018-01-25T10:47:53Z</time>
      </trkpt>
      <trkpt lat="47.84026" lon="-2.88151">
        <ele>73</ele>
        <time>2018-01-25T10:48:02Z</time>
      </trkpt>
      <trkpt lat="47.84032" lon="-2.88159">
        <ele>72.93</ele>
        <time>2018-01-25T10:48:07Z</time>
      </trkpt>
      <trkpt lat="47.84038" lon="-2.88167">
        <ele>72.95</ele>
        <time>2018-01-25T10:48:11Z</time>
      </trkpt>
      <trkpt lat="47.84059" lon="-2.88179">
        <ele>72.52</ele>
        <time>2018-01-25T10:48:27Z</time>
      </trkpt>
      <trkpt lat="47.8409" lon="-2.88185">
        <ele>70.08</ele>
        <time>2018-01-25T10:48:49Z</time>
      </trkpt>
      <trkpt lat="47.84119" lon="-2.88201">
        <ele>70.8</ele>
        <time>2018-01-25T10:49:10Z</time>
      </trkpt>
      <trkpt lat="47.84142" lon="-2.88222">
        <ele>70.45</ele>
        <time>2018-01-25T10:49:28Z</time>
      </trkpt>
      <trkpt lat="47.84165" lon="-2.88235">
        <ele>69.68</ele>
        <time>2018-01-25T10:49:45Z</time>
      </trkpt>
      <trkpt lat="47.84184" lon="-2.88239">
        <ele>67.16</ele>
        <time>2018-01-25T10:50:01Z</time>
      </trkpt>
      <trkpt lat="47.84186" lon="-2.8824">
        <ele>66.77</ele>
        <time>2018-01-25T10:50:02Z</time>
      </trkpt>
      <trkpt lat="47.8419" lon="-2.8824">
        <ele>65.85</ele>
        <time>2018-01-25T10:50:04Z</time>
      </trkpt>
      <trkpt lat="47.84215" lon="-2.88247">
        <ele>63.52</ele>
        <time>2018-01-25T10:50:20Z</time>
      </trkpt>
      <trkpt lat="47.84239" lon="-2.88255">
        <ele>62.49</ele>
        <time>2018-01-25T10:50:36Z</time>
      </trkpt>
      <trkpt lat="47.84247" lon="-2.88258">
        <ele>62.04</ele>
        <time>2018-01-25T10:50:40Z</time>
      </trkpt>
      <trkpt lat="47.84271" lon="-2.88271">
        <ele>64.21</ele>
        <time>2018-01-25T10:50:53Z</time>
      </trkpt>
      <trkpt lat="47.84285" lon="-2.88284">
        <ele>65.77</ele>
        <time>2018-01-25T10:51:03Z</time>
      </trkpt>
      <trkpt lat="47.84292" lon="-2.88306">
        <ele>65.85</ele>
        <time>2018-01-25T10:51:14Z</time>
      </trkpt>
      <trkpt lat="47.84282" lon="-2.88339">
        <ele>66.12</ele>
        <time>2018-01-25T10:51:32Z</time>
      </trkpt>
      <trkpt lat="47.84281" lon="-2.88342">
        <ele>66.13</ele>
        <time>2018-01-25T10:51:33Z</time>
      </trkpt>
      <trkpt lat="47.84269" lon="-2.88381">
        <ele>66.02</ele>
        <time>2018-01-25T10:51:51Z</time>
      </trkpt>
      <trkpt lat="47.84269" lon="-2.88417">
        <ele>64.93</ele>
        <time>2018-01-25T10:52:07Z</time>
      </trkpt>
      <trkpt lat="47.84271" lon="-2.88431">
        <ele>63.06</ele>
        <time>2018-01-25T10:52:16Z</time>
      </trkpt>
      <trkpt lat="47.8427" lon="-2.88442">
        <ele>62.13</ele>
        <time>2018-01-25T10:52:20Z</time>
      </trkpt>
      <trkpt lat="47.8427" lon="-2.88467">
        <ele>60.75</ele>
        <time>2018-01-25T10:52:32Z</time>
      </trkpt>
      <trkpt lat="47.84268" lon="-2.88512">
        <ele>60.8</ele>
        <time>2018-01-25T10:52:51Z</time>
      </trkpt>
      <trkpt lat="47.84268" lon="-2.88522">
        <ele>61.07</ele>
        <time>2018-01-25T10:52:55Z</time>
      </trkpt>
      <trkpt lat="47.84265" lon="-2.88542">
        <ele>61.42</ele>
        <time>2018-01-25T10:53:01Z</time>
      </trkpt>
      <trkpt lat="47.84263" lon="-2.88569">
        <ele>62</ele>
        <time>2018-01-25T10:53:14Z</time>
      </trkpt>
      <trkpt lat="47.84263" lon="-2.88594">
        <ele>62.18</ele>
        <time>2018-01-25T10:53:25Z</time>
      </trkpt>
      <trkpt lat="47.84265" lon="-2.88624">
        <ele>62.85</ele>
        <time>2018-01-25T10:53:42Z</time>
      </trkpt>
      <trkpt lat="47.84263" lon="-2.88628">
        <ele>62.73</ele>
        <time>2018-01-25T10:53:45Z</time>
      </trkpt>
      <trkpt lat="47.84256" lon="-2.88648">
        <ele>61.93</ele>
        <time>2018-01-25T10:54:09Z</time>
      </trkpt>
      <trkpt lat="47.84254" lon="-2.8865">
        <ele>62.06</ele>
        <time>2018-01-25T10:54:15Z</time>
      </trkpt>
      <trkpt lat="47.8425" lon="-2.88665">
        <ele>62.29</ele>
        <time>2018-01-25T10:54:24Z</time>
      </trkpt>
      <trkpt lat="47.84245" lon="-2.88687">
        <ele>64.03</ele>
        <time>2018-01-25T10:54:45Z</time>
      </trkpt>
      <trkpt lat="47.84237" lon="-2.88685">
        <ele>63.79</ele>
        <time>2018-01-25T10:55:03Z</time>
      </trkpt>
      <trkpt lat="47.84232" lon="-2.88693">
        <ele>63.88</ele>
        <time>2018-01-25T10:55:32Z</time>
      </trkpt>
      <trkpt lat="47.84236" lon="-2.88695">
        <ele>63.72</ele>
        <time>2018-01-25T10:55:50Z</time>
      </trkpt>
      <trkpt lat="47.84236" lon="-2.88704">
        <ele>64.26</ele>
        <time>2018-01-25T10:56:01Z</time>
      </trkpt>
      <trkpt lat="47.84231" lon="-2.88713">
        <ele>64.4</ele>
        <time>2018-01-25T10:56:26Z</time>
      </trkpt>
      <trkpt lat="47.84219" lon="-2.88721">
        <ele>64.63</ele>
        <time>2018-01-25T10:56:46Z</time>
      </trkpt>
      <trkpt lat="47.84199" lon="-2.88739">
        <ele>66.19</ele>
        <time>2018-01-25T10:57:07Z</time>
      </trkpt>
      <trkpt lat="47.84172" lon="-2.88749">
        <ele>67.21</ele>
        <time>2018-01-25T10:57:25Z</time>
      </trkpt>
      <trkpt lat="47.8415" lon="-2.88761">
        <ele>68.39</ele>
        <time>2018-01-25T10:57:43Z</time>
      </trkpt>
      <trkpt lat="47.84139" lon="-2.88765">
        <ele>68.72</ele>
        <time>2018-01-25T10:57:50Z</time>
      </trkpt>
      <trkpt lat="47.84118" lon="-2.8877">
        <ele>69.24</ele>
        <time>2018-01-25T10:57:57Z</time>
      </trkpt>
      <trkpt lat="47.8409" lon="-2.88766">
        <ele>70.16</ele>
        <time>2018-01-25T10:58:06Z</time>
      </trkpt>
      <trkpt lat="47.84057" lon="-2.88758">
        <ele>71.61</ele>
        <time>2018-01-25T10:58:15Z</time>
      </trkpt>
      <trkpt lat="47.84054" lon="-2.88755">
        <ele>71.7</ele>
        <time>2018-01-25T10:58:16Z</time>
      </trkpt>
      <trkpt lat="47.84017" lon="-2.8875">
        <ele>72.33</ele>
        <time>2018-01-25T10:58:24Z</time>
      </trkpt>
      <trkpt lat="47.8398" lon="-2.88763">
        <ele>74.41</ele>
        <time>2018-01-25T10:58:34Z</time>
      </trkpt>
      <trkpt lat="47.83952" lon="-2.88801">
        <ele>73</ele>
        <time>2018-01-25T10:58:46Z</time>
      </trkpt>
      <trkpt lat="47.83951" lon="-2.88807">
        <ele>72.97</ele>
        <time>2018-01-25T10:58:47Z</time>
      </trkpt>
      <trkpt lat="47.83953" lon="-2.88829">
        <ele>73.52</ele>
        <time>2018-01-25T10:58:50Z</time>
      </trkpt>
      <trkpt lat="47.83954" lon="-2.88846">
        <ele>74.22</ele>
        <time>2018-01-25T10:58:52Z</time>
      </trkpt>
      <trkpt lat="47.83952" lon="-2.88896">
        <ele>78.06</ele>
        <time>2018-01-25T10:58:59Z</time>
      </trkpt>
      <trkpt lat="47.83954" lon="-2.8892">
        <ele>81.51</ele>
        <time>2018-01-25T10:59:03Z</time>
      </trkpt>
      <trkpt lat="47.83954" lon="-2.88927">
        <ele>82.09</ele>
        <time>2018-01-25T10:59:04Z</time>
      </trkpt>
      <trkpt lat="47.83951" lon="-2.88973">
        <ele>85.21</ele>
        <time>2018-01-25T10:59:11Z</time>
      </trkpt>
      <trkpt lat="47.83945" lon="-2.8903">
        <ele>88.31</ele>
        <time>2018-01-25T10:59:21Z</time>
      </trkpt>
      <trkpt lat="47.83946" lon="-2.89034">
        <ele>88.48</ele>
        <time>2018-01-25T10:59:22Z</time>
      </trkpt>
      <trkpt lat="47.83956" lon="-2.89084">
        <ele>90.89</ele>
        <time>2018-01-25T10:59:32Z</time>
      </trkpt>
      <trkpt lat="47.83966" lon="-2.89129">
        <ele>93.69</ele>
        <time>2018-01-25T10:59:41Z</time>
      </trkpt>
      <trkpt lat="47.83959" lon="-2.89177">
        <ele>96.88</ele>
        <time>2018-01-25T10:59:50Z</time>
      </trkpt>
      <trkpt lat="47.83956" lon="-2.89187">
        <ele>97.78</ele>
        <time>2018-01-25T10:59:52Z</time>
      </trkpt>
      <trkpt lat="47.83937" lon="-2.8926">
        <ele>99.69</ele>
        <time>2018-01-25T11:00:02Z</time>
      </trkpt>
      <trkpt lat="47.83916" lon="-2.89334">
        <ele>100.96</ele>
        <time>2018-01-25T11:00:14Z</time>
      </trkpt>
      <trkpt lat="47.83897" lon="-2.89387">
        <ele>101.02</ele>
        <time>2018-01-25T11:00:26Z</time>
      </trkpt>
      <trkpt lat="47.83891" lon="-2.89418">
        <ele>100.21</ele>
        <time>2018-01-25T11:00:39Z</time>
      </trkpt>
      <trkpt lat="47.83877" lon="-2.89453">
        <ele>98.46</ele>
        <time>2018-01-25T11:00:56Z</time>
      </trkpt>
      <trkpt lat="47.83865" lon="-2.89481">
        <ele>97.02</ele>
        <time>2018-01-25T11:01:11Z</time>
      </trkpt>
      <trkpt lat="47.83858" lon="-2.89517">
        <ele>95.21</ele>
        <time>2018-01-25T11:01:27Z</time>
      </trkpt>
      <trkpt lat="47.83856" lon="-2.89531">
        <ele>94.35</ele>
        <time>2018-01-25T11:01:33Z</time>
      </trkpt>
      <trkpt lat="47.83855" lon="-2.89534">
        <ele>94.21</ele>
        <time>2018-01-25T11:01:34Z</time>
      </trkpt>
      <trkpt lat="47.83849" lon="-2.89568">
        <ele>92.86</ele>
        <time>2018-01-25T11:01:48Z</time>
      </trkpt>
      <trkpt lat="47.83846" lon="-2.89575">
        <ele>92.7</ele>
        <time>2018-01-25T11:01:52Z</time>
      </trkpt>
      <trkpt lat="47.83846" lon="-2.89577">
        <ele>92.66</ele>
        <time>2018-01-25T11:01:53Z</time>
      </trkpt>
      <trkpt lat="47.83845" lon="-2.8958">
        <ele>92.65</ele>
        <time>2018-01-25T11:01:54Z</time>
      </trkpt>
      <trkpt lat="47.83845" lon="-2.89582">
        <ele>92.64</ele>
        <time>2018-01-25T11:01:55Z</time>
      </trkpt>
      <trkpt lat="47.83845" lon="-2.89585">
        <ele>92.64</ele>
        <time>2018-01-25T11:01:56Z</time>
      </trkpt>
      <trkpt lat="47.83845" lon="-2.89588">
        <ele>92.64</ele>
        <time>2018-01-25T11:01:57Z</time>
      </trkpt>
      <trkpt lat="47.83845" lon="-2.89591">
        <ele>92.64</ele>
        <time>2018-01-25T11:01:58Z</time>
      </trkpt>
      <trkpt lat="47.83845" lon="-2.89593">
        <ele>92.58</ele>
        <time>2018-01-25T11:01:59Z</time>
      </trkpt>
      <trkpt lat="47.83844" lon="-2.89596">
        <ele>92.54</ele>
        <time>2018-01-25T11:02:00Z</time>
      </trkpt>
      <trkpt lat="47.83844" lon="-2.896">
        <ele>92.52</ele>
        <time>2018-01-25T11:02:01Z</time>
      </trkpt>
      <trkpt lat="47.83843" lon="-2.89604">
        <ele>92.56</ele>
        <time>2018-01-25T11:02:02Z</time>
      </trkpt>
      <trkpt lat="47.83838" lon="-2.89639">
        <ele>92.98</ele>
        <time>2018-01-25T11:02:08Z</time>
      </trkpt>
      <trkpt lat="47.83837" lon="-2.89654">
        <ele>93.27</ele>
        <time>2018-01-25T11:02:10Z</time>
      </trkpt>
      <trkpt lat="47.83832" lon="-2.89692">
        <ele>94.96</ele>
        <time>2018-01-25T11:02:15Z</time>
      </trkpt>
      <trkpt lat="47.8383" lon="-2.897">
        <ele>95.27</ele>
        <time>2018-01-25T11:02:16Z</time>
      </trkpt>
      <trkpt lat="47.83829" lon="-2.89709">
        <ele>95.61</ele>
        <time>2018-01-25T11:02:17Z</time>
      </trkpt>
      <trkpt lat="47.83826" lon="-2.89735">
        <ele>97.36</ele>
        <time>2018-01-25T11:02:20Z</time>
      </trkpt>
      <trkpt lat="47.83823" lon="-2.89745">
        <ele>97.89</ele>
        <time>2018-01-25T11:02:21Z</time>
      </trkpt>
      <trkpt lat="47.83821" lon="-2.89755">
        <ele>98.42</ele>
        <time>2018-01-25T11:02:22Z</time>
      </trkpt>
      <trkpt lat="47.83812" lon="-2.89808">
        <ele>101.63</ele>
        <time>2018-01-25T11:02:27Z</time>
      </trkpt>
      <trkpt lat="47.83805" lon="-2.89844">
        <ele>105.2</ele>
        <time>2018-01-25T11:02:31Z</time>
      </trkpt>
      <trkpt lat="47.83799" lon="-2.89876">
        <ele>108.81</ele>
        <time>2018-01-25T11:02:35Z</time>
      </trkpt>
      <trkpt lat="47.83798" lon="-2.89882">
        <ele>109.68</ele>
        <time>2018-01-25T11:02:36Z</time>
      </trkpt>
      <trkpt lat="47.83796" lon="-2.89888">
        <ele>110.57</ele>
        <time>2018-01-25T11:02:37Z</time>
      </trkpt>
      <trkpt lat="47.83795" lon="-2.89893">
        <ele>111.45</ele>
        <time>2018-01-25T11:02:38Z</time>
      </trkpt>
      <trkpt lat="47.83794" lon="-2.89899">
        <ele>112.32</ele>
        <time>2018-01-25T11:02:39Z</time>
      </trkpt>
      <trkpt lat="47.8379" lon="-2.8992">
        <ele>116.43</ele>
        <time>2018-01-25T11:02:43Z</time>
      </trkpt>
      <trkpt lat="47.83785" lon="-2.89949">
        <ele>119.82</ele>
        <time>2018-01-25T11:02:48Z</time>
      </trkpt>
      <trkpt lat="47.83778" lon="-2.89977">
        <ele>123.36</ele>
        <time>2018-01-25T11:02:54Z</time>
      </trkpt>
      <trkpt lat="47.83776" lon="-2.89999">
        <ele>126.43</ele>
        <time>2018-01-25T11:03:00Z</time>
      </trkpt>
      <trkpt lat="47.83774" lon="-2.90012">
        <ele>129.57</ele>
        <time>2018-01-25T11:03:07Z</time>
      </trkpt>
      <trkpt lat="47.83774" lon="-2.90013">
        <ele>129.87</ele>
        <time>2018-01-25T11:03:08Z</time>
      </trkpt>
      <trkpt lat="47.83774" lon="-2.90021">
        <ele>130.52</ele>
        <time>2018-01-25T11:03:11Z</time>
      </trkpt>
      <trkpt lat="47.83774" lon="-2.90023">
        <ele>130.68</ele>
        <time>2018-01-25T11:03:12Z</time>
      </trkpt>
      <trkpt lat="47.83774" lon="-2.90025">
        <ele>130.83</ele>
        <time>2018-01-25T11:03:13Z</time>
      </trkpt>
      <trkpt lat="47.83773" lon="-2.90027">
        <ele>130.98</ele>
        <time>2018-01-25T11:03:14Z</time>
      </trkpt>
      <trkpt lat="47.83772" lon="-2.9003">
        <ele>131.12</ele>
        <time>2018-01-25T11:03:15Z</time>
      </trkpt>
      <trkpt lat="47.83771" lon="-2.90033">
        <ele>131.26</ele>
        <time>2018-01-25T11:03:16Z</time>
      </trkpt>
      <trkpt lat="47.83762" lon="-2.90073">
        <ele>132.9</ele>
        <time>2018-01-25T11:03:24Z</time>
      </trkpt>
      <trkpt lat="47.83761" lon="-2.90079">
        <ele>133.21</ele>
        <time>2018-01-25T11:03:25Z</time>
      </trkpt>
      <trkpt lat="47.83752" lon="-2.90124">
        <ele>136.48</ele>
        <time>2018-01-25T11:03:33Z</time>
      </trkpt>
      <trkpt lat="47.8374" lon="-2.90193">
        <ele>139.39</ele>
        <time>2018-01-25T11:03:46Z</time>
      </trkpt>
      <trkpt lat="47.83737" lon="-2.90238">
        <ele>138.64</ele>
        <time>2018-01-25T11:03:57Z</time>
      </trkpt>
      <trkpt lat="47.83735" lon="-2.90275">
        <ele>137.56</ele>
        <time>2018-01-25T11:04:10Z</time>
      </trkpt>
      <trkpt lat="47.83737" lon="-2.903">
        <ele>135.57</ele>
        <time>2018-01-25T11:04:23Z</time>
      </trkpt>
      <trkpt lat="47.83738" lon="-2.90303">
        <ele>135.44</ele>
        <time>2018-01-25T11:04:24Z</time>
      </trkpt>
      <trkpt lat="47.83738" lon="-2.90305">
        <ele>135.31</ele>
        <time>2018-01-25T11:04:25Z</time>
      </trkpt>
      <trkpt lat="47.83738" lon="-2.90308">
        <ele>135.19</ele>
        <time>2018-01-25T11:04:26Z</time>
      </trkpt>
      <trkpt lat="47.83738" lon="-2.90311">
        <ele>135.08</ele>
        <time>2018-01-25T11:04:27Z</time>
      </trkpt>
      <trkpt lat="47.83739" lon="-2.90313">
        <ele>134.98</ele>
        <time>2018-01-25T11:04:28Z</time>
      </trkpt>
      <trkpt lat="47.83739" lon="-2.90316">
        <ele>134.88</ele>
        <time>2018-01-25T11:04:29Z</time>
      </trkpt>
      <trkpt lat="47.8374" lon="-2.90318">
        <ele>134.77</ele>
        <time>2018-01-25T11:04:30Z</time>
      </trkpt>
      <trkpt lat="47.8374" lon="-2.90321">
        <ele>134.66</ele>
        <time>2018-01-25T11:04:31Z</time>
      </trkpt>
      <trkpt lat="47.83741" lon="-2.90323">
        <ele>134.54</ele>
        <time>2018-01-25T11:04:32Z</time>
      </trkpt>
      <trkpt lat="47.83741" lon="-2.90327">
        <ele>134.29</ele>
        <time>2018-01-25T11:04:34Z</time>
      </trkpt>
      <trkpt lat="47.83741" lon="-2.9033">
        <ele>134.14</ele>
        <time>2018-01-25T11:04:35Z</time>
      </trkpt>
      <trkpt lat="47.83742" lon="-2.90332">
        <ele>133.97</ele>
        <time>2018-01-25T11:04:36Z</time>
      </trkpt>
      <trkpt lat="47.83743" lon="-2.90334">
        <ele>133.82</ele>
        <time>2018-01-25T11:04:37Z</time>
      </trkpt>
      <trkpt lat="47.83744" lon="-2.90336">
        <ele>133.68</ele>
        <time>2018-01-25T11:04:38Z</time>
      </trkpt>
      <trkpt lat="47.83744" lon="-2.90339">
        <ele>133.55</ele>
        <time>2018-01-25T11:04:39Z</time>
      </trkpt>
      <trkpt lat="47.83745" lon="-2.90341">
        <ele>133.43</ele>
        <time>2018-01-25T11:04:40Z</time>
      </trkpt>
      <trkpt lat="47.83746" lon="-2.90343">
        <ele>133.27</ele>
        <time>2018-01-25T11:04:41Z</time>
      </trkpt>
      <trkpt lat="47.83747" lon="-2.90345">
        <ele>133.06</ele>
        <time>2018-01-25T11:04:42Z</time>
      </trkpt>
      <trkpt lat="47.83747" lon="-2.90347">
        <ele>132.85</ele>
        <time>2018-01-25T11:04:43Z</time>
      </trkpt>
      <trkpt lat="47.83749" lon="-2.90351">
        <ele>132.51</ele>
        <time>2018-01-25T11:04:45Z</time>
      </trkpt>
      <trkpt lat="47.83749" lon="-2.90353">
        <ele>132.23</ele>
        <time>2018-01-25T11:04:46Z</time>
      </trkpt>
      <trkpt lat="47.83758" lon="-2.90372">
        <ele>130.91</ele>
        <time>2018-01-25T11:04:57Z</time>
      </trkpt>
      <trkpt lat="47.83762" lon="-2.90379">
        <ele>130.39</ele>
        <time>2018-01-25T11:05:01Z</time>
      </trkpt>
      <trkpt lat="47.83762" lon="-2.90382">
        <ele>130.27</ele>
        <time>2018-01-25T11:05:02Z</time>
      </trkpt>
      <trkpt lat="47.83763" lon="-2.90384">
        <ele>130.15</ele>
        <time>2018-01-25T11:05:03Z</time>
      </trkpt>
      <trkpt lat="47.83764" lon="-2.90385">
        <ele>130.03</ele>
        <time>2018-01-25T11:05:04Z</time>
      </trkpt>
      <trkpt lat="47.83765" lon="-2.90387">
        <ele>129.91</ele>
        <time>2018-01-25T11:05:05Z</time>
      </trkpt>
      <trkpt lat="47.83766" lon="-2.90389">
        <ele>129.78</ele>
        <time>2018-01-25T11:05:06Z</time>
      </trkpt>
      <trkpt lat="47.83767" lon="-2.90391">
        <ele>129.64</ele>
        <time>2018-01-25T11:05:07Z</time>
      </trkpt>
      <trkpt lat="47.83768" lon="-2.90393">
        <ele>129.51</ele>
        <time>2018-01-25T11:05:08Z</time>
      </trkpt>
      <trkpt lat="47.83769" lon="-2.90396">
        <ele>129.39</ele>
        <time>2018-01-25T11:05:09Z</time>
      </trkpt>
      <trkpt lat="47.8377" lon="-2.90398">
        <ele>129.29</ele>
        <time>2018-01-25T11:05:10Z</time>
      </trkpt>
      <trkpt lat="47.83773" lon="-2.90404">
        <ele>128.83</ele>
        <time>2018-01-25T11:05:14Z</time>
      </trkpt>
      <trkpt lat="47.8378" lon="-2.90416">
        <ele>128.2</ele>
        <time>2018-01-25T11:05:21Z</time>
      </trkpt>
      <trkpt lat="47.83782" lon="-2.90419">
        <ele>128.11</ele>
        <time>2018-01-25T11:05:22Z</time>
      </trkpt>
      <trkpt lat="47.83783" lon="-2.90421">
        <ele>127.99</ele>
        <time>2018-01-25T11:05:23Z</time>
      </trkpt>
      <trkpt lat="47.83803" lon="-2.90436">
        <ele>126.45</ele>
        <time>2018-01-25T11:05:36Z</time>
      </trkpt>
      <trkpt lat="47.83819" lon="-2.90441">
        <ele>125.12</ele>
        <time>2018-01-25T11:05:46Z</time>
      </trkpt>
      <trkpt lat="47.83839" lon="-2.90447">
        <ele>123.64</ele>
        <time>2018-01-25T11:05:58Z</time>
      </trkpt>
      <trkpt lat="47.83856" lon="-2.9045">
        <ele>122.5</ele>
        <time>2018-01-25T11:06:10Z</time>
      </trkpt>
      <trkpt lat="47.83878" lon="-2.90456">
        <ele>121.38</ele>
        <time>2018-01-25T11:06:22Z</time>
      </trkpt>
      <trkpt lat="47.83902" lon="-2.9046">
        <ele>119.57</ele>
        <time>2018-01-25T11:06:35Z</time>
      </trkpt>
      <trkpt lat="47.83913" lon="-2.90463">
        <ele>118.99</ele>
        <time>2018-01-25T11:06:42Z</time>
      </trkpt>
      <trkpt lat="47.83915" lon="-2.90464">
        <ele>118.87</ele>
        <time>2018-01-25T11:06:43Z</time>
      </trkpt>
      <trkpt lat="47.83917" lon="-2.90464">
        <ele>118.76</ele>
        <time>2018-01-25T11:06:44Z</time>
      </trkpt>
      <trkpt lat="47.83919" lon="-2.90465">
        <ele>118.63</ele>
        <time>2018-01-25T11:06:45Z</time>
      </trkpt>
      <trkpt lat="47.83921" lon="-2.90465">
        <ele>118.5</ele>
        <time>2018-01-25T11:06:46Z</time>
      </trkpt>
      <trkpt lat="47.83922" lon="-2.90465">
        <ele>118.38</ele>
        <time>2018-01-25T11:06:47Z</time>
      </trkpt>
      <trkpt lat="47.83923" lon="-2.90465">
        <ele>118.28</ele>
        <time>2018-01-25T11:06:48Z</time>
      </trkpt>
      <trkpt lat="47.83925" lon="-2.90465">
        <ele>118.08</ele>
        <time>2018-01-25T11:06:49Z</time>
      </trkpt>
      <trkpt lat="47.83926" lon="-2.90466">
        <ele>118</ele>
        <time>2018-01-25T11:06:50Z</time>
      </trkpt>
      <trkpt lat="47.83928" lon="-2.90467">
        <ele>117.86</ele>
        <time>2018-01-25T11:06:51Z</time>
      </trkpt>
      <trkpt lat="47.83929" lon="-2.90467">
        <ele>117.66</ele>
        <time>2018-01-25T11:06:52Z</time>
      </trkpt>
      <trkpt lat="47.83931" lon="-2.90467">
        <ele>117.46</ele>
        <time>2018-01-25T11:06:53Z</time>
      </trkpt>
      <trkpt lat="47.83954" lon="-2.90471">
        <ele>115.7</ele>
        <time>2018-01-25T11:07:07Z</time>
      </trkpt>
      <trkpt lat="47.83986" lon="-2.90477">
        <ele>113.97</ele>
        <time>2018-01-25T11:07:24Z</time>
      </trkpt>
      <trkpt lat="47.84018" lon="-2.90483">
        <ele>112.81</ele>
        <time>2018-01-25T11:07:44Z</time>
      </trkpt>
      <trkpt lat="47.84049" lon="-2.90483">
        <ele>112.05</ele>
        <time>2018-01-25T11:08:02Z</time>
      </trkpt>
      <trkpt lat="47.84077" lon="-2.90481">
        <ele>110.58</ele>
        <time>2018-01-25T11:08:16Z</time>
      </trkpt>
      <trkpt lat="47.84108" lon="-2.90472">
        <ele>109.13</ele>
        <time>2018-01-25T11:08:27Z</time>
      </trkpt>
      <trkpt lat="47.8414" lon="-2.90457">
        <ele>106.88</ele>
        <time>2018-01-25T11:08:38Z</time>
      </trkpt>
      <trkpt lat="47.84173" lon="-2.90443">
        <ele>104.77</ele>
        <time>2018-01-25T11:08:49Z</time>
      </trkpt>
      <trkpt lat="47.84206" lon="-2.90426">
        <ele>103.3</ele>
        <time>2018-01-25T11:08:59Z</time>
      </trkpt>
      <trkpt lat="47.84247" lon="-2.90407">
        <ele>100.65</ele>
        <time>2018-01-25T11:09:12Z</time>
      </trkpt>
      <trkpt lat="47.84283" lon="-2.90391">
        <ele>98.84</ele>
        <time>2018-01-25T11:09:23Z</time>
      </trkpt>
      <trkpt lat="47.84313" lon="-2.90378">
        <ele>97.55</ele>
        <time>2018-01-25T11:09:36Z</time>
      </trkpt>
      <trkpt lat="47.84336" lon="-2.90367">
        <ele>96.8</ele>
        <time>2018-01-25T11:09:53Z</time>
      </trkpt>
      <trkpt lat="47.84358" lon="-2.90361">
        <ele>95.75</ele>
        <time>2018-01-25T11:10:08Z</time>
      </trkpt>
      <trkpt lat="47.84384" lon="-2.90349">
        <ele>94.51</ele>
        <time>2018-01-25T11:10:24Z</time>
      </trkpt>
      <trkpt lat="47.84412" lon="-2.90338">
        <ele>91.82</ele>
        <time>2018-01-25T11:10:43Z</time>
      </trkpt>
      <trkpt lat="47.84432" lon="-2.90328">
        <ele>89.85</ele>
        <time>2018-01-25T11:10:58Z</time>
      </trkpt>
      <trkpt lat="47.84457" lon="-2.90316">
        <ele>86.96</ele>
        <time>2018-01-25T11:11:16Z</time>
      </trkpt>
      <trkpt lat="47.84481" lon="-2.90306">
        <ele>83.92</ele>
        <time>2018-01-25T11:11:32Z</time>
      </trkpt>
      <trkpt lat="47.845" lon="-2.90285">
        <ele>81.83</ele>
        <time>2018-01-25T11:11:48Z</time>
      </trkpt>
      <trkpt lat="47.84534" lon="-2.90283">
        <ele>79.14</ele>
        <time>2018-01-25T11:12:08Z</time>
      </trkpt>
      <trkpt lat="47.8457" lon="-2.90287">
        <ele>77.52</ele>
        <time>2018-01-25T11:12:25Z</time>
      </trkpt>
      <trkpt lat="47.84621" lon="-2.90292">
        <ele>76.09</ele>
        <time>2018-01-25T11:12:40Z</time>
      </trkpt>
      <trkpt lat="47.8466" lon="-2.90294">
        <ele>75.1</ele>
        <time>2018-01-25T11:12:51Z</time>
      </trkpt>
      <trkpt lat="47.84701" lon="-2.90299">
        <ele>74.28</ele>
        <time>2018-01-25T11:13:03Z</time>
      </trkpt>
      <trkpt lat="47.84747" lon="-2.90302">
        <ele>72.89</ele>
        <time>2018-01-25T11:13:18Z</time>
      </trkpt>
      <trkpt lat="47.8477" lon="-2.90304">
        <ele>71.61</ele>
        <time>2018-01-25T11:13:34Z</time>
      </trkpt>
      <trkpt lat="47.84798" lon="-2.90303">
        <ele>69.39</ele>
        <time>2018-01-25T11:13:52Z</time>
      </trkpt>
      <trkpt lat="47.84828" lon="-2.90293">
        <ele>67.04</ele>
        <time>2018-01-25T11:14:10Z</time>
      </trkpt>
      <trkpt lat="47.84855" lon="-2.90278">
        <ele>64.48</ele>
        <time>2018-01-25T11:14:27Z</time>
      </trkpt>
      <trkpt lat="47.84881" lon="-2.90267">
        <ele>62.99</ele>
        <time>2018-01-25T11:14:44Z</time>
      </trkpt>
      <trkpt lat="47.84914" lon="-2.90262">
        <ele>62.11</ele>
        <time>2018-01-25T11:15:04Z</time>
      </trkpt>
      <trkpt lat="47.84947" lon="-2.90262">
        <ele>60.77</ele>
        <time>2018-01-25T11:15:25Z</time>
      </trkpt>
      <trkpt lat="47.84979" lon="-2.90259">
        <ele>59.46</ele>
        <time>2018-01-25T11:15:45Z</time>
      </trkpt>
      <trkpt lat="47.85017" lon="-2.90258">
        <ele>57.26</ele>
        <time>2018-01-25T11:16:08Z</time>
      </trkpt>
      <trkpt lat="47.85043" lon="-2.90252">
        <ele>54.35</ele>
        <time>2018-01-25T11:16:25Z</time>
      </trkpt>
      <trkpt lat="47.85065" lon="-2.90247">
        <ele>52.44</ele>
        <time>2018-01-25T11:16:41Z</time>
      </trkpt>
      <trkpt lat="47.8508" lon="-2.90236">
        <ele>53.11</ele>
        <time>2018-01-25T11:16:51Z</time>
      </trkpt>
      <trkpt lat="47.85085" lon="-2.90228">
        <ele>56.12</ele>
        <time>2018-01-25T11:16:58Z</time>
      </trkpt>
      <trkpt lat="47.85089" lon="-2.90219">
        <ele>59.42</ele>
        <time>2018-01-25T11:17:06Z</time>
      </trkpt>
      <trkpt lat="47.8509" lon="-2.90212">
        <ele>60.93</ele>
        <time>2018-01-25T11:17:10Z</time>
      </trkpt>
      <trkpt lat="47.8509" lon="-2.9021">
        <ele>61.21</ele>
        <time>2018-01-25T11:17:11Z</time>
      </trkpt>
      <trkpt lat="47.85091" lon="-2.90208">
        <ele>61.47</ele>
        <time>2018-01-25T11:17:12Z</time>
      </trkpt>
      <trkpt lat="47.8509" lon="-2.90205">
        <ele>61.7</ele>
        <time>2018-01-25T11:17:13Z</time>
      </trkpt>
      <trkpt lat="47.85091" lon="-2.902">
        <ele>62.64</ele>
        <time>2018-01-25T11:17:16Z</time>
      </trkpt>
      <trkpt lat="47.85092" lon="-2.90184">
        <ele>65.87</ele>
        <time>2018-01-25T11:17:26Z</time>
      </trkpt>
      <trkpt lat="47.85092" lon="-2.90172">
        <ele>68.78</ele>
        <time>2018-01-25T11:17:37Z</time>
      </trkpt>
      <trkpt lat="47.85093" lon="-2.90157">
        <ele>68.95</ele>
        <time>2018-01-25T11:17:50Z</time>
      </trkpt>
      <trkpt lat="47.85092" lon="-2.9014">
        <ele>68.55</ele>
        <time>2018-01-25T11:17:59Z</time>
      </trkpt>
      <trkpt lat="47.85092" lon="-2.9013">
        <ele>68.1</ele>
        <time>2018-01-25T11:18:03Z</time>
      </trkpt>
      <trkpt lat="47.85093" lon="-2.90118">
        <ele>68.22</ele>
        <time>2018-01-25T11:18:09Z</time>
      </trkpt>
      <trkpt lat="47.85099" lon="-2.9009">
        <ele>70.3</ele>
        <time>2018-01-25T11:18:24Z</time>
      </trkpt>
      <trkpt lat="47.85103" lon="-2.90071">
        <ele>72.23</ele>
        <time>2018-01-25T11:18:35Z</time>
      </trkpt>
      <trkpt lat="47.85102" lon="-2.90067">
        <ele>72.43</ele>
        <time>2018-01-25T11:18:37Z</time>
      </trkpt>
      <trkpt lat="47.85109" lon="-2.90042">
        <ele>73.77</ele>
        <time>2018-01-25T11:18:51Z</time>
      </trkpt>
      <trkpt lat="47.85108" lon="-2.90012">
        <ele>74.43</ele>
        <time>2018-01-25T11:19:06Z</time>
      </trkpt>
      <trkpt lat="47.85108" lon="-2.90001">
        <ele>74.57</ele>
        <time>2018-01-25T11:19:11Z</time>
      </trkpt>
      <trkpt lat="47.85109" lon="-2.8999">
        <ele>74.73</ele>
        <time>2018-01-25T11:19:17Z</time>
      </trkpt>
      <trkpt lat="47.85113" lon="-2.89952">
        <ele>76.16</ele>
        <time>2018-01-25T11:19:35Z</time>
      </trkpt>
      <trkpt lat="47.85113" lon="-2.89949">
        <ele>76.22</ele>
        <time>2018-01-25T11:19:37Z</time>
      </trkpt>
      <trkpt lat="47.85113" lon="-2.8993">
        <ele>75.92</ele>
        <time>2018-01-25T11:19:50Z</time>
      </trkpt>
      <trkpt lat="47.85114" lon="-2.89921">
        <ele>75.86</ele>
        <time>2018-01-25T11:20:07Z</time>
      </trkpt>
      <trkpt lat="47.85114" lon="-2.89918">
        <ele>75.87</ele>
        <time>2018-01-25T11:20:09Z</time>
      </trkpt>
      <trkpt lat="47.85115" lon="-2.89887">
        <ele>75.96</ele>
        <time>2018-01-25T11:20:25Z</time>
      </trkpt>
      <trkpt lat="47.85114" lon="-2.89853">
        <ele>75.64</ele>
        <time>2018-01-25T11:20:36Z</time>
      </trkpt>
      <trkpt lat="47.85121" lon="-2.89831">
        <ele>75.6</ele>
        <time>2018-01-25T11:20:44Z</time>
      </trkpt>
      <trkpt lat="47.85125" lon="-2.89826">
        <ele>75.61</ele>
        <time>2018-01-25T11:20:46Z</time>
      </trkpt>
      <trkpt lat="47.85132" lon="-2.89794">
        <ele>75.06</ele>
        <time>2018-01-25T11:20:53Z</time>
      </trkpt>
      <trkpt lat="47.85138" lon="-2.89739">
        <ele>74.68</ele>
        <time>2018-01-25T11:21:03Z</time>
      </trkpt>
      <trkpt lat="47.8515" lon="-2.89716">
        <ele>74.87</ele>
        <time>2018-01-25T11:21:09Z</time>
      </trkpt>
      <trkpt lat="47.85154" lon="-2.89714">
        <ele>74.82</ele>
        <time>2018-01-25T11:21:10Z</time>
      </trkpt>
      <trkpt lat="47.85159" lon="-2.89712">
        <ele>74.72</ele>
        <time>2018-01-25T11:21:11Z</time>
      </trkpt>
      <trkpt lat="47.85163" lon="-2.8971">
        <ele>74.58</ele>
        <time>2018-01-25T11:21:12Z</time>
      </trkpt>
      <trkpt lat="47.85168" lon="-2.89708">
        <ele>74.37</ele>
        <time>2018-01-25T11:21:13Z</time>
      </trkpt>
      <trkpt lat="47.85216" lon="-2.8969">
        <ele>71.48</ele>
        <time>2018-01-25T11:21:24Z</time>
      </trkpt>
      <trkpt lat="47.85255" lon="-2.8968">
        <ele>68.45</ele>
        <time>2018-01-25T11:21:34Z</time>
      </trkpt>
      <trkpt lat="47.85301" lon="-2.89674">
        <ele>65.24</ele>
        <time>2018-01-25T11:21:45Z</time>
      </trkpt>
      <trkpt lat="47.85315" lon="-2.89671">
        <ele>64.34</ele>
        <time>2018-01-25T11:21:48Z</time>
      </trkpt>
      <trkpt lat="47.85319" lon="-2.89671">
        <ele>63.77</ele>
        <time>2018-01-25T11:21:49Z</time>
      </trkpt>
      <trkpt lat="47.85353" lon="-2.89663">
        <ele>61.99</ele>
        <time>2018-01-25T11:21:58Z</time>
      </trkpt>
      <trkpt lat="47.85356" lon="-2.89659">
        <ele>61.86</ele>
        <time>2018-01-25T11:21:59Z</time>
      </trkpt>
      <trkpt lat="47.8536" lon="-2.89655">
        <ele>61.74</ele>
        <time>2018-01-25T11:22:00Z</time>
      </trkpt>
      <trkpt lat="47.85363" lon="-2.8965">
        <ele>61.62</ele>
        <time>2018-01-25T11:22:01Z</time>
      </trkpt>
      <trkpt lat="47.85365" lon="-2.89644">
        <ele>61.52</ele>
        <time>2018-01-25T11:22:02Z</time>
      </trkpt>
      <trkpt lat="47.85368" lon="-2.89638">
        <ele>61.44</ele>
        <time>2018-01-25T11:22:03Z</time>
      </trkpt>
      <trkpt lat="47.85369" lon="-2.8963">
        <ele>61.37</ele>
        <time>2018-01-25T11:22:04Z</time>
      </trkpt>
      <trkpt lat="47.85374" lon="-2.896">
        <ele>61.6</ele>
        <time>2018-01-25T11:22:08Z</time>
      </trkpt>
      <trkpt lat="47.85376" lon="-2.89572">
        <ele>62.03</ele>
        <time>2018-01-25T11:22:12Z</time>
      </trkpt>
      <trkpt lat="47.85376" lon="-2.89557">
        <ele>62.45</ele>
        <time>2018-01-25T11:22:14Z</time>
      </trkpt>
      <trkpt lat="47.85376" lon="-2.8955">
        <ele>62.59</ele>
        <time>2018-01-25T11:22:15Z</time>
      </trkpt>
      <trkpt lat="47.85376" lon="-2.89544">
        <ele>62.72</ele>
        <time>2018-01-25T11:22:16Z</time>
      </trkpt>
      <trkpt lat="47.85376" lon="-2.89537">
        <ele>62.85</ele>
        <time>2018-01-25T11:22:17Z</time>
      </trkpt>
      <trkpt lat="47.85375" lon="-2.89531">
        <ele>62.95</ele>
        <time>2018-01-25T11:22:18Z</time>
      </trkpt>
      <trkpt lat="47.85375" lon="-2.89525">
        <ele>63.05</ele>
        <time>2018-01-25T11:22:19Z</time>
      </trkpt>
      <trkpt lat="47.85375" lon="-2.89517">
        <ele>63.15</ele>
        <time>2018-01-25T11:22:20Z</time>
      </trkpt>
      <trkpt lat="47.85374" lon="-2.8951">
        <ele>63.27</ele>
        <time>2018-01-25T11:22:21Z</time>
      </trkpt>
      <trkpt lat="47.85373" lon="-2.89503">
        <ele>63.4</ele>
        <time>2018-01-25T11:22:22Z</time>
      </trkpt>
      <trkpt lat="47.85372" lon="-2.89496">
        <ele>63.55</ele>
        <time>2018-01-25T11:22:23Z</time>
      </trkpt>
      <trkpt lat="47.85372" lon="-2.89488">
        <ele>63.68</ele>
        <time>2018-01-25T11:22:24Z</time>
      </trkpt>
      <trkpt lat="47.85372" lon="-2.89482">
        <ele>63.78</ele>
        <time>2018-01-25T11:22:25Z</time>
      </trkpt>
      <trkpt lat="47.85372" lon="-2.89475">
        <ele>63.86</ele>
        <time>2018-01-25T11:22:26Z</time>
      </trkpt>
      <trkpt lat="47.85372" lon="-2.89467">
        <ele>63.93</ele>
        <time>2018-01-25T11:22:27Z</time>
      </trkpt>
      <trkpt lat="47.85372" lon="-2.89444">
        <ele>64.06</ele>
        <time>2018-01-25T11:22:30Z</time>
      </trkpt>
      <trkpt lat="47.85372" lon="-2.89429">
        <ele>64.03</ele>
        <time>2018-01-25T11:22:32Z</time>
      </trkpt>
      <trkpt lat="47.85373" lon="-2.89421">
        <ele>64.01</ele>
        <time>2018-01-25T11:22:33Z</time>
      </trkpt>
      <trkpt lat="47.85373" lon="-2.89404">
        <ele>63.9</ele>
        <time>2018-01-25T11:22:35Z</time>
      </trkpt>
      <trkpt lat="47.85373" lon="-2.89397">
        <ele>63.84</ele>
        <time>2018-01-25T11:22:36Z</time>
      </trkpt>
      <trkpt lat="47.85372" lon="-2.89389">
        <ele>63.75</ele>
        <time>2018-01-25T11:22:37Z</time>
      </trkpt>
      <trkpt lat="47.85368" lon="-2.89309">
        <ele>63.86</ele>
        <time>2018-01-25T11:22:50Z</time>
      </trkpt>
      <trkpt lat="47.85357" lon="-2.89269">
        <ele>64.02</ele>
        <time>2018-01-25T11:22:59Z</time>
      </trkpt>
      <trkpt lat="47.85342" lon="-2.89232">
        <ele>64.28</ele>
        <time>2018-01-25T11:23:15Z</time>
      </trkpt>
      <trkpt lat="47.85332" lon="-2.89216">
        <ele>63.93</ele>
        <time>2018-01-25T11:23:23Z</time>
      </trkpt>
      <trkpt lat="47.85331" lon="-2.89213">
        <ele>63.89</ele>
        <time>2018-01-25T11:23:24Z</time>
      </trkpt>
      <trkpt lat="47.8533" lon="-2.89211">
        <ele>63.84</ele>
        <time>2018-01-25T11:23:25Z</time>
      </trkpt>
      <trkpt lat="47.85329" lon="-2.89208">
        <ele>63.81</ele>
        <time>2018-01-25T11:23:26Z</time>
      </trkpt>
      <trkpt lat="47.85328" lon="-2.89206">
        <ele>63.75</ele>
        <time>2018-01-25T11:23:27Z</time>
      </trkpt>
      <trkpt lat="47.85311" lon="-2.89168">
        <ele>62.36</ele>
        <time>2018-01-25T11:23:45Z</time>
      </trkpt>
      <trkpt lat="47.85296" lon="-2.89135">
        <ele>60.71</ele>
        <time>2018-01-25T11:24:01Z</time>
      </trkpt>
      <trkpt lat="47.85283" lon="-2.89105">
        <ele>59.71</ele>
        <time>2018-01-25T11:24:12Z</time>
      </trkpt>
      <trkpt lat="47.85275" lon="-2.89075">
        <ele>58.93</ele>
        <time>2018-01-25T11:24:18Z</time>
      </trkpt>
      <trkpt lat="47.85274" lon="-2.89068">
        <ele>58.85</ele>
        <time>2018-01-25T11:24:19Z</time>
      </trkpt>
      <trkpt lat="47.85272" lon="-2.8906">
        <ele>58.8</ele>
        <time>2018-01-25T11:24:20Z</time>
      </trkpt>
      <trkpt lat="47.85252" lon="-2.88953">
        <ele>59.55</ele>
        <time>2018-01-25T11:24:32Z</time>
      </trkpt>
      <trkpt lat="47.85251" lon="-2.88944">
        <ele>59.8</ele>
        <time>2018-01-25T11:24:33Z</time>
      </trkpt>
      <trkpt lat="47.8524" lon="-2.88871">
        <ele>62.92</ele>
        <time>2018-01-25T11:24:42Z</time>
      </trkpt>
      <trkpt lat="47.85231" lon="-2.88808">
        <ele>65.98</ele>
        <time>2018-01-25T11:24:50Z</time>
      </trkpt>
      <trkpt lat="47.85226" lon="-2.88774">
        <ele>66.9</ele>
        <time>2018-01-25T11:24:54Z</time>
      </trkpt>
      <trkpt lat="47.85217" lon="-2.88702">
        <ele>68.12</ele>
        <time>2018-01-25T11:25:03Z</time>
      </trkpt>
      <trkpt lat="47.85217" lon="-2.88694">
        <ele>68.23</ele>
        <time>2018-01-25T11:25:04Z</time>
      </trkpt>
      <trkpt lat="47.85216" lon="-2.88664">
        <ele>68.76</ele>
        <time>2018-01-25T11:25:08Z</time>
      </trkpt>
      <trkpt lat="47.85218" lon="-2.88627">
        <ele>69.48</ele>
        <time>2018-01-25T11:25:14Z</time>
      </trkpt>
      <trkpt lat="47.85219" lon="-2.88621">
        <ele>69.59</ele>
        <time>2018-01-25T11:25:15Z</time>
      </trkpt>
      <trkpt lat="47.8522" lon="-2.88615">
        <ele>69.69</ele>
        <time>2018-01-25T11:25:16Z</time>
      </trkpt>
      <trkpt lat="47.85221" lon="-2.88609">
        <ele>69.76</ele>
        <time>2018-01-25T11:25:17Z</time>
      </trkpt>
      <trkpt lat="47.85221" lon="-2.88603">
        <ele>69.84</ele>
        <time>2018-01-25T11:25:18Z</time>
      </trkpt>
      <trkpt lat="47.85233" lon="-2.8854">
        <ele>69.7</ele>
        <time>2018-01-25T11:25:28Z</time>
      </trkpt>
      <trkpt lat="47.85234" lon="-2.88533">
        <ele>69.62</ele>
        <time>2018-01-25T11:25:29Z</time>
      </trkpt>
      <trkpt lat="47.85235" lon="-2.88525">
        <ele>69.52</ele>
        <time>2018-01-25T11:25:30Z</time>
      </trkpt>
      <trkpt lat="47.85246" lon="-2.88459">
        <ele>67.64</ele>
        <time>2018-01-25T11:25:41Z</time>
      </trkpt>
      <trkpt lat="47.85255" lon="-2.88414">
        <ele>66.34</ele>
        <time>2018-01-25T11:25:49Z</time>
      </trkpt>
      <trkpt lat="47.85256" lon="-2.88408">
        <ele>66.11</ele>
        <time>2018-01-25T11:25:50Z</time>
      </trkpt>
      <trkpt lat="47.85265" lon="-2.8836">
        <ele>63.94</ele>
        <time>2018-01-25T11:25:58Z</time>
      </trkpt>
      <trkpt lat="47.85276" lon="-2.88312">
        <ele>61.61</ele>
        <time>2018-01-25T11:26:08Z</time>
      </trkpt>
      <trkpt lat="47.85284" lon="-2.8828">
        <ele>60.27</ele>
        <time>2018-01-25T11:26:23Z</time>
      </trkpt>
      <trkpt lat="47.85291" lon="-2.88234">
        <ele>58.4</ele>
        <time>2018-01-25T11:26:41Z</time>
      </trkpt>
      <trkpt lat="47.85294" lon="-2.88224">
        <ele>57.78</ele>
        <time>2018-01-25T11:26:46Z</time>
      </trkpt>
      <trkpt lat="47.85295" lon="-2.88222">
        <ele>57.69</ele>
        <time>2018-01-25T11:26:47Z</time>
      </trkpt>
      <trkpt lat="47.85297" lon="-2.88222">
        <ele>57.59</ele>
        <time>2018-01-25T11:26:48Z</time>
      </trkpt>
      <trkpt lat="47.85298" lon="-2.88222">
        <ele>57.52</ele>
        <time>2018-01-25T11:26:49Z</time>
      </trkpt>
      <trkpt lat="47.853" lon="-2.88222">
        <ele>57.43</ele>
        <time>2018-01-25T11:26:50Z</time>
      </trkpt>
      <trkpt lat="47.85301" lon="-2.88222">
        <ele>57.35</ele>
        <time>2018-01-25T11:26:51Z</time>
      </trkpt>
      <trkpt lat="47.85302" lon="-2.88223">
        <ele>57.27</ele>
        <time>2018-01-25T11:26:52Z</time>
      </trkpt>
      <trkpt lat="47.85307" lon="-2.88226">
        <ele>57.01</ele>
        <time>2018-01-25T11:26:55Z</time>
      </trkpt>
      <trkpt lat="47.85307" lon="-2.88228">
        <ele>56.9</ele>
        <time>2018-01-25T11:26:56Z</time>
      </trkpt>
      <trkpt lat="47.85308" lon="-2.8823">
        <ele>56.79</ele>
        <time>2018-01-25T11:26:57Z</time>
      </trkpt>
      <trkpt lat="47.8532" lon="-2.8828">
        <ele>55.92</ele>
        <time>2018-01-25T11:27:20Z</time>
      </trkpt>
      <trkpt lat="47.85325" lon="-2.88318">
        <ele>55.36</ele>
        <time>2018-01-25T11:27:36Z</time>
      </trkpt>
      <trkpt lat="47.85329" lon="-2.88352">
        <ele>54.99</ele>
        <time>2018-01-25T11:27:50Z</time>
      </trkpt>
      <trkpt lat="47.85334" lon="-2.88387">
        <ele>54</ele>
        <time>2018-01-25T11:28:05Z</time>
      </trkpt>
      <trkpt lat="47.85336" lon="-2.88389">
        <ele>53.91</ele>
        <time>2018-01-25T11:28:06Z</time>
      </trkpt>
      <trkpt lat="47.85336" lon="-2.88391">
        <ele>53.82</ele>
        <time>2018-01-25T11:28:07Z</time>
      </trkpt>
      <trkpt lat="47.85337" lon="-2.88393">
        <ele>53.76</ele>
        <time>2018-01-25T11:28:08Z</time>
      </trkpt>
      <trkpt lat="47.85339" lon="-2.88394">
        <ele>53.7</ele>
        <time>2018-01-25T11:28:09Z</time>
      </trkpt>
      <trkpt lat="47.8534" lon="-2.88393">
        <ele>53.58</ele>
        <time>2018-01-25T11:28:10Z</time>
      </trkpt>
      <trkpt lat="47.85347" lon="-2.88385">
        <ele>51.93</ele>
        <time>2018-01-25T11:28:18Z</time>
      </trkpt>
      <trkpt lat="47.8536" lon="-2.88373">
        <ele>48.88</ele>
        <time>2018-01-25T11:28:27Z</time>
      </trkpt>
      <trkpt lat="47.85364" lon="-2.88356">
        <ele>45.72</ele>
        <time>2018-01-25T11:28:39Z</time>
      </trkpt>
      <trkpt lat="47.85372" lon="-2.88336">
        <ele>44.62</ele>
        <time>2018-01-25T11:28:51Z</time>
      </trkpt>
      <trkpt lat="47.85375" lon="-2.8833">
        <ele>44.23</ele>
        <time>2018-01-25T11:28:54Z</time>
      </trkpt>
      <trkpt lat="47.85378" lon="-2.883">
        <ele>42.93</ele>
        <time>2018-01-25T11:29:05Z</time>
      </trkpt>
      <trkpt lat="47.85384" lon="-2.88272">
        <ele>42.81</ele>
        <time>2018-01-25T11:29:17Z</time>
      </trkpt>
      <trkpt lat="47.85388" lon="-2.88271">
        <ele>42.87</ele>
        <time>2018-01-25T11:29:20Z</time>
      </trkpt>
      <trkpt lat="47.85393" lon="-2.88267">
        <ele>42.99</ele>
        <time>2018-01-25T11:29:24Z</time>
      </trkpt>
      <trkpt lat="47.85403" lon="-2.8826">
        <ele>42.77</ele>
        <time>2018-01-25T11:29:30Z</time>
      </trkpt>
      <trkpt lat="47.85409" lon="-2.88274">
        <ele>43.09</ele>
        <time>2018-01-25T11:29:39Z</time>
      </trkpt>
      <trkpt lat="47.85425" lon="-2.88293">
        <ele>43.36</ele>
        <time>2018-01-25T11:29:55Z</time>
      </trkpt>
      <trkpt lat="47.85442" lon="-2.88272">
        <ele>43.35</ele>
        <time>2018-01-25T11:30:11Z</time>
      </trkpt>
      <trkpt lat="47.85457" lon="-2.8827">
        <ele>43.56</ele>
        <time>2018-01-25T11:30:23Z</time>
      </trkpt>
      <trkpt lat="47.85466" lon="-2.88269">
        <ele>43.58</ele>
        <time>2018-01-25T11:30:29Z</time>
      </trkpt>
      <trkpt lat="47.85487" lon="-2.88259">
        <ele>43.95</ele>
        <time>2018-01-25T11:30:43Z</time>
      </trkpt>
      <trkpt lat="47.8551" lon="-2.88267">
        <ele>44.07</ele>
        <time>2018-01-25T11:30:57Z</time>
      </trkpt>
      <trkpt lat="47.85544" lon="-2.88242">
        <ele>44.54</ele>
        <time>2018-01-25T11:31:20Z</time>
      </trkpt>
      <trkpt lat="47.85578" lon="-2.88223">
        <ele>45.02</ele>
        <time>2018-01-25T11:31:42Z</time>
      </trkpt>
      <trkpt lat="47.85612" lon="-2.8822">
        <ele>46.38</ele>
        <time>2018-01-25T11:32:02Z</time>
      </trkpt>
      <trkpt lat="47.85644" lon="-2.88227">
        <ele>49.17</ele>
        <time>2018-01-25T11:32:22Z</time>
      </trkpt>
      <trkpt lat="47.85665" lon="-2.88231">
        <ele>52.21</ele>
        <time>2018-01-25T11:32:35Z</time>
      </trkpt>
      <trkpt lat="47.85682" lon="-2.88221">
        <ele>55.27</ele>
        <time>2018-01-25T11:32:47Z</time>
      </trkpt>
      <trkpt lat="47.85696" lon="-2.88207">
        <ele>56.2</ele>
        <time>2018-01-25T11:32:58Z</time>
      </trkpt>
      <trkpt lat="47.85715" lon="-2.88193">
        <ele>56.07</ele>
        <time>2018-01-25T11:33:11Z</time>
      </trkpt>
      <trkpt lat="47.8573" lon="-2.88185">
        <ele>55.74</ele>
        <time>2018-01-25T11:33:22Z</time>
      </trkpt>
      <trkpt lat="47.8575" lon="-2.88179">
        <ele>55.28</ele>
        <time>2018-01-25T11:33:35Z</time>
      </trkpt>
      <trkpt lat="47.85777" lon="-2.8818">
        <ele>55.06</ele>
        <time>2018-01-25T11:33:48Z</time>
      </trkpt>
      <trkpt lat="47.85801" lon="-2.88183">
        <ele>54.81</ele>
        <time>2018-01-25T11:34:01Z</time>
      </trkpt>
      <trkpt lat="47.85828" lon="-2.88185">
        <ele>54.8</ele>
        <time>2018-01-25T11:34:17Z</time>
      </trkpt>
      <trkpt lat="47.85852" lon="-2.8819">
        <ele>54.58</ele>
        <time>2018-01-25T11:34:28Z</time>
      </trkpt>
      <trkpt lat="47.8588" lon="-2.8819">
        <ele>54.59</ele>
        <time>2018-01-25T11:34:43Z</time>
      </trkpt>
      <trkpt lat="47.85904" lon="-2.88185">
        <ele>55</ele>
        <time>2018-01-25T11:34:57Z</time>
      </trkpt>
      <trkpt lat="47.85924" lon="-2.88175">
        <ele>55.38</ele>
        <time>2018-01-25T11:35:09Z</time>
      </trkpt>
      <trkpt lat="47.85948" lon="-2.88156">
        <ele>55.35</ele>
        <time>2018-01-25T11:35:24Z</time>
      </trkpt>
      <trkpt lat="47.85962" lon="-2.88148">
        <ele>55.23</ele>
        <time>2018-01-25T11:35:32Z</time>
      </trkpt>
      <trkpt lat="47.85963" lon="-2.88147">
        <ele>55.23</ele>
        <time>2018-01-25T11:35:33Z</time>
      </trkpt>
      <trkpt lat="47.85983" lon="-2.88135">
        <ele>55.2</ele>
        <time>2018-01-25T11:35:47Z</time>
      </trkpt>
      <trkpt lat="47.85993" lon="-2.88136">
        <ele>55.71</ele>
        <time>2018-01-25T11:35:58Z</time>
      </trkpt>
      <trkpt lat="47.86012" lon="-2.88143">
        <ele>56.73</ele>
        <time>2018-01-25T11:36:06Z</time>
      </trkpt>
      <trkpt lat="47.86022" lon="-2.88155">
        <ele>60.26</ele>
        <time>2018-01-25T11:36:14Z</time>
      </trkpt>
      <trkpt lat="47.86027" lon="-2.88162">
        <ele>62.87</ele>
        <time>2018-01-25T11:36:19Z</time>
      </trkpt>
      <trkpt lat="47.86049" lon="-2.88179">
        <ele>65.89</ele>
        <time>2018-01-25T11:36:34Z</time>
      </trkpt>
      <trkpt lat="47.86066" lon="-2.88197">
        <ele>67.09</ele>
        <time>2018-01-25T11:36:48Z</time>
      </trkpt>
      <trkpt lat="47.86072" lon="-2.882">
        <ele>67.52</ele>
        <time>2018-01-25T11:36:52Z</time>
      </trkpt>
      <trkpt lat="47.86074" lon="-2.88204">
        <ele>67.81</ele>
        <time>2018-01-25T11:36:54Z</time>
      </trkpt>
      <trkpt lat="47.86074" lon="-2.88208">
        <ele>67.92</ele>
        <time>2018-01-25T11:36:55Z</time>
      </trkpt>
      <trkpt lat="47.86075" lon="-2.88213">
        <ele>68.03</ele>
        <time>2018-01-25T11:36:56Z</time>
      </trkpt>
      <trkpt lat="47.86075" lon="-2.88218">
        <ele>68.18</ele>
        <time>2018-01-25T11:36:57Z</time>
      </trkpt>
      <trkpt lat="47.86082" lon="-2.88241">
        <ele>70.55</ele>
        <time>2018-01-25T11:37:06Z</time>
      </trkpt>
      <trkpt lat="47.86099" lon="-2.88262">
        <ele>71.24</ele>
        <time>2018-01-25T11:37:19Z</time>
      </trkpt>
      <trkpt lat="47.86109" lon="-2.88301">
        <ele>70.64</ele>
        <time>2018-01-25T11:37:28Z</time>
      </trkpt>
      <trkpt lat="47.86108" lon="-2.88355">
        <ele>71.71</ele>
        <time>2018-01-25T11:37:39Z</time>
      </trkpt>
      <trkpt lat="47.86106" lon="-2.88393">
        <ele>73.63</ele>
        <time>2018-01-25T11:37:48Z</time>
      </trkpt>
      <trkpt lat="47.86109" lon="-2.88438">
        <ele>76.22</ele>
        <time>2018-01-25T11:37:59Z</time>
      </trkpt>
      <trkpt lat="47.86111" lon="-2.88442">
        <ele>76.33</ele>
        <time>2018-01-25T11:38:00Z</time>
      </trkpt>
      <trkpt lat="47.86111" lon="-2.88462">
        <ele>77.08</ele>
        <time>2018-01-25T11:38:04Z</time>
      </trkpt>
      <trkpt lat="47.86097" lon="-2.88521">
        <ele>79.59</ele>
        <time>2018-01-25T11:38:17Z</time>
      </trkpt>
      <trkpt lat="47.86083" lon="-2.88571">
        <ele>81.27</ele>
        <time>2018-01-25T11:38:29Z</time>
      </trkpt>
      <trkpt lat="47.86085" lon="-2.88574">
        <ele>81.41</ele>
        <time>2018-01-25T11:38:30Z</time>
      </trkpt>
      <trkpt lat="47.86086" lon="-2.88577">
        <ele>81.56</ele>
        <time>2018-01-25T11:38:31Z</time>
      </trkpt>
      <trkpt lat="47.86089" lon="-2.88579">
        <ele>81.73</ele>
        <time>2018-01-25T11:38:32Z</time>
      </trkpt>
      <trkpt lat="47.86092" lon="-2.88581">
        <ele>81.91</ele>
        <time>2018-01-25T11:38:33Z</time>
      </trkpt>
      <trkpt lat="47.86117" lon="-2.88603">
        <ele>83.34</ele>
        <time>2018-01-25T11:38:45Z</time>
      </trkpt>
      <trkpt lat="47.86122" lon="-2.88605">
        <ele>84.47</ele>
        <time>2018-01-25T11:38:55Z</time>
      </trkpt>
      <trkpt lat="47.86125" lon="-2.88607">
        <ele>84.62</ele>
        <time>2018-01-25T11:38:58Z</time>
      </trkpt>
      <trkpt lat="47.86126" lon="-2.88609">
        <ele>84.66</ele>
        <time>2018-01-25T11:38:59Z</time>
      </trkpt>
      <trkpt lat="47.86137" lon="-2.88629">
        <ele>84.68</ele>
        <time>2018-01-25T11:39:13Z</time>
      </trkpt>
      <trkpt lat="47.86139" lon="-2.88629">
        <ele>84.68</ele>
        <time>2018-01-25T11:39:14Z</time>
      </trkpt>
      <trkpt lat="47.86159" lon="-2.88643">
        <ele>84.35</ele>
        <time>2018-01-25T11:39:30Z</time>
      </trkpt>
      <trkpt lat="47.8616" lon="-2.88644">
        <ele>84.3</ele>
        <time>2018-01-25T11:39:31Z</time>
      </trkpt>
      <trkpt lat="47.86161" lon="-2.88646">
        <ele>84.25</ele>
        <time>2018-01-25T11:39:32Z</time>
      </trkpt>
      <trkpt lat="47.86161" lon="-2.88649">
        <ele>84.21</ele>
        <time>2018-01-25T11:39:33Z</time>
      </trkpt>
      <trkpt lat="47.86162" lon="-2.88651">
        <ele>84.18</ele>
        <time>2018-01-25T11:39:34Z</time>
      </trkpt>
      <trkpt lat="47.86162" lon="-2.88653">
        <ele>84.17</ele>
        <time>2018-01-25T11:39:35Z</time>
      </trkpt>
      <trkpt lat="47.86161" lon="-2.88656">
        <ele>84.16</ele>
        <time>2018-01-25T11:39:36Z</time>
      </trkpt>
      <trkpt lat="47.8616" lon="-2.88662">
        <ele>84.12</ele>
        <time>2018-01-25T11:39:39Z</time>
      </trkpt>
      <trkpt lat="47.86161" lon="-2.88674">
        <ele>83.91</ele>
        <time>2018-01-25T11:39:45Z</time>
      </trkpt>
      <trkpt lat="47.86169" lon="-2.88693">
        <ele>83.81</ele>
        <time>2018-01-25T11:39:59Z</time>
      </trkpt>
      <trkpt lat="47.86188" lon="-2.88707">
        <ele>84.62</ele>
        <time>2018-01-25T11:40:15Z</time>
      </trkpt>
      <trkpt lat="47.8621" lon="-2.88721">
        <ele>84.63</ele>
        <time>2018-01-25T11:40:34Z</time>
      </trkpt>
      <trkpt lat="47.86234" lon="-2.88734">
        <ele>84.32</ele>
        <time>2018-01-25T11:40:53Z</time>
      </trkpt>
      <trkpt lat="47.86249" lon="-2.88735">
        <ele>84.4</ele>
        <time>2018-01-25T11:41:07Z</time>
      </trkpt>
      <trkpt lat="47.8625" lon="-2.88732">
        <ele>84.38</ele>
        <time>2018-01-25T11:41:09Z</time>
      </trkpt>
      <trkpt lat="47.86251" lon="-2.88731">
        <ele>84.35</ele>
        <time>2018-01-25T11:41:10Z</time>
      </trkpt>
      <trkpt lat="47.86255" lon="-2.88721">
        <ele>84.03</ele>
        <time>2018-01-25T11:41:25Z</time>
      </trkpt>
      <trkpt lat="47.86254" lon="-2.88719">
        <ele>83.75</ele>
        <time>2018-01-25T11:41:47Z</time>
      </trkpt>
      <trkpt lat="47.86251" lon="-2.8872">
        <ele>83.71</ele>
        <time>2018-01-25T11:42:04Z</time>
      </trkpt>
      <trkpt lat="47.86255" lon="-2.88719">
        <ele>83.67</ele>
        <time>2018-01-25T11:42:26Z</time>
      </trkpt>
      <trkpt lat="47.86255" lon="-2.88718">
        <ele>83.63</ele>
        <time>2018-01-25T11:42:40Z</time>
      </trkpt>
      <trkpt lat="47.86257" lon="-2.88717">
        <ele>83.67</ele>
        <time>2018-01-25T11:42:54Z</time>
      </trkpt>
      <trkpt lat="47.86255" lon="-2.88714">
        <ele>83.8</ele>
        <time>2018-01-25T11:43:18Z</time>
      </trkpt>
      <trkpt lat="47.86255" lon="-2.88718">
        <ele>83.64</ele>
        <time>2018-01-25T11:43:46Z</time>
      </trkpt>
      <trkpt lat="47.86257" lon="-2.88717">
        <ele>83.87</ele>
        <time>2018-01-25T11:44:13Z</time>
      </trkpt>
      <trkpt lat="47.86257" lon="-2.88717">
        <ele>83.78</ele>
        <time>2018-01-25T11:44:14Z</time>
      </trkpt>
      <trkpt lat="47.86271" lon="-2.88687">
        <ele>94.5</ele>
        <time>2018-01-25T11:44:36Z</time>
      </trkpt>
      <trkpt lat="47.86249" lon="-2.8871">
        <ele>94.5</ele>
        <time>2018-01-25T11:44:37Z</time>
      </trkpt>
      <trkpt lat="47.86255" lon="-2.88716">
        <ele>94.69</ele>
        <time>2018-01-25T11:45:01Z</time>
      </trkpt>
      <trkpt lat="47.86254" lon="-2.88717">
        <ele>94.8</ele>
        <time>2018-01-25T11:45:24Z</time>
      </trkpt>
      <trkpt lat="47.86255" lon="-2.88716">
        <ele>94.74</ele>
        <time>2018-01-25T11:45:35Z</time>
      </trkpt>
      <trkpt lat="47.86251" lon="-2.887">
        <ele>79.41</ele>
        <time>2018-01-25T13:19:25Z</time>
      </trkpt>
      <trkpt lat="47.86257" lon="-2.88704">
        <ele>79.41</ele>
        <time>2018-01-25T13:19:26Z</time>
      </trkpt>
      <trkpt lat="47.86274" lon="-2.88726">
        <ele>79.41</ele>
        <time>2018-01-25T13:19:28Z</time>
      </trkpt>
      <trkpt lat="47.86287" lon="-2.88748">
        <ele>79.74</ele>
        <time>2018-01-25T13:19:37Z</time>
      </trkpt>
      <trkpt lat="47.8627" lon="-2.88738">
        <ele>79.79</ele>
        <time>2018-01-25T13:19:55Z</time>
      </trkpt>
      <trkpt lat="47.86255" lon="-2.88727">
        <ele>80.01</ele>
        <time>2018-01-25T13:20:10Z</time>
      </trkpt>
      <trkpt lat="47.86252" lon="-2.88721">
        <ele>79.99</ele>
        <time>2018-01-25T13:20:25Z</time>
      </trkpt>
      <trkpt lat="47.86252" lon="-2.88719">
        <ele>80.01</ele>
        <time>2018-01-25T13:20:38Z</time>
      </trkpt>
      <trkpt lat="47.86251" lon="-2.88719">
        <ele>79.91</ele>
        <time>2018-01-25T13:20:50Z</time>
      </trkpt>
      <trkpt lat="47.86251" lon="-2.8872">
        <ele>80.29</ele>
        <time>2018-01-25T13:21:12Z</time>
      </trkpt>
      <trkpt lat="47.86252" lon="-2.88719">
        <ele>80.18</ele>
        <time>2018-01-25T13:22:02Z</time>
      </trkpt>
      <trkpt lat="47.86249" lon="-2.8872">
        <ele>80.1</ele>
        <time>2018-01-25T13:22:19Z</time>
      </trkpt>
      <trkpt lat="47.86248" lon="-2.88721">
        <ele>80.29</ele>
        <time>2018-01-25T13:22:37Z</time>
      </trkpt>
      <trkpt lat="47.86251" lon="-2.88724">
        <ele>80.31</ele>
        <time>2018-01-25T13:22:53Z</time>
      </trkpt>
      <trkpt lat="47.86253" lon="-2.88721">
        <ele>80.18</ele>
        <time>2018-01-25T13:23:17Z</time>
      </trkpt>
      <trkpt lat="47.86252" lon="-2.88721">
        <ele>80.59</ele>
        <time>2018-01-25T13:23:44Z</time>
      </trkpt>
      <trkpt lat="47.86254" lon="-2.88718">
        <ele>80.69</ele>
        <time>2018-01-25T13:24:06Z</time>
      </trkpt>
      <trkpt lat="47.86255" lon="-2.88719">
        <ele>80.59</ele>
        <time>2018-01-25T13:24:37Z</time>
      </trkpt>
      <trkpt lat="47.86255" lon="-2.88719">
        <ele>80.59</ele>
        <time>2018-01-25T13:24:55Z</time>
      </trkpt>
      <trkpt lat="47.86253" lon="-2.88717">
        <ele>80.69</ele>
        <time>2018-01-25T13:25:13Z</time>
      </trkpt>
      <trkpt lat="47.86253" lon="-2.88717">
        <ele>80.65</ele>
        <time>2018-01-25T13:25:41Z</time>
      </trkpt>
      <trkpt lat="47.86255" lon="-2.88714">
        <ele>80.58</ele>
        <time>2018-01-25T13:26:01Z</time>
      </trkpt>
      <trkpt lat="47.86258" lon="-2.88708">
        <ele>80.54</ele>
        <time>2018-01-25T13:26:05Z</time>
      </trkpt>
      <trkpt lat="47.86264" lon="-2.88695">
        <ele>79.64</ele>
        <time>2018-01-25T13:26:22Z</time>
      </trkpt>
      <trkpt lat="47.86262" lon="-2.88699">
        <ele>79.6</ele>
        <time>2018-01-25T13:26:32Z</time>
      </trkpt>
      <trkpt lat="47.86261" lon="-2.88706">
        <ele>80.1</ele>
        <time>2018-01-25T13:26:46Z</time>
      </trkpt>
      <trkpt lat="47.86262" lon="-2.88705">
        <ele>79.96</ele>
        <time>2018-01-25T13:27:04Z</time>
      </trkpt>
      <trkpt lat="47.86261" lon="-2.88705">
        <ele>79.74</ele>
        <time>2018-01-25T13:27:21Z</time>
      </trkpt>
      <trkpt lat="47.86261" lon="-2.88705">
        <ele>79.97</ele>
        <time>2018-01-25T13:27:38Z</time>
      </trkpt>
      <trkpt lat="47.86261" lon="-2.88706">
        <ele>80.26</ele>
        <time>2018-01-25T13:28:07Z</time>
      </trkpt>
      <trkpt lat="47.8626" lon="-2.8871">
        <ele>80.43</ele>
        <time>2018-01-25T13:28:21Z</time>
      </trkpt>
      <trkpt lat="47.86257" lon="-2.88717">
        <ele>81.12</ele>
        <time>2018-01-25T13:28:36Z</time>
      </trkpt>
      <trkpt lat="47.86257" lon="-2.88719">
        <ele>81.16</ele>
        <time>2018-01-25T13:28:53Z</time>
      </trkpt>
      <trkpt lat="47.86256" lon="-2.88736">
        <ele>81.13</ele>
        <time>2018-01-25T13:29:11Z</time>
      </trkpt>
      <trkpt lat="47.86255" lon="-2.88736">
        <ele>81.13</ele>
        <time>2018-01-25T13:29:12Z</time>
      </trkpt>
      <trkpt lat="47.86234" lon="-2.88731">
        <ele>80.71</ele>
        <time>2018-01-25T13:29:29Z</time>
      </trkpt>
      <trkpt lat="47.86209" lon="-2.8872">
        <ele>80.73</ele>
        <time>2018-01-25T13:29:49Z</time>
      </trkpt>
      <trkpt lat="47.86187" lon="-2.88704">
        <ele>81.27</ele>
        <time>2018-01-25T13:30:09Z</time>
      </trkpt>
      <trkpt lat="47.86168" lon="-2.8869">
        <ele>80.43</ele>
        <time>2018-01-25T13:30:28Z</time>
      </trkpt>
      <trkpt lat="47.86163" lon="-2.88686">
        <ele>80.24</ele>
        <time>2018-01-25T13:30:33Z</time>
      </trkpt>
      <trkpt lat="47.86155" lon="-2.88703">
        <ele>80.57</ele>
        <time>2018-01-25T13:30:44Z</time>
      </trkpt>
      <trkpt lat="47.86143" lon="-2.88718">
        <ele>80.46</ele>
        <time>2018-01-25T13:30:56Z</time>
      </trkpt>
      <trkpt lat="47.86142" lon="-2.88722">
        <ele>80.71</ele>
        <time>2018-01-25T13:31:05Z</time>
      </trkpt>
      <trkpt lat="47.86141" lon="-2.88729">
        <ele>80.64</ele>
        <time>2018-01-25T13:31:08Z</time>
      </trkpt>
      <trkpt lat="47.8614" lon="-2.88739">
        <ele>80.8</ele>
        <time>2018-01-25T13:31:13Z</time>
      </trkpt>
      <trkpt lat="47.86136" lon="-2.88775">
        <ele>80.94</ele>
        <time>2018-01-25T13:31:32Z</time>
      </trkpt>
      <trkpt lat="47.8613" lon="-2.8879">
        <ele>81.09</ele>
        <time>2018-01-25T13:31:41Z</time>
      </trkpt>
      <trkpt lat="47.86121" lon="-2.88795">
        <ele>80.99</ele>
        <time>2018-01-25T13:31:54Z</time>
      </trkpt>
      <trkpt lat="47.86119" lon="-2.88795">
        <ele>81.16</ele>
        <time>2018-01-25T13:32:09Z</time>
      </trkpt>
      <trkpt lat="47.86117" lon="-2.88795">
        <ele>81.08</ele>
        <time>2018-01-25T13:32:17Z</time>
      </trkpt>
      <trkpt lat="47.86111" lon="-2.88787">
        <ele>80.72</ele>
        <time>2018-01-25T13:32:23Z</time>
      </trkpt>
      <trkpt lat="47.86108" lon="-2.88783">
        <ele>80.95</ele>
        <time>2018-01-25T13:32:27Z</time>
      </trkpt>
      <trkpt lat="47.86106" lon="-2.88777">
        <ele>81.28</ele>
        <time>2018-01-25T13:32:31Z</time>
      </trkpt>
      <trkpt lat="47.86094" lon="-2.88755">
        <ele>82.17</ele>
        <time>2018-01-25T13:32:50Z</time>
      </trkpt>
      <trkpt lat="47.86096" lon="-2.88746">
        <ele>82.12</ele>
        <time>2018-01-25T13:32:57Z</time>
      </trkpt>
      <trkpt lat="47.86094" lon="-2.88738">
        <ele>82.15</ele>
        <time>2018-01-25T13:33:01Z</time>
      </trkpt>
      <trkpt lat="47.86091" lon="-2.88731">
        <ele>82.08</ele>
        <time>2018-01-25T13:33:06Z</time>
      </trkpt>
      <trkpt lat="47.86091" lon="-2.8872">
        <ele>82.04</ele>
        <time>2018-01-25T13:33:16Z</time>
      </trkpt>
      <trkpt lat="47.86089" lon="-2.88708">
        <ele>81.78</ele>
        <time>2018-01-25T13:33:23Z</time>
      </trkpt>
      <trkpt lat="47.86083" lon="-2.88697">
        <ele>81.49</ele>
        <time>2018-01-25T13:33:33Z</time>
      </trkpt>
      <trkpt lat="47.8608" lon="-2.88686">
        <ele>81.15</ele>
        <time>2018-01-25T13:33:39Z</time>
      </trkpt>
      <trkpt lat="47.86077" lon="-2.88641">
        <ele>80.99</ele>
        <time>2018-01-25T13:33:59Z</time>
      </trkpt>
      <trkpt lat="47.86077" lon="-2.88637">
        <ele>80.95</ele>
        <time>2018-01-25T13:34:01Z</time>
      </trkpt>
      <trkpt lat="47.86077" lon="-2.88633">
        <ele>80.85</ele>
        <time>2018-01-25T13:34:03Z</time>
      </trkpt>
      <trkpt lat="47.86079" lon="-2.88615">
        <ele>80.43</ele>
        <time>2018-01-25T13:34:12Z</time>
      </trkpt>
      <trkpt lat="47.86079" lon="-2.88579">
        <ele>79.62</ele>
        <time>2018-01-25T13:34:29Z</time>
      </trkpt>
      <trkpt lat="47.86079" lon="-2.88552">
        <ele>78.62</ele>
        <time>2018-01-25T13:34:43Z</time>
      </trkpt>
      <trkpt lat="47.86079" lon="-2.88545">
        <ele>78.52</ele>
        <time>2018-01-25T13:35:01Z</time>
      </trkpt>
      <trkpt lat="47.86079" lon="-2.88546">
        <ele>78.91</ele>
        <time>2018-01-25T13:35:19Z</time>
      </trkpt>
      <trkpt lat="47.86079" lon="-2.88546">
        <ele>78.9</ele>
        <time>2018-01-25T13:35:20Z</time>
      </trkpt>
      <trkpt lat="47.86081" lon="-2.88542">
        <ele>78.84</ele>
        <time>2018-01-25T13:35:22Z</time>
      </trkpt>
      <trkpt lat="47.86097" lon="-2.88502">
        <ele>78.18</ele>
        <time>2018-01-25T13:35:41Z</time>
      </trkpt>
      <trkpt lat="47.8611" lon="-2.88464">
        <ele>77.23</ele>
        <time>2018-01-25T13:35:59Z</time>
      </trkpt>
      <trkpt lat="47.86103" lon="-2.88432">
        <ele>75.69</ele>
        <time>2018-01-25T13:36:15Z</time>
      </trkpt>
      <trkpt lat="47.861" lon="-2.88396">
        <ele>73.33</ele>
        <time>2018-01-25T13:36:32Z</time>
      </trkpt>
      <trkpt lat="47.8611" lon="-2.88349">
        <ele>71.06</ele>
        <time>2018-01-25T13:36:54Z</time>
      </trkpt>
      <trkpt lat="47.86119" lon="-2.88304">
        <ele>69.16</ele>
        <time>2018-01-25T13:37:14Z</time>
      </trkpt>
      <trkpt lat="47.86124" lon="-2.88251">
        <ele>67.61</ele>
        <time>2018-01-25T13:37:37Z</time>
      </trkpt>
      <trkpt lat="47.86124" lon="-2.88245">
        <ele>67.33</ele>
        <time>2018-01-25T13:37:48Z</time>
      </trkpt>
      <trkpt lat="47.86122" lon="-2.88238">
        <ele>67.26</ele>
        <time>2018-01-25T13:37:52Z</time>
      </trkpt>
      <trkpt lat="47.86124" lon="-2.8823">
        <ele>67.15</ele>
        <time>2018-01-25T13:37:56Z</time>
      </trkpt>
      <trkpt lat="47.86126" lon="-2.88225">
        <ele>67.08</ele>
        <time>2018-01-25T13:37:59Z</time>
      </trkpt>
      <trkpt lat="47.86126" lon="-2.88216">
        <ele>67.02</ele>
        <time>2018-01-25T13:38:04Z</time>
      </trkpt>
      <trkpt lat="47.86121" lon="-2.88187">
        <ele>63.79</ele>
        <time>2018-01-25T13:38:18Z</time>
      </trkpt>
      <trkpt lat="47.86102" lon="-2.88161">
        <ele>61.01</ele>
        <time>2018-01-25T13:38:34Z</time>
      </trkpt>
      <trkpt lat="47.86096" lon="-2.88157">
        <ele>60.64</ele>
        <time>2018-01-25T13:38:40Z</time>
      </trkpt>
      <trkpt lat="47.86091" lon="-2.88154">
        <ele>59.91</ele>
        <time>2018-01-25T13:38:48Z</time>
      </trkpt>
      <trkpt lat="47.86088" lon="-2.88153">
        <ele>59.78</ele>
        <time>2018-01-25T13:38:51Z</time>
      </trkpt>
      <trkpt lat="47.86082" lon="-2.8815">
        <ele>59.52</ele>
        <time>2018-01-25T13:38:56Z</time>
      </trkpt>
      <trkpt lat="47.86068" lon="-2.88118">
        <ele>58.22</ele>
        <time>2018-01-25T13:39:13Z</time>
      </trkpt>
      <trkpt lat="47.8606" lon="-2.88074">
        <ele>57.07</ele>
        <time>2018-01-25T13:39:31Z</time>
      </trkpt>
      <trkpt lat="47.86059" lon="-2.88069">
        <ele>56.99</ele>
        <time>2018-01-25T13:39:34Z</time>
      </trkpt>
      <trkpt lat="47.86061" lon="-2.8806">
        <ele>56.9</ele>
        <time>2018-01-25T13:39:38Z</time>
      </trkpt>
      <trkpt lat="47.86091" lon="-2.88033">
        <ele>56.49</ele>
        <time>2018-01-25T13:39:59Z</time>
      </trkpt>
      <trkpt lat="47.86114" lon="-2.88019">
        <ele>56.63</ele>
        <time>2018-01-25T13:40:13Z</time>
      </trkpt>
      <trkpt lat="47.86132" lon="-2.87996">
        <ele>56.98</ele>
        <time>2018-01-25T13:40:30Z</time>
      </trkpt>
      <trkpt lat="47.86144" lon="-2.87983">
        <ele>57.59</ele>
        <time>2018-01-25T13:40:40Z</time>
      </trkpt>
      <trkpt lat="47.86145" lon="-2.87982">
        <ele>57.65</ele>
        <time>2018-01-25T13:40:41Z</time>
      </trkpt>
      <trkpt lat="47.86159" lon="-2.87971">
        <ele>58.17</ele>
        <time>2018-01-25T13:40:51Z</time>
      </trkpt>
      <trkpt lat="47.86181" lon="-2.87958">
        <ele>58.93</ele>
        <time>2018-01-25T13:41:04Z</time>
      </trkpt>
      <trkpt lat="47.86198" lon="-2.87941">
        <ele>59.83</ele>
        <time>2018-01-25T13:41:18Z</time>
      </trkpt>
      <trkpt lat="47.86201" lon="-2.87937">
        <ele>59.98</ele>
        <time>2018-01-25T13:41:21Z</time>
      </trkpt>
      <trkpt lat="47.86203" lon="-2.87936">
        <ele>60.02</ele>
        <time>2018-01-25T13:41:22Z</time>
      </trkpt>
      <trkpt lat="47.86204" lon="-2.87934">
        <ele>60.06</ele>
        <time>2018-01-25T13:41:23Z</time>
      </trkpt>
      <trkpt lat="47.86205" lon="-2.87933">
        <ele>60.09</ele>
        <time>2018-01-25T13:41:24Z</time>
      </trkpt>
      <trkpt lat="47.86206" lon="-2.87932">
        <ele>60.13</ele>
        <time>2018-01-25T13:41:25Z</time>
      </trkpt>
      <trkpt lat="47.86208" lon="-2.8793">
        <ele>60.18</ele>
        <time>2018-01-25T13:41:26Z</time>
      </trkpt>
      <trkpt lat="47.86222" lon="-2.87915">
        <ele>60.75</ele>
        <time>2018-01-25T13:41:37Z</time>
      </trkpt>
      <trkpt lat="47.86235" lon="-2.8789">
        <ele>61.1</ele>
        <time>2018-01-25T13:41:51Z</time>
      </trkpt>
      <trkpt lat="47.86251" lon="-2.87854">
        <ele>61.89</ele>
        <time>2018-01-25T13:42:08Z</time>
      </trkpt>
      <trkpt lat="47.86259" lon="-2.8782">
        <ele>62.34</ele>
        <time>2018-01-25T13:42:24Z</time>
      </trkpt>
      <trkpt lat="47.86265" lon="-2.8778">
        <ele>63.44</ele>
        <time>2018-01-25T13:42:42Z</time>
      </trkpt>
      <trkpt lat="47.86271" lon="-2.87744">
        <ele>64.15</ele>
        <time>2018-01-25T13:42:57Z</time>
      </trkpt>
      <trkpt lat="47.86275" lon="-2.87709">
        <ele>64.63</ele>
        <time>2018-01-25T13:43:14Z</time>
      </trkpt>
      <trkpt lat="47.86281" lon="-2.87666">
        <ele>65.09</ele>
        <time>2018-01-25T13:43:31Z</time>
      </trkpt>
      <trkpt lat="47.86286" lon="-2.87633">
        <ele>64.82</ele>
        <time>2018-01-25T13:43:45Z</time>
      </trkpt>
      <trkpt lat="47.86286" lon="-2.87629">
        <ele>64.75</ele>
        <time>2018-01-25T13:43:47Z</time>
      </trkpt>
      <trkpt lat="47.86287" lon="-2.87627">
        <ele>64.71</ele>
        <time>2018-01-25T13:43:48Z</time>
      </trkpt>
      <trkpt lat="47.86287" lon="-2.87626">
        <ele>64.68</ele>
        <time>2018-01-25T13:43:49Z</time>
      </trkpt>
      <trkpt lat="47.86292" lon="-2.87607">
        <ele>64.71</ele>
        <time>2018-01-25T13:44:00Z</time>
      </trkpt>
      <trkpt lat="47.86294" lon="-2.87604">
        <ele>64.68</ele>
        <time>2018-01-25T13:44:02Z</time>
      </trkpt>
      <trkpt lat="47.86295" lon="-2.87601">
        <ele>64.69</ele>
        <time>2018-01-25T13:44:04Z</time>
      </trkpt>
      <trkpt lat="47.86296" lon="-2.87599">
        <ele>64.72</ele>
        <time>2018-01-25T13:44:05Z</time>
      </trkpt>
      <trkpt lat="47.86297" lon="-2.87596">
        <ele>64.75</ele>
        <time>2018-01-25T13:44:06Z</time>
      </trkpt>
      <trkpt lat="47.86306" lon="-2.8757">
        <ele>64.81</ele>
        <time>2018-01-25T13:44:19Z</time>
      </trkpt>
      <trkpt lat="47.86307" lon="-2.87567">
        <ele>64.82</ele>
        <time>2018-01-25T13:44:21Z</time>
      </trkpt>
      <trkpt lat="47.86314" lon="-2.87547">
        <ele>64.82</ele>
        <time>2018-01-25T13:44:33Z</time>
      </trkpt>
      <trkpt lat="47.86314" lon="-2.87544">
        <ele>64.72</ele>
        <time>2018-01-25T13:44:34Z</time>
      </trkpt>
      <trkpt lat="47.86314" lon="-2.87542">
        <ele>64.68</ele>
        <time>2018-01-25T13:44:35Z</time>
      </trkpt>
      <trkpt lat="47.86314" lon="-2.87538">
        <ele>64.6</ele>
        <time>2018-01-25T13:44:37Z</time>
      </trkpt>
      <trkpt lat="47.86314" lon="-2.87536">
        <ele>64.56</ele>
        <time>2018-01-25T13:44:38Z</time>
      </trkpt>
      <trkpt lat="47.86314" lon="-2.8753">
        <ele>64.51</ele>
        <time>2018-01-25T13:44:41Z</time>
      </trkpt>
      <trkpt lat="47.86318" lon="-2.87514">
        <ele>64.42</ele>
        <time>2018-01-25T13:44:49Z</time>
      </trkpt>
      <trkpt lat="47.86319" lon="-2.87512">
        <ele>64.44</ele>
        <time>2018-01-25T13:44:50Z</time>
      </trkpt>
      <trkpt lat="47.8632" lon="-2.8751">
        <ele>64.46</ele>
        <time>2018-01-25T13:44:51Z</time>
      </trkpt>
      <trkpt lat="47.86325" lon="-2.87486">
        <ele>64.24</ele>
        <time>2018-01-25T13:45:04Z</time>
      </trkpt>
      <trkpt lat="47.86325" lon="-2.87477">
        <ele>64.05</ele>
        <time>2018-01-25T13:45:08Z</time>
      </trkpt>
      <trkpt lat="47.86325" lon="-2.87474">
        <ele>63.99</ele>
        <time>2018-01-25T13:45:09Z</time>
      </trkpt>
      <trkpt lat="47.86325" lon="-2.87471">
        <ele>63.91</ele>
        <time>2018-01-25T13:45:10Z</time>
      </trkpt>
      <trkpt lat="47.86326" lon="-2.87469">
        <ele>63.82</ele>
        <time>2018-01-25T13:45:11Z</time>
      </trkpt>
      <trkpt lat="47.86326" lon="-2.87467">
        <ele>63.73</ele>
        <time>2018-01-25T13:45:12Z</time>
      </trkpt>
      <trkpt lat="47.86327" lon="-2.87465">
        <ele>63.65</ele>
        <time>2018-01-25T13:45:13Z</time>
      </trkpt>
      <trkpt lat="47.86327" lon="-2.87463">
        <ele>63.57</ele>
        <time>2018-01-25T13:45:14Z</time>
      </trkpt>
      <trkpt lat="47.86328" lon="-2.87461">
        <ele>63.51</ele>
        <time>2018-01-25T13:45:15Z</time>
      </trkpt>
      <trkpt lat="47.86329" lon="-2.87459">
        <ele>63.45</ele>
        <time>2018-01-25T13:45:16Z</time>
      </trkpt>
      <trkpt lat="47.86331" lon="-2.8745">
        <ele>63.22</ele>
        <time>2018-01-25T13:45:20Z</time>
      </trkpt>
      <trkpt lat="47.86336" lon="-2.87425">
        <ele>62.69</ele>
        <time>2018-01-25T13:45:32Z</time>
      </trkpt>
      <trkpt lat="47.86342" lon="-2.874">
        <ele>62.31</ele>
        <time>2018-01-25T13:45:45Z</time>
      </trkpt>
      <trkpt lat="47.86349" lon="-2.87363">
        <ele>61.75</ele>
        <time>2018-01-25T13:46:04Z</time>
      </trkpt>
      <trkpt lat="47.86358" lon="-2.87322">
        <ele>61.06</ele>
        <time>2018-01-25T13:46:23Z</time>
      </trkpt>
      <trkpt lat="47.86358" lon="-2.87295">
        <ele>60.84</ele>
        <time>2018-01-25T13:46:37Z</time>
      </trkpt>
      <trkpt lat="47.86358" lon="-2.87285">
        <ele>60.7</ele>
        <time>2018-01-25T13:46:41Z</time>
      </trkpt>
      <trkpt lat="47.86358" lon="-2.87281">
        <ele>60.66</ele>
        <time>2018-01-25T13:46:42Z</time>
      </trkpt>
      <trkpt lat="47.86358" lon="-2.87279">
        <ele>60.64</ele>
        <time>2018-01-25T13:46:43Z</time>
      </trkpt>
      <trkpt lat="47.86358" lon="-2.87234">
        <ele>61.04</ele>
        <time>2018-01-25T13:46:55Z</time>
      </trkpt>
      <trkpt lat="47.86358" lon="-2.87229">
        <ele>61.09</ele>
        <time>2018-01-25T13:46:56Z</time>
      </trkpt>
      <trkpt lat="47.86358" lon="-2.87226">
        <ele>61.17</ele>
        <time>2018-01-25T13:46:57Z</time>
      </trkpt>
      <trkpt lat="47.86359" lon="-2.87221">
        <ele>61.23</ele>
        <time>2018-01-25T13:46:58Z</time>
      </trkpt>
      <trkpt lat="47.86359" lon="-2.87216">
        <ele>61.3</ele>
        <time>2018-01-25T13:46:59Z</time>
      </trkpt>
      <trkpt lat="47.86359" lon="-2.87212">
        <ele>61.36</ele>
        <time>2018-01-25T13:47:00Z</time>
      </trkpt>
      <trkpt lat="47.8636" lon="-2.87208">
        <ele>61.45</ele>
        <time>2018-01-25T13:47:01Z</time>
      </trkpt>
      <trkpt lat="47.86361" lon="-2.87204">
        <ele>61.53</ele>
        <time>2018-01-25T13:47:02Z</time>
      </trkpt>
      <trkpt lat="47.86362" lon="-2.872">
        <ele>61.62</ele>
        <time>2018-01-25T13:47:03Z</time>
      </trkpt>
      <trkpt lat="47.86362" lon="-2.87195">
        <ele>61.79</ele>
        <time>2018-01-25T13:47:04Z</time>
      </trkpt>
      <trkpt lat="47.86363" lon="-2.87191">
        <ele>61.87</ele>
        <time>2018-01-25T13:47:05Z</time>
      </trkpt>
      <trkpt lat="47.86364" lon="-2.87187">
        <ele>61.94</ele>
        <time>2018-01-25T13:47:06Z</time>
      </trkpt>
      <trkpt lat="47.86374" lon="-2.8713">
        <ele>62.45</ele>
        <time>2018-01-25T13:47:17Z</time>
      </trkpt>
      <trkpt lat="47.86378" lon="-2.87067">
        <ele>63.14</ele>
        <time>2018-01-25T13:47:29Z</time>
      </trkpt>
      <trkpt lat="47.86379" lon="-2.87015">
        <ele>63.59</ele>
        <time>2018-01-25T13:47:39Z</time>
      </trkpt>
      <trkpt lat="47.86391" lon="-2.86963">
        <ele>63.41</ele>
        <time>2018-01-25T13:47:50Z</time>
      </trkpt>
      <trkpt lat="47.86398" lon="-2.86895">
        <ele>62.93</ele>
        <time>2018-01-25T13:48:02Z</time>
      </trkpt>
      <trkpt lat="47.86411" lon="-2.8684">
        <ele>62.37</ele>
        <time>2018-01-25T13:48:12Z</time>
      </trkpt>
      <trkpt lat="47.86424" lon="-2.86791">
        <ele>61.87</ele>
        <time>2018-01-25T13:48:22Z</time>
      </trkpt>
      <trkpt lat="47.86436" lon="-2.86732">
        <ele>60.83</ele>
        <time>2018-01-25T13:48:33Z</time>
      </trkpt>
      <trkpt lat="47.8645" lon="-2.86668">
        <ele>59.81</ele>
        <time>2018-01-25T13:48:42Z</time>
      </trkpt>
      <trkpt lat="47.86454" lon="-2.86645">
        <ele>59.58</ele>
        <time>2018-01-25T13:48:45Z</time>
      </trkpt>
      <trkpt lat="47.8646" lon="-2.86621">
        <ele>59.51</ele>
        <time>2018-01-25T13:48:48Z</time>
      </trkpt>
      <trkpt lat="47.86462" lon="-2.86613">
        <ele>59.49</ele>
        <time>2018-01-25T13:48:49Z</time>
      </trkpt>
      <trkpt lat="47.86463" lon="-2.86604">
        <ele>59.48</ele>
        <time>2018-01-25T13:48:50Z</time>
      </trkpt>
      <trkpt lat="47.86465" lon="-2.86595">
        <ele>59.48</ele>
        <time>2018-01-25T13:48:51Z</time>
      </trkpt>
      <trkpt lat="47.86466" lon="-2.86587">
        <ele>59.51</ele>
        <time>2018-01-25T13:48:52Z</time>
      </trkpt>
      <trkpt lat="47.86472" lon="-2.86561">
        <ele>59.48</ele>
        <time>2018-01-25T13:48:55Z</time>
      </trkpt>
      <trkpt lat="47.86511" lon="-2.86461">
        <ele>60.18</ele>
        <time>2018-01-25T13:49:08Z</time>
      </trkpt>
      <trkpt lat="47.86558" lon="-2.86369">
        <ele>61.75</ele>
        <time>2018-01-25T13:49:19Z</time>
      </trkpt>
      <trkpt lat="47.86596" lon="-2.86298">
        <ele>63.11</ele>
        <time>2018-01-25T13:49:31Z</time>
      </trkpt>
      <trkpt lat="47.86596" lon="-2.86293">
        <ele>63.19</ele>
        <time>2018-01-25T13:49:32Z</time>
      </trkpt>
      <trkpt lat="47.86595" lon="-2.86283">
        <ele>63.39</ele>
        <time>2018-01-25T13:49:35Z</time>
      </trkpt>
      <trkpt lat="47.86595" lon="-2.8628">
        <ele>63.43</ele>
        <time>2018-01-25T13:49:36Z</time>
      </trkpt>
      <trkpt lat="47.86586" lon="-2.86244">
        <ele>62.63</ele>
        <time>2018-01-25T13:49:52Z</time>
      </trkpt>
      <trkpt lat="47.86583" lon="-2.86237">
        <ele>61.8</ele>
        <time>2018-01-25T13:49:57Z</time>
      </trkpt>
      <trkpt lat="47.86582" lon="-2.86235">
        <ele>61.64</ele>
        <time>2018-01-25T13:49:58Z</time>
      </trkpt>
      <trkpt lat="47.86581" lon="-2.86234">
        <ele>61.49</ele>
        <time>2018-01-25T13:49:59Z</time>
      </trkpt>
      <trkpt lat="47.8658" lon="-2.86232">
        <ele>61.35</ele>
        <time>2018-01-25T13:50:00Z</time>
      </trkpt>
      <trkpt lat="47.86579" lon="-2.86231">
        <ele>61.21</ele>
        <time>2018-01-25T13:50:01Z</time>
      </trkpt>
      <trkpt lat="47.86578" lon="-2.8623">
        <ele>61.06</ele>
        <time>2018-01-25T13:50:02Z</time>
      </trkpt>
      <trkpt lat="47.86571" lon="-2.86222">
        <ele>59.49</ele>
        <time>2018-01-25T13:50:10Z</time>
      </trkpt>
      <trkpt lat="47.86569" lon="-2.86218">
        <ele>58.98</ele>
        <time>2018-01-25T13:50:12Z</time>
      </trkpt>
      <trkpt lat="47.86564" lon="-2.86213">
        <ele>57.97</ele>
        <time>2018-01-25T13:50:17Z</time>
      </trkpt>
      <trkpt lat="47.86547" lon="-2.86199">
        <ele>56.3</ele>
        <time>2018-01-25T13:50:28Z</time>
      </trkpt>
      <trkpt lat="47.86545" lon="-2.86198">
        <ele>56.19</ele>
        <time>2018-01-25T13:50:29Z</time>
      </trkpt>
      <trkpt lat="47.86544" lon="-2.86197">
        <ele>56.09</ele>
        <time>2018-01-25T13:50:30Z</time>
      </trkpt>
      <trkpt lat="47.86543" lon="-2.86196">
        <ele>56.03</ele>
        <time>2018-01-25T13:50:31Z</time>
      </trkpt>
      <trkpt lat="47.86541" lon="-2.86195">
        <ele>55.99</ele>
        <time>2018-01-25T13:50:32Z</time>
      </trkpt>
      <trkpt lat="47.8654" lon="-2.86195">
        <ele>55.94</ele>
        <time>2018-01-25T13:50:33Z</time>
      </trkpt>
      <trkpt lat="47.86524" lon="-2.86189">
        <ele>55.41</ele>
        <time>2018-01-25T13:50:49Z</time>
      </trkpt>
      <trkpt lat="47.86508" lon="-2.86181">
        <ele>54.97</ele>
        <time>2018-01-25T13:51:04Z</time>
      </trkpt>
      <trkpt lat="47.86491" lon="-2.86165">
        <ele>55.27</ele>
        <time>2018-01-25T13:51:17Z</time>
      </trkpt>
      <trkpt lat="47.86478" lon="-2.86145">
        <ele>55.93</ele>
        <time>2018-01-25T13:51:33Z</time>
      </trkpt>
      <trkpt lat="47.86464" lon="-2.86128">
        <ele>57.6</ele>
        <time>2018-01-25T13:51:46Z</time>
      </trkpt>
      <trkpt lat="47.86428" lon="-2.86108">
        <ele>58.5</ele>
        <time>2018-01-25T13:51:56Z</time>
      </trkpt>
      <trkpt lat="47.86354" lon="-2.86072">
        <ele>61.82</ele>
        <time>2018-01-25T13:52:08Z</time>
      </trkpt>
      <trkpt lat="47.86319" lon="-2.86051">
        <ele>64.83</ele>
        <time>2018-01-25T13:52:14Z</time>
      </trkpt>
      <trkpt lat="47.86295" lon="-2.8604">
        <ele>68.27</ele>
        <time>2018-01-25T13:52:20Z</time>
      </trkpt>
      <trkpt lat="47.86262" lon="-2.86026">
        <ele>71.48</ele>
        <time>2018-01-25T13:52:29Z</time>
      </trkpt>
      <trkpt lat="47.86241" lon="-2.86017">
        <ele>72.63</ele>
        <time>2018-01-25T13:52:33Z</time>
      </trkpt>
      <trkpt lat="47.86189" lon="-2.85993">
        <ele>75.82</ele>
        <time>2018-01-25T13:52:43Z</time>
      </trkpt>
      <trkpt lat="47.86175" lon="-2.85986">
        <ele>77.06</ele>
        <time>2018-01-25T13:52:46Z</time>
      </trkpt>
      <trkpt lat="47.86128" lon="-2.85964">
        <ele>79.07</ele>
        <time>2018-01-25T13:52:56Z</time>
      </trkpt>
      <trkpt lat="47.86123" lon="-2.85962">
        <ele>79.17</ele>
        <time>2018-01-25T13:52:57Z</time>
      </trkpt>
      <trkpt lat="47.86085" lon="-2.85944">
        <ele>80.39</ele>
        <time>2018-01-25T13:53:05Z</time>
      </trkpt>
      <trkpt lat="47.8608" lon="-2.85941">
        <ele>80.58</ele>
        <time>2018-01-25T13:53:06Z</time>
      </trkpt>
      <trkpt lat="47.86012" lon="-2.85904">
        <ele>80.8</ele>
        <time>2018-01-25T13:53:21Z</time>
      </trkpt>
      <trkpt lat="47.85953" lon="-2.85869">
        <ele>80.51</ele>
        <time>2018-01-25T13:53:34Z</time>
      </trkpt>
      <trkpt lat="47.85886" lon="-2.85805">
        <ele>80.99</ele>
        <time>2018-01-25T13:53:50Z</time>
      </trkpt>
      <trkpt lat="47.85841" lon="-2.85756">
        <ele>82.76</ele>
        <time>2018-01-25T13:54:02Z</time>
      </trkpt>
      <trkpt lat="47.85835" lon="-2.85731">
        <ele>85.61</ele>
        <time>2018-01-25T13:54:14Z</time>
      </trkpt>
      <trkpt lat="47.85837" lon="-2.85715">
        <ele>86.52</ele>
        <time>2018-01-25T13:54:23Z</time>
      </trkpt>
      <trkpt lat="47.85838" lon="-2.85714">
        <ele>86.72</ele>
        <time>2018-01-25T13:54:24Z</time>
      </trkpt>
      <trkpt lat="47.85838" lon="-2.85712">
        <ele>86.8</ele>
        <time>2018-01-25T13:54:25Z</time>
      </trkpt>
      <trkpt lat="47.85839" lon="-2.85711">
        <ele>86.88</ele>
        <time>2018-01-25T13:54:26Z</time>
      </trkpt>
      <trkpt lat="47.8584" lon="-2.85709">
        <ele>86.95</ele>
        <time>2018-01-25T13:54:27Z</time>
      </trkpt>
      <trkpt lat="47.85841" lon="-2.85707">
        <ele>87</ele>
        <time>2018-01-25T13:54:28Z</time>
      </trkpt>
      <trkpt lat="47.85874" lon="-2.8567">
        <ele>86.87</ele>
        <time>2018-01-25T13:54:40Z</time>
      </trkpt>
      <trkpt lat="47.85905" lon="-2.85639">
        <ele>86.46</ele>
        <time>2018-01-25T13:54:51Z</time>
      </trkpt>
      <trkpt lat="47.85936" lon="-2.85601">
        <ele>86.23</ele>
        <time>2018-01-25T13:55:03Z</time>
      </trkpt>
      <trkpt lat="47.85955" lon="-2.8556">
        <ele>86.1</ele>
        <time>2018-01-25T13:55:11Z</time>
      </trkpt>
      <trkpt lat="47.85964" lon="-2.85538">
        <ele>86.55</ele>
        <time>2018-01-25T13:55:14Z</time>
      </trkpt>
      <trkpt lat="47.85967" lon="-2.85531">
        <ele>86.85</ele>
        <time>2018-01-25T13:55:15Z</time>
      </trkpt>
      <trkpt lat="47.85968" lon="-2.85525">
        <ele>87.27</ele>
        <time>2018-01-25T13:55:16Z</time>
      </trkpt>
      <trkpt lat="47.85969" lon="-2.85519">
        <ele>87.77</ele>
        <time>2018-01-25T13:55:17Z</time>
      </trkpt>
      <trkpt lat="47.85969" lon="-2.85515">
        <ele>88.31</ele>
        <time>2018-01-25T13:55:18Z</time>
      </trkpt>
      <trkpt lat="47.8597" lon="-2.85506">
        <ele>90.83</ele>
        <time>2018-01-25T13:55:23Z</time>
      </trkpt>
      <trkpt lat="47.85973" lon="-2.85501">
        <ele>91.46</ele>
        <time>2018-01-25T13:55:25Z</time>
      </trkpt>
      <trkpt lat="47.85976" lon="-2.85474">
        <ele>93.43</ele>
        <time>2018-01-25T13:55:38Z</time>
      </trkpt>
      <trkpt lat="47.85974" lon="-2.85446">
        <ele>94.76</ele>
        <time>2018-01-25T13:55:55Z</time>
      </trkpt>
      <trkpt lat="47.85973" lon="-2.85444">
        <ele>94.78</ele>
        <time>2018-01-25T13:55:56Z</time>
      </trkpt>
      <trkpt lat="47.85973" lon="-2.85442">
        <ele>94.79</ele>
        <time>2018-01-25T13:55:57Z</time>
      </trkpt>
      <trkpt lat="47.85973" lon="-2.85441">
        <ele>94.82</ele>
        <time>2018-01-25T13:55:58Z</time>
      </trkpt>
      <trkpt lat="47.85973" lon="-2.85439">
        <ele>94.82</ele>
        <time>2018-01-25T13:55:59Z</time>
      </trkpt>
      <trkpt lat="47.85973" lon="-2.85437">
        <ele>94.82</ele>
        <time>2018-01-25T13:56:00Z</time>
      </trkpt>
      <trkpt lat="47.85972" lon="-2.85428">
        <ele>95.23</ele>
        <time>2018-01-25T13:56:07Z</time>
      </trkpt>
      <trkpt lat="47.85972" lon="-2.85426">
        <ele>95.31</ele>
        <time>2018-01-25T13:56:08Z</time>
      </trkpt>
      <trkpt lat="47.85972" lon="-2.85423">
        <ele>95.44</ele>
        <time>2018-01-25T13:56:10Z</time>
      </trkpt>
      <trkpt lat="47.85967" lon="-2.85387">
        <ele>96.29</ele>
        <time>2018-01-25T13:56:26Z</time>
      </trkpt>
      <trkpt lat="47.85962" lon="-2.85352">
        <ele>96.95</ele>
        <time>2018-01-25T13:56:43Z</time>
      </trkpt>
      <trkpt lat="47.8596" lon="-2.85314">
        <ele>97.78</ele>
        <time>2018-01-25T13:56:58Z</time>
      </trkpt>
      <trkpt lat="47.85956" lon="-2.85269">
        <ele>99.31</ele>
        <time>2018-01-25T13:57:14Z</time>
      </trkpt>
      <trkpt lat="47.85955" lon="-2.85225">
        <ele>100.96</ele>
        <time>2018-01-25T13:57:34Z</time>
      </trkpt>
      <trkpt lat="47.85959" lon="-2.85184">
        <ele>102.34</ele>
        <time>2018-01-25T13:57:52Z</time>
      </trkpt>
      <trkpt lat="47.85963" lon="-2.85155">
        <ele>103.64</ele>
        <time>2018-01-25T13:58:05Z</time>
      </trkpt>
      <trkpt lat="47.85968" lon="-2.85126">
        <ele>104.73</ele>
        <time>2018-01-25T13:58:18Z</time>
      </trkpt>
      <trkpt lat="47.85969" lon="-2.85122">
        <ele>104.88</ele>
        <time>2018-01-25T13:58:20Z</time>
      </trkpt>
      <trkpt lat="47.85969" lon="-2.85119">
        <ele>104.97</ele>
        <time>2018-01-25T13:58:21Z</time>
      </trkpt>
      <trkpt lat="47.85973" lon="-2.85097">
        <ele>105.4</ele>
        <time>2018-01-25T13:58:30Z</time>
      </trkpt>
      <trkpt lat="47.85973" lon="-2.85095">
        <ele>105.45</ele>
        <time>2018-01-25T13:58:31Z</time>
      </trkpt>
      <trkpt lat="47.85973" lon="-2.85093">
        <ele>105.49</ele>
        <time>2018-01-25T13:58:32Z</time>
      </trkpt>
      <trkpt lat="47.85977" lon="-2.85053">
        <ele>106.79</ele>
        <time>2018-01-25T13:58:48Z</time>
      </trkpt>
      <trkpt lat="47.85976" lon="-2.85022">
        <ele>107.59</ele>
        <time>2018-01-25T13:59:01Z</time>
      </trkpt>
      <trkpt lat="47.85976" lon="-2.84992">
        <ele>108.13</ele>
        <time>2018-01-25T13:59:15Z</time>
      </trkpt>
      <trkpt lat="47.85976" lon="-2.8499">
        <ele>108.12</ele>
        <time>2018-01-25T13:59:16Z</time>
      </trkpt>
      <trkpt lat="47.85978" lon="-2.84971">
        <ele>108.35</ele>
        <time>2018-01-25T13:59:24Z</time>
      </trkpt>
      <trkpt lat="47.85978" lon="-2.84968">
        <ele>108.37</ele>
        <time>2018-01-25T13:59:25Z</time>
      </trkpt>
      <trkpt lat="47.85979" lon="-2.84965">
        <ele>108.38</ele>
        <time>2018-01-25T13:59:26Z</time>
      </trkpt>
      <trkpt lat="47.85979" lon="-2.84962">
        <ele>108.38</ele>
        <time>2018-01-25T13:59:27Z</time>
      </trkpt>
      <trkpt lat="47.8598" lon="-2.84957">
        <ele>108.36</ele>
        <time>2018-01-25T13:59:28Z</time>
      </trkpt>
      <trkpt lat="47.85981" lon="-2.84953">
        <ele>108.32</ele>
        <time>2018-01-25T13:59:29Z</time>
      </trkpt>
      <trkpt lat="47.85986" lon="-2.84916">
        <ele>108.17</ele>
        <time>2018-01-25T13:59:35Z</time>
      </trkpt>
      <trkpt lat="47.85986" lon="-2.84909">
        <ele>108.18</ele>
        <time>2018-01-25T13:59:36Z</time>
      </trkpt>
      <trkpt lat="47.85988" lon="-2.84894">
        <ele>108.24</ele>
        <time>2018-01-25T13:59:38Z</time>
      </trkpt>
      <trkpt lat="47.8599" lon="-2.84887">
        <ele>108.29</ele>
        <time>2018-01-25T13:59:39Z</time>
      </trkpt>
      <trkpt lat="47.85992" lon="-2.8488">
        <ele>108.35</ele>
        <time>2018-01-25T13:59:40Z</time>
      </trkpt>
      <trkpt lat="47.85994" lon="-2.84873">
        <ele>108.44</ele>
        <time>2018-01-25T13:59:41Z</time>
      </trkpt>
      <trkpt lat="47.85996" lon="-2.84865">
        <ele>108.54</ele>
        <time>2018-01-25T13:59:42Z</time>
      </trkpt>
      <trkpt lat="47.86015" lon="-2.84808">
        <ele>109.22</ele>
        <time>2018-01-25T13:59:48Z</time>
      </trkpt>
      <trkpt lat="47.86018" lon="-2.84799">
        <ele>109.36</ele>
        <time>2018-01-25T13:59:49Z</time>
      </trkpt>
      <trkpt lat="47.8602" lon="-2.84789">
        <ele>109.55</ele>
        <time>2018-01-25T13:59:50Z</time>
      </trkpt>
      <trkpt lat="47.86043" lon="-2.84708">
        <ele>111.96</ele>
        <time>2018-01-25T14:00:00Z</time>
      </trkpt>
      <trkpt lat="47.86046" lon="-2.84705">
        <ele>112.29</ele>
        <time>2018-01-25T14:00:01Z</time>
      </trkpt>
      <trkpt lat="47.86048" lon="-2.84701">
        <ele>112.64</ele>
        <time>2018-01-25T14:00:02Z</time>
      </trkpt>
      <trkpt lat="47.86062" lon="-2.84699">
        <ele>115.35</ele>
        <time>2018-01-25T14:00:15Z</time>
      </trkpt>
      <trkpt lat="47.86071" lon="-2.847">
        <ele>114.96</ele>
        <time>2018-01-25T14:00:26Z</time>
      </trkpt>
      <trkpt lat="47.86089" lon="-2.84709">
        <ele>112.61</ele>
        <time>2018-01-25T14:00:45Z</time>
      </trkpt>
      <trkpt lat="47.86123" lon="-2.84718">
        <ele>109.54</ele>
        <time>2018-01-25T14:01:05Z</time>
      </trkpt>
      <trkpt lat="47.86139" lon="-2.84725">
        <ele>107.29</ele>
        <time>2018-01-25T14:01:16Z</time>
      </trkpt>
      <trkpt lat="47.86153" lon="-2.84727">
        <ele>104.04</ele>
        <time>2018-01-25T14:01:28Z</time>
      </trkpt>
      <trkpt lat="47.86159" lon="-2.84728">
        <ele>102.96</ele>
        <time>2018-01-25T14:01:33Z</time>
      </trkpt>
      <trkpt lat="47.86169" lon="-2.84706">
        <ele>105.44</ele>
        <time>2018-01-25T14:01:52Z</time>
      </trkpt>
      <trkpt lat="47.86172" lon="-2.84693">
        <ele>106.64</ele>
        <time>2018-01-25T14:01:57Z</time>
      </trkpt>
      <trkpt lat="47.86179" lon="-2.84658">
        <ele>108.92</ele>
        <time>2018-01-25T14:02:07Z</time>
      </trkpt>
      <trkpt lat="47.8619" lon="-2.84617">
        <ele>110.29</ele>
        <time>2018-01-25T14:02:20Z</time>
      </trkpt>
      <trkpt lat="47.86195" lon="-2.84582">
        <ele>110.33</ele>
        <time>2018-01-25T14:02:32Z</time>
      </trkpt>
      <trkpt lat="47.8619" lon="-2.8453">
        <ele>111.28</ele>
        <time>2018-01-25T14:02:43Z</time>
      </trkpt>
      <trkpt lat="47.86188" lon="-2.84523">
        <ele>111.97</ele>
        <time>2018-01-25T14:02:45Z</time>
      </trkpt>
      <trkpt lat="47.86194" lon="-2.84465">
        <ele>114.45</ele>
        <time>2018-01-25T14:02:56Z</time>
      </trkpt>
      <trkpt lat="47.86192" lon="-2.84453">
        <ele>117.51</ele>
        <time>2018-01-25T14:03:01Z</time>
      </trkpt>
      <trkpt lat="47.86191" lon="-2.84417">
        <ele>120.72</ele>
        <time>2018-01-25T14:03:09Z</time>
      </trkpt>
      <trkpt lat="47.86189" lon="-2.84391">
        <ele>123.93</ele>
        <time>2018-01-25T14:03:21Z</time>
      </trkpt>
      <trkpt lat="47.86184" lon="-2.84377">
        <ele>126.96</ele>
        <time>2018-01-25T14:03:31Z</time>
      </trkpt>
      <trkpt lat="47.86182" lon="-2.84359">
        <ele>130.2</ele>
        <time>2018-01-25T14:03:40Z</time>
      </trkpt>
      <trkpt lat="47.8618" lon="-2.84342">
        <ele>133.23</ele>
        <time>2018-01-25T14:03:50Z</time>
      </trkpt>
      <trkpt lat="47.86174" lon="-2.84324">
        <ele>136.38</ele>
        <time>2018-01-25T14:04:02Z</time>
      </trkpt>
      <trkpt lat="47.86166" lon="-2.84301">
        <ele>139.34</ele>
        <time>2018-01-25T14:04:21Z</time>
      </trkpt>
      <trkpt lat="47.86164" lon="-2.84296">
        <ele>139.57</ele>
        <time>2018-01-25T14:04:24Z</time>
      </trkpt>
      <trkpt lat="47.86157" lon="-2.84286">
        <ele>140.15</ele>
        <time>2018-01-25T14:04:31Z</time>
      </trkpt>
      <trkpt lat="47.86143" lon="-2.84274">
        <ele>140.89</ele>
        <time>2018-01-25T14:04:45Z</time>
      </trkpt>
      <trkpt lat="47.86122" lon="-2.84259">
        <ele>140.95</ele>
        <time>2018-01-25T14:05:05Z</time>
      </trkpt>
      <trkpt lat="47.8611" lon="-2.84239">
        <ele>140.22</ele>
        <time>2018-01-25T14:05:19Z</time>
      </trkpt>
      <trkpt lat="47.861" lon="-2.84203">
        <ele>140.17</ele>
        <time>2018-01-25T14:05:40Z</time>
      </trkpt>
      <trkpt lat="47.86091" lon="-2.84174">
        <ele>140.13</ele>
        <time>2018-01-25T14:05:50Z</time>
      </trkpt>
      <trkpt lat="47.86085" lon="-2.84161">
        <ele>139.96</ele>
        <time>2018-01-25T14:05:56Z</time>
      </trkpt>
      <trkpt lat="47.86079" lon="-2.84153">
        <ele>139.76</ele>
        <time>2018-01-25T14:06:02Z</time>
      </trkpt>
      <trkpt lat="47.86085" lon="-2.84132">
        <ele>140.03</ele>
        <time>2018-01-25T14:06:14Z</time>
      </trkpt>
      <trkpt lat="47.86107" lon="-2.84118">
        <ele>143.04</ele>
        <time>2018-01-25T14:06:30Z</time>
      </trkpt>
      <trkpt lat="47.86135" lon="-2.84108">
        <ele>145.28</ele>
        <time>2018-01-25T14:06:48Z</time>
      </trkpt>
      <trkpt lat="47.86149" lon="-2.84098">
        <ele>146.61</ele>
        <time>2018-01-25T14:07:04Z</time>
      </trkpt>
      <trkpt lat="47.86148" lon="-2.84093">
        <ele>147.08</ele>
        <time>2018-01-25T14:07:08Z</time>
      </trkpt>
      <trkpt lat="47.8615" lon="-2.84086">
        <ele>147.38</ele>
        <time>2018-01-25T14:07:12Z</time>
      </trkpt>
      <trkpt lat="47.86152" lon="-2.84068">
        <ele>148.51</ele>
        <time>2018-01-25T14:07:24Z</time>
      </trkpt>
      <trkpt lat="47.86153" lon="-2.84034">
        <ele>149.33</ele>
        <time>2018-01-25T14:07:38Z</time>
      </trkpt>
      <trkpt lat="47.86152" lon="-2.84007">
        <ele>150.6</ele>
        <time>2018-01-25T14:07:52Z</time>
      </trkpt>
      <trkpt lat="47.86152" lon="-2.8397">
        <ele>152.76</ele>
        <time>2018-01-25T14:08:11Z</time>
      </trkpt>
      <trkpt lat="47.86153" lon="-2.8393">
        <ele>155.71</ele>
        <time>2018-01-25T14:08:31Z</time>
      </trkpt>
      <trkpt lat="47.86157" lon="-2.8389">
        <ele>158.79</ele>
        <time>2018-01-25T14:08:53Z</time>
      </trkpt>
      <trkpt lat="47.86157" lon="-2.8386">
        <ele>160.14</ele>
        <time>2018-01-25T14:09:10Z</time>
      </trkpt>
      <trkpt lat="47.86156" lon="-2.83829">
        <ele>160.34</ele>
        <time>2018-01-25T14:09:24Z</time>
      </trkpt>
      <trkpt lat="47.86156" lon="-2.83799">
        <ele>159.72</ele>
        <time>2018-01-25T14:09:38Z</time>
      </trkpt>
      <trkpt lat="47.86156" lon="-2.83797">
        <ele>159.67</ele>
        <time>2018-01-25T14:09:39Z</time>
      </trkpt>
      <trkpt lat="47.86155" lon="-2.83785">
        <ele>159.42</ele>
        <time>2018-01-25T14:09:45Z</time>
      </trkpt>
      <trkpt lat="47.86155" lon="-2.83768">
        <ele>159.07</ele>
        <time>2018-01-25T14:09:55Z</time>
      </trkpt>
      <trkpt lat="47.86156" lon="-2.83735">
        <ele>157.52</ele>
        <time>2018-01-25T14:10:10Z</time>
      </trkpt>
      <trkpt lat="47.86157" lon="-2.83718">
        <ele>156.41</ele>
        <time>2018-01-25T14:10:18Z</time>
      </trkpt>
      <trkpt lat="47.86147" lon="-2.83693">
        <ele>154.15</ele>
        <time>2018-01-25T14:10:31Z</time>
      </trkpt>
      <trkpt lat="47.86143" lon="-2.83694">
        <ele>153.68</ele>
        <time>2018-01-25T14:10:36Z</time>
      </trkpt>
      <trkpt lat="47.86138" lon="-2.83694">
        <ele>153.8</ele>
        <time>2018-01-25T14:10:39Z</time>
      </trkpt>
      <trkpt lat="47.86125" lon="-2.83696">
        <ele>153.74</ele>
        <time>2018-01-25T14:10:49Z</time>
      </trkpt>
      <trkpt lat="47.8612" lon="-2.83696">
        <ele>153.59</ele>
        <time>2018-01-25T14:10:52Z</time>
      </trkpt>
      <trkpt lat="47.86114" lon="-2.83697">
        <ele>153.38</ele>
        <time>2018-01-25T14:10:56Z</time>
      </trkpt>
      <trkpt lat="47.86091" lon="-2.83704">
        <ele>152.56</ele>
        <time>2018-01-25T14:11:10Z</time>
      </trkpt>
      <trkpt lat="47.86067" lon="-2.83712">
        <ele>151.65</ele>
        <time>2018-01-25T14:11:27Z</time>
      </trkpt>
      <trkpt lat="47.8605" lon="-2.83718">
        <ele>151.09</ele>
        <time>2018-01-25T14:11:39Z</time>
      </trkpt>
      <trkpt lat="47.86024" lon="-2.83731">
        <ele>150.05</ele>
        <time>2018-01-25T14:11:55Z</time>
      </trkpt>
      <trkpt lat="47.86005" lon="-2.83741">
        <ele>149.53</ele>
        <time>2018-01-25T14:12:07Z</time>
      </trkpt>
      <trkpt lat="47.85991" lon="-2.83739">
        <ele>149.65</ele>
        <time>2018-01-25T14:12:18Z</time>
      </trkpt>
      <trkpt lat="47.85985" lon="-2.83724">
        <ele>150.98</ele>
        <time>2018-01-25T14:12:29Z</time>
      </trkpt>
      <trkpt lat="47.85981" lon="-2.8369">
        <ele>152.15</ele>
        <time>2018-01-25T14:12:42Z</time>
      </trkpt>
      <trkpt lat="47.85979" lon="-2.83673">
        <ele>152.38</ele>
        <time>2018-01-25T14:12:50Z</time>
      </trkpt>
      <trkpt lat="47.85977" lon="-2.83658">
        <ele>152.62</ele>
        <time>2018-01-25T14:12:55Z</time>
      </trkpt>
      <trkpt lat="47.85979" lon="-2.83631">
        <ele>153.21</ele>
        <time>2018-01-25T14:13:08Z</time>
      </trkpt>
      <trkpt lat="47.8599" lon="-2.83603">
        <ele>152.78</ele>
        <time>2018-01-25T14:13:28Z</time>
      </trkpt>
      <trkpt lat="47.8601" lon="-2.83581">
        <ele>151.81</ele>
        <time>2018-01-25T14:13:45Z</time>
      </trkpt>
      <trkpt lat="47.86028" lon="-2.83571">
        <ele>151.39</ele>
        <time>2018-01-25T14:14:00Z</time>
      </trkpt>
      <trkpt lat="47.86044" lon="-2.83561">
        <ele>151.36</ele>
        <time>2018-01-25T14:14:16Z</time>
      </trkpt>
      <trkpt lat="47.8605" lon="-2.83539">
        <ele>153.21</ele>
        <time>2018-01-25T14:14:30Z</time>
      </trkpt>
      <trkpt lat="47.86053" lon="-2.83516">
        <ele>155.54</ele>
        <time>2018-01-25T14:14:44Z</time>
      </trkpt>
      <trkpt lat="47.86064" lon="-2.83482">
        <ele>155.69</ele>
        <time>2018-01-25T14:15:05Z</time>
      </trkpt>
      <trkpt lat="47.8608" lon="-2.83463">
        <ele>154.93</ele>
        <time>2018-01-25T14:15:25Z</time>
      </trkpt>
      <trkpt lat="47.86087" lon="-2.83425">
        <ele>152.44</ele>
        <time>2018-01-25T14:15:47Z</time>
      </trkpt>
      <trkpt lat="47.86095" lon="-2.8338">
        <ele>151.58</ele>
        <time>2018-01-25T14:16:08Z</time>
      </trkpt>
      <trkpt lat="47.86095" lon="-2.83378">
        <ele>151.62</ele>
        <time>2018-01-25T14:16:09Z</time>
      </trkpt>
      <trkpt lat="47.86098" lon="-2.83362">
        <ele>151.49</ele>
        <time>2018-01-25T14:16:19Z</time>
      </trkpt>
      <trkpt lat="47.86092" lon="-2.83344">
        <ele>154.62</ele>
        <time>2018-01-25T14:16:33Z</time>
      </trkpt>
      <trkpt lat="47.86089" lon="-2.83317">
        <ele>156.84</ele>
        <time>2018-01-25T14:16:54Z</time>
      </trkpt>
      <trkpt lat="47.86068" lon="-2.83297">
        <ele>157.05</ele>
        <time>2018-01-25T14:17:13Z</time>
      </trkpt>
      <trkpt lat="47.8606" lon="-2.83288">
        <ele>157.16</ele>
        <time>2018-01-25T14:17:17Z</time>
      </trkpt>
      <trkpt lat="47.86047" lon="-2.83277">
        <ele>157.22</ele>
        <time>2018-01-25T14:17:27Z</time>
      </trkpt>
      <trkpt lat="47.86043" lon="-2.83261">
        <ele>156.9</ele>
        <time>2018-01-25T14:17:34Z</time>
      </trkpt>
      <trkpt lat="47.86042" lon="-2.83241">
        <ele>155.84</ele>
        <time>2018-01-25T14:17:43Z</time>
      </trkpt>
      <trkpt lat="47.86039" lon="-2.83224">
        <ele>154.91</ele>
        <time>2018-01-25T14:17:51Z</time>
      </trkpt>
      <trkpt lat="47.86036" lon="-2.83202">
        <ele>154.04</ele>
        <time>2018-01-25T14:17:59Z</time>
      </trkpt>
      <trkpt lat="47.86044" lon="-2.83173">
        <ele>152.72</ele>
        <time>2018-01-25T14:18:12Z</time>
      </trkpt>
      <trkpt lat="47.86046" lon="-2.83154">
        <ele>152.12</ele>
        <time>2018-01-25T14:18:21Z</time>
      </trkpt>
      <trkpt lat="47.86041" lon="-2.83152">
        <ele>151.73</ele>
        <time>2018-01-25T14:18:27Z</time>
      </trkpt>
      <trkpt lat="47.86038" lon="-2.8315">
        <ele>151.55</ele>
        <time>2018-01-25T14:18:29Z</time>
      </trkpt>
      <trkpt lat="47.86036" lon="-2.83139">
        <ele>150.92</ele>
        <time>2018-01-25T14:18:39Z</time>
      </trkpt>
      <trkpt lat="47.86035" lon="-2.83128">
        <ele>150.45</ele>
        <time>2018-01-25T14:18:44Z</time>
      </trkpt>
      <trkpt lat="47.86032" lon="-2.83099">
        <ele>148.94</ele>
        <time>2018-01-25T14:18:58Z</time>
      </trkpt>
      <trkpt lat="47.86034" lon="-2.83062">
        <ele>147.78</ele>
        <time>2018-01-25T14:19:14Z</time>
      </trkpt>
      <trkpt lat="47.86037" lon="-2.83049">
        <ele>147.06</ele>
        <time>2018-01-25T14:19:19Z</time>
      </trkpt>
      <trkpt lat="47.86038" lon="-2.83038">
        <ele>146.6</ele>
        <time>2018-01-25T14:19:23Z</time>
      </trkpt>
      <trkpt lat="47.86039" lon="-2.83027">
        <ele>146.06</ele>
        <time>2018-01-25T14:19:28Z</time>
      </trkpt>
      <trkpt lat="47.8604" lon="-2.83023">
        <ele>145.84</ele>
        <time>2018-01-25T14:19:30Z</time>
      </trkpt>
      <trkpt lat="47.86041" lon="-2.82999">
        <ele>144.55</ele>
        <time>2018-01-25T14:19:41Z</time>
      </trkpt>
      <trkpt lat="47.86048" lon="-2.82969">
        <ele>142.72</ele>
        <time>2018-01-25T14:19:55Z</time>
      </trkpt>
      <trkpt lat="47.86049" lon="-2.82967">
        <ele>142.61</ele>
        <time>2018-01-25T14:19:56Z</time>
      </trkpt>
      <trkpt lat="47.86052" lon="-2.82957">
        <ele>141.99</ele>
        <time>2018-01-25T14:20:01Z</time>
      </trkpt>
      <trkpt lat="47.86056" lon="-2.82938">
        <ele>140.7</ele>
        <time>2018-01-25T14:20:09Z</time>
      </trkpt>
      <trkpt lat="47.8606" lon="-2.82907">
        <ele>139.04</ele>
        <time>2018-01-25T14:20:21Z</time>
      </trkpt>
      <trkpt lat="47.86058" lon="-2.82881">
        <ele>136.29</ele>
        <time>2018-01-25T14:20:36Z</time>
      </trkpt>
      <trkpt lat="47.86056" lon="-2.82874">
        <ele>135.35</ele>
        <time>2018-01-25T14:20:40Z</time>
      </trkpt>
      <trkpt lat="47.86048" lon="-2.82855">
        <ele>131.95</ele>
        <time>2018-01-25T14:20:54Z</time>
      </trkpt>
      <trkpt lat="47.86048" lon="-2.8284">
        <ele>128.71</ele>
        <time>2018-01-25T14:21:04Z</time>
      </trkpt>
      <trkpt lat="47.86044" lon="-2.82828">
        <ele>125.7</ele>
        <time>2018-01-25T14:21:15Z</time>
      </trkpt>
      <trkpt lat="47.86044" lon="-2.82827">
        <ele>125.42</ele>
        <time>2018-01-25T14:21:16Z</time>
      </trkpt>
      <trkpt lat="47.86043" lon="-2.82816">
        <ele>124.11</ele>
        <time>2018-01-25T14:21:20Z</time>
      </trkpt>
      <trkpt lat="47.86045" lon="-2.82801">
        <ele>121.96</ele>
        <time>2018-01-25T14:21:27Z</time>
      </trkpt>
      <trkpt lat="47.86046" lon="-2.82785">
        <ele>120.19</ele>
        <time>2018-01-25T14:21:33Z</time>
      </trkpt>
      <trkpt lat="47.86047" lon="-2.82775">
        <ele>119.07</ele>
        <time>2018-01-25T14:21:37Z</time>
      </trkpt>
      <trkpt lat="47.86048" lon="-2.82765">
        <ele>118.21</ele>
        <time>2018-01-25T14:21:40Z</time>
      </trkpt>
      <trkpt lat="47.86039" lon="-2.82746">
        <ele>115.86</ele>
        <time>2018-01-25T14:21:48Z</time>
      </trkpt>
      <trkpt lat="47.86008" lon="-2.82735">
        <ele>115.17</ele>
        <time>2018-01-25T14:22:04Z</time>
      </trkpt>
      <trkpt lat="47.85977" lon="-2.82717">
        <ele>115.29</ele>
        <time>2018-01-25T14:22:22Z</time>
      </trkpt>
      <trkpt lat="47.85949" lon="-2.82699">
        <ele>115.41</ele>
        <time>2018-01-25T14:22:43Z</time>
      </trkpt>
      <trkpt lat="47.85945" lon="-2.82698">
        <ele>115.45</ele>
        <time>2018-01-25T14:22:47Z</time>
      </trkpt>
      <trkpt lat="47.8594" lon="-2.82694">
        <ele>115.56</ele>
        <time>2018-01-25T14:22:52Z</time>
      </trkpt>
      <trkpt lat="47.85939" lon="-2.82693">
        <ele>115.62</ele>
        <time>2018-01-25T14:22:53Z</time>
      </trkpt>
      <trkpt lat="47.85938" lon="-2.8269">
        <ele>115.67</ele>
        <time>2018-01-25T14:22:54Z</time>
      </trkpt>
      <trkpt lat="47.85938" lon="-2.82655">
        <ele>115.57</ele>
        <time>2018-01-25T14:23:10Z</time>
      </trkpt>
      <trkpt lat="47.85948" lon="-2.82607">
        <ele>113.55</ele>
        <time>2018-01-25T14:23:33Z</time>
      </trkpt>
      <trkpt lat="47.85956" lon="-2.82567">
        <ele>111.36</ele>
        <time>2018-01-25T14:23:50Z</time>
      </trkpt>
      <trkpt lat="47.85954" lon="-2.82523">
        <ele>109.82</ele>
        <time>2018-01-25T14:24:07Z</time>
      </trkpt>
      <trkpt lat="47.8595" lon="-2.82469">
        <ele>108.32</ele>
        <time>2018-01-25T14:24:29Z</time>
      </trkpt>
      <trkpt lat="47.85932" lon="-2.82426">
        <ele>107.75</ele>
        <time>2018-01-25T14:24:51Z</time>
      </trkpt>
      <trkpt lat="47.85906" lon="-2.82408">
        <ele>107.06</ele>
        <time>2018-01-25T14:25:10Z</time>
      </trkpt>
      <trkpt lat="47.85887" lon="-2.82388">
        <ele>106.58</ele>
        <time>2018-01-25T14:25:22Z</time>
      </trkpt>
      <trkpt lat="47.85872" lon="-2.82361">
        <ele>105.41</ele>
        <time>2018-01-25T14:25:37Z</time>
      </trkpt>
      <trkpt lat="47.85852" lon="-2.82333">
        <ele>104.11</ele>
        <time>2018-01-25T14:25:54Z</time>
      </trkpt>
      <trkpt lat="47.85824" lon="-2.82307">
        <ele>102.64</ele>
        <time>2018-01-25T14:26:14Z</time>
      </trkpt>
      <trkpt lat="47.858" lon="-2.82286">
        <ele>102.38</ele>
        <time>2018-01-25T14:26:32Z</time>
      </trkpt>
      <trkpt lat="47.85798" lon="-2.82283">
        <ele>102.37</ele>
        <time>2018-01-25T14:26:34Z</time>
      </trkpt>
      <trkpt lat="47.85796" lon="-2.82275">
        <ele>102.17</ele>
        <time>2018-01-25T14:26:39Z</time>
      </trkpt>
      <trkpt lat="47.85796" lon="-2.82274">
        <ele>102.12</ele>
        <time>2018-01-25T14:26:40Z</time>
      </trkpt>
      <trkpt lat="47.85793" lon="-2.82272">
        <ele>102.08</ele>
        <time>2018-01-25T14:26:41Z</time>
      </trkpt>
      <trkpt lat="47.85789" lon="-2.82271">
        <ele>102.04</ele>
        <time>2018-01-25T14:26:42Z</time>
      </trkpt>
      <trkpt lat="47.85788" lon="-2.82268">
        <ele>101.99</ele>
        <time>2018-01-25T14:26:43Z</time>
      </trkpt>
      <trkpt lat="47.85787" lon="-2.82265">
        <ele>101.91</ele>
        <time>2018-01-25T14:26:44Z</time>
      </trkpt>
      <trkpt lat="47.85785" lon="-2.82263">
        <ele>101.83</ele>
        <time>2018-01-25T14:26:45Z</time>
      </trkpt>
      <trkpt lat="47.85784" lon="-2.82261">
        <ele>101.76</ele>
        <time>2018-01-25T14:26:46Z</time>
      </trkpt>
      <trkpt lat="47.85752" lon="-2.82244">
        <ele>100.88</ele>
        <time>2018-01-25T14:27:04Z</time>
      </trkpt>
      <trkpt lat="47.85716" lon="-2.82219">
        <ele>98.95</ele>
        <time>2018-01-25T14:27:27Z</time>
      </trkpt>
      <trkpt lat="47.85707" lon="-2.82187">
        <ele>98.24</ele>
        <time>2018-01-25T14:27:42Z</time>
      </trkpt>
      <trkpt lat="47.85725" lon="-2.82174">
        <ele>99.09</ele>
        <time>2018-01-25T14:27:56Z</time>
      </trkpt>
      <trkpt lat="47.85749" lon="-2.82188">
        <ele>101.73</ele>
        <time>2018-01-25T14:28:12Z</time>
      </trkpt>
      <trkpt lat="47.85768" lon="-2.82208">
        <ele>103.78</ele>
        <time>2018-01-25T14:28:26Z</time>
      </trkpt>
      <trkpt lat="47.85788" lon="-2.82224">
        <ele>105.67</ele>
        <time>2018-01-25T14:28:40Z</time>
      </trkpt>
      <trkpt lat="47.85804" lon="-2.82221">
        <ele>107.67</ele>
        <time>2018-01-25T14:28:53Z</time>
      </trkpt>
      <trkpt lat="47.85804" lon="-2.8222">
        <ele>107.84</ele>
        <time>2018-01-25T14:28:54Z</time>
      </trkpt>
      <trkpt lat="47.85812" lon="-2.82191">
        <ele>110.55</ele>
        <time>2018-01-25T14:29:10Z</time>
      </trkpt>
      <trkpt lat="47.85815" lon="-2.8215">
        <ele>111.86</ele>
        <time>2018-01-25T14:29:28Z</time>
      </trkpt>
      <trkpt lat="47.85837" lon="-2.82137">
        <ele>113.6</ele>
        <time>2018-01-25T14:29:43Z</time>
      </trkpt>
      <trkpt lat="47.85854" lon="-2.82134">
        <ele>116.45</ele>
        <time>2018-01-25T14:29:56Z</time>
      </trkpt>
      <trkpt lat="47.85867" lon="-2.82134">
        <ele>118.26</ele>
        <time>2018-01-25T14:30:08Z</time>
      </trkpt>
      <trkpt lat="47.85869" lon="-2.82133">
        <ele>118.4</ele>
        <time>2018-01-25T14:30:09Z</time>
      </trkpt>
      <trkpt lat="47.85878" lon="-2.82105">
        <ele>120.96</ele>
        <time>2018-01-25T14:30:24Z</time>
      </trkpt>
      <trkpt lat="47.85879" lon="-2.82096">
        <ele>121.74</ele>
        <time>2018-01-25T14:30:30Z</time>
      </trkpt>
      <trkpt lat="47.8588" lon="-2.82093">
        <ele>122.01</ele>
        <time>2018-01-25T14:30:32Z</time>
      </trkpt>
      <trkpt lat="47.8588" lon="-2.82091">
        <ele>122.12</ele>
        <time>2018-01-25T14:30:33Z</time>
      </trkpt>
      <trkpt lat="47.85881" lon="-2.8209">
        <ele>122.23</ele>
        <time>2018-01-25T14:30:34Z</time>
      </trkpt>
      <trkpt lat="47.85882" lon="-2.82089">
        <ele>122.33</ele>
        <time>2018-01-25T14:30:35Z</time>
      </trkpt>
      <trkpt lat="47.85883" lon="-2.82088">
        <ele>122.43</ele>
        <time>2018-01-25T14:30:36Z</time>
      </trkpt>
      <trkpt lat="47.85902" lon="-2.82078">
        <ele>124.16</ele>
        <time>2018-01-25T14:30:50Z</time>
      </trkpt>
      <trkpt lat="47.8592" lon="-2.82072">
        <ele>125.25</ele>
        <time>2018-01-25T14:31:04Z</time>
      </trkpt>
      <trkpt lat="47.85939" lon="-2.82065">
        <ele>125.31</ele>
        <time>2018-01-25T14:31:20Z</time>
      </trkpt>
      <trkpt lat="47.85946" lon="-2.82054">
        <ele>125.32</ele>
        <time>2018-01-25T14:31:28Z</time>
      </trkpt>
      <trkpt lat="47.85961" lon="-2.82027">
        <ele>127.69</ele>
        <time>2018-01-25T14:31:41Z</time>
      </trkpt>
      <trkpt lat="47.85962" lon="-2.82025">
        <ele>127.9</ele>
        <time>2018-01-25T14:31:42Z</time>
      </trkpt>
      <trkpt lat="47.85963" lon="-2.82022">
        <ele>128.12</ele>
        <time>2018-01-25T14:31:43Z</time>
      </trkpt>
      <trkpt lat="47.85964" lon="-2.8202">
        <ele>128.35</ele>
        <time>2018-01-25T14:31:44Z</time>
      </trkpt>
      <trkpt lat="47.85964" lon="-2.82017">
        <ele>128.55</ele>
        <time>2018-01-25T14:31:45Z</time>
      </trkpt>
      <trkpt lat="47.85964" lon="-2.82015">
        <ele>128.77</ele>
        <time>2018-01-25T14:31:46Z</time>
      </trkpt>
      <trkpt lat="47.85965" lon="-2.81995">
        <ele>131.98</ele>
        <time>2018-01-25T14:31:57Z</time>
      </trkpt>
      <trkpt lat="47.85968" lon="-2.81991">
        <ele>133.07</ele>
        <time>2018-01-25T14:32:02Z</time>
      </trkpt>
      <trkpt lat="47.85971" lon="-2.81984">
        <ele>133.41</ele>
        <time>2018-01-25T14:32:04Z</time>
      </trkpt>
      <trkpt lat="47.85974" lon="-2.8198">
        <ele>133.69</ele>
        <time>2018-01-25T14:32:05Z</time>
      </trkpt>
      <trkpt lat="47.85981" lon="-2.81965">
        <ele>134.25</ele>
        <time>2018-01-25T14:32:09Z</time>
      </trkpt>
      <trkpt lat="47.85983" lon="-2.81961">
        <ele>134.49</ele>
        <time>2018-01-25T14:32:10Z</time>
      </trkpt>
      <trkpt lat="47.85997" lon="-2.81938">
        <ele>136.58</ele>
        <time>2018-01-25T14:32:16Z</time>
      </trkpt>
      <trkpt lat="47.86015" lon="-2.81914">
        <ele>139.66</ele>
        <time>2018-01-25T14:32:21Z</time>
      </trkpt>
      <trkpt lat="47.86027" lon="-2.81899">
        <ele>142.52</ele>
        <time>2018-01-25T14:32:25Z</time>
      </trkpt>
      <trkpt lat="47.86038" lon="-2.81888">
        <ele>145.14</ele>
        <time>2018-01-25T14:32:29Z</time>
      </trkpt>
      <trkpt lat="47.8605" lon="-2.8187">
        <ele>149.23</ele>
        <time>2018-01-25T14:32:38Z</time>
      </trkpt>
      <trkpt lat="47.86056" lon="-2.81862">
        <ele>149.51</ele>
        <time>2018-01-25T14:32:44Z</time>
      </trkpt>
      <trkpt lat="47.86062" lon="-2.81871">
        <ele>146.2</ele>
        <time>2018-01-25T14:32:56Z</time>
      </trkpt>
      <trkpt lat="47.86067" lon="-2.81876">
        <ele>143.08</ele>
        <time>2018-01-25T14:33:06Z</time>
      </trkpt>
      <trkpt lat="47.86076" lon="-2.81882">
        <ele>139.81</ele>
        <time>2018-01-25T14:33:16Z</time>
      </trkpt>
      <trkpt lat="47.86085" lon="-2.8189">
        <ele>137.59</ele>
        <time>2018-01-25T14:33:23Z</time>
      </trkpt>
      <trkpt lat="47.86093" lon="-2.81898">
        <ele>135.84</ele>
        <time>2018-01-25T14:33:28Z</time>
      </trkpt>
      <trkpt lat="47.86102" lon="-2.819">
        <ele>133.54</ele>
        <time>2018-01-25T14:33:41Z</time>
      </trkpt>
      <trkpt lat="47.86104" lon="-2.81899">
        <ele>133.33</ele>
        <time>2018-01-25T14:33:43Z</time>
      </trkpt>
      <trkpt lat="47.86114" lon="-2.81867">
        <ele>135.37</ele>
        <time>2018-01-25T14:33:52Z</time>
      </trkpt>
      <trkpt lat="47.86115" lon="-2.81861">
        <ele>139.14</ele>
        <time>2018-01-25T14:33:57Z</time>
      </trkpt>
      <trkpt lat="47.8612" lon="-2.8185">
        <ele>142.28</ele>
        <time>2018-01-25T14:34:06Z</time>
      </trkpt>
      <trkpt lat="47.86127" lon="-2.81839">
        <ele>142.75</ele>
        <time>2018-01-25T14:34:18Z</time>
      </trkpt>
      <trkpt lat="47.8614" lon="-2.81827">
        <ele>142.32</ele>
        <time>2018-01-25T14:34:31Z</time>
      </trkpt>
      <trkpt lat="47.86149" lon="-2.81797">
        <ele>141.4</ele>
        <time>2018-01-25T14:34:41Z</time>
      </trkpt>
      <trkpt lat="47.86149" lon="-2.81785">
        <ele>145.02</ele>
        <time>2018-01-25T14:34:46Z</time>
      </trkpt>
      <trkpt lat="47.86151" lon="-2.81778">
        <ele>148.34</ele>
        <time>2018-01-25T14:34:50Z</time>
      </trkpt>
      <trkpt lat="47.86151" lon="-2.81771">
        <ele>151.54</ele>
        <time>2018-01-25T14:34:56Z</time>
      </trkpt>
      <trkpt lat="47.86152" lon="-2.81769">
        <ele>152.47</ele>
        <time>2018-01-25T14:34:58Z</time>
      </trkpt>
      <trkpt lat="47.86163" lon="-2.81753">
        <ele>151.92</ele>
        <time>2018-01-25T14:35:08Z</time>
      </trkpt>
      <trkpt lat="47.86173" lon="-2.81733">
        <ele>150.71</ele>
        <time>2018-01-25T14:35:18Z</time>
      </trkpt>
      <trkpt lat="47.86175" lon="-2.81715">
        <ele>152.87</ele>
        <time>2018-01-25T14:35:25Z</time>
      </trkpt>
      <trkpt lat="47.86184" lon="-2.81693">
        <ele>155.71</ele>
        <time>2018-01-25T14:35:32Z</time>
      </trkpt>
      <trkpt lat="47.86184" lon="-2.81685">
        <ele>156.27</ele>
        <time>2018-01-25T14:35:34Z</time>
      </trkpt>
      <trkpt lat="47.8618" lon="-2.81666">
        <ele>157.14</ele>
        <time>2018-01-25T14:35:38Z</time>
      </trkpt>
      <trkpt lat="47.86158" lon="-2.81648">
        <ele>158.55</ele>
        <time>2018-01-25T14:35:45Z</time>
      </trkpt>
      <trkpt lat="47.86121" lon="-2.81622">
        <ele>160.87</ele>
        <time>2018-01-25T14:35:57Z</time>
      </trkpt>
      <trkpt lat="47.86114" lon="-2.81619">
        <ele>161.2</ele>
        <time>2018-01-25T14:36:01Z</time>
      </trkpt>
      <trkpt lat="47.86098" lon="-2.81592">
        <ele>161.94</ele>
        <time>2018-01-25T14:36:12Z</time>
      </trkpt>
      <trkpt lat="47.86093" lon="-2.81576">
        <ele>162.06</ele>
        <time>2018-01-25T14:36:16Z</time>
      </trkpt>
      <trkpt lat="47.86097" lon="-2.81564">
        <ele>162.07</ele>
        <time>2018-01-25T14:36:19Z</time>
      </trkpt>
      <trkpt lat="47.8611" lon="-2.81518">
        <ele>162.26</ele>
        <time>2018-01-25T14:36:25Z</time>
      </trkpt>
      <trkpt lat="47.86123" lon="-2.81464">
        <ele>162.78</ele>
        <time>2018-01-25T14:36:34Z</time>
      </trkpt>
      <trkpt lat="47.86128" lon="-2.81463">
        <ele>162.79</ele>
        <time>2018-01-25T14:36:35Z</time>
      </trkpt>
      <trkpt lat="47.86132" lon="-2.81463">
        <ele>162.77</ele>
        <time>2018-01-25T14:36:36Z</time>
      </trkpt>
      <trkpt lat="47.86137" lon="-2.81463">
        <ele>162.74</ele>
        <time>2018-01-25T14:36:37Z</time>
      </trkpt>
      <trkpt lat="47.86141" lon="-2.81462">
        <ele>162.68</ele>
        <time>2018-01-25T14:36:38Z</time>
      </trkpt>
      <trkpt lat="47.86193" lon="-2.81475">
        <ele>163.17</ele>
        <time>2018-01-25T14:36:48Z</time>
      </trkpt>
      <trkpt lat="47.86215" lon="-2.81475">
        <ele>163.38</ele>
        <time>2018-01-25T14:36:58Z</time>
      </trkpt>
      <trkpt lat="47.86218" lon="-2.81466">
        <ele>163.39</ele>
        <time>2018-01-25T14:37:04Z</time>
      </trkpt>
      <trkpt lat="47.86229" lon="-2.81432">
        <ele>161.69</ele>
        <time>2018-01-25T14:37:23Z</time>
      </trkpt>
      <trkpt lat="47.86245" lon="-2.81413">
        <ele>159.21</ele>
        <time>2018-01-25T14:37:39Z</time>
      </trkpt>
      <trkpt lat="47.86275" lon="-2.81419">
        <ele>156.75</ele>
        <time>2018-01-25T14:37:59Z</time>
      </trkpt>
      <trkpt lat="47.86289" lon="-2.81413">
        <ele>153.63</ele>
        <time>2018-01-25T14:38:12Z</time>
      </trkpt>
      <trkpt lat="47.86302" lon="-2.81409">
        <ele>150.56</ele>
        <time>2018-01-25T14:38:23Z</time>
      </trkpt>
      <trkpt lat="47.86308" lon="-2.81401">
        <ele>148.58</ele>
        <time>2018-01-25T14:38:32Z</time>
      </trkpt>
      <trkpt lat="47.86306" lon="-2.81389">
        <ele>145.2</ele>
        <time>2018-01-25T14:38:42Z</time>
      </trkpt>
      <trkpt lat="47.86299" lon="-2.8137">
        <ele>142.11</ele>
        <time>2018-01-25T14:38:52Z</time>
      </trkpt>
      <trkpt lat="47.86291" lon="-2.81355">
        <ele>138.96</ele>
        <time>2018-01-25T14:39:04Z</time>
      </trkpt>
      <trkpt lat="47.86286" lon="-2.81349">
        <ele>138.39</ele>
        <time>2018-01-25T14:39:08Z</time>
      </trkpt>
      <trkpt lat="47.86278" lon="-2.81328">
        <ele>135.79</ele>
        <time>2018-01-25T14:39:24Z</time>
      </trkpt>
      <trkpt lat="47.86278" lon="-2.81321">
        <ele>135.17</ele>
        <time>2018-01-25T14:39:27Z</time>
      </trkpt>
      <trkpt lat="47.86279" lon="-2.81292">
        <ele>131.78</ele>
        <time>2018-01-25T14:39:40Z</time>
      </trkpt>
      <trkpt lat="47.86278" lon="-2.81289">
        <ele>131.48</ele>
        <time>2018-01-25T14:39:41Z</time>
      </trkpt>
      <trkpt lat="47.86281" lon="-2.81274">
        <ele>129.52</ele>
        <time>2018-01-25T14:39:49Z</time>
      </trkpt>
      <trkpt lat="47.86285" lon="-2.81245">
        <ele>126.66</ele>
        <time>2018-01-25T14:40:03Z</time>
      </trkpt>
      <trkpt lat="47.86287" lon="-2.8123">
        <ele>125.32</ele>
        <time>2018-01-25T14:40:10Z</time>
      </trkpt>
      <trkpt lat="47.86289" lon="-2.81198">
        <ele>122.31</ele>
        <time>2018-01-25T14:40:24Z</time>
      </trkpt>
      <trkpt lat="47.86294" lon="-2.81184">
        <ele>119.07</ele>
        <time>2018-01-25T14:40:37Z</time>
      </trkpt>
      <trkpt lat="47.86307" lon="-2.81174">
        <ele>115.98</ele>
        <time>2018-01-25T14:40:50Z</time>
      </trkpt>
      <trkpt lat="47.86316" lon="-2.81173">
        <ele>114.97</ele>
        <time>2018-01-25T14:40:57Z</time>
      </trkpt>
      <trkpt lat="47.86326" lon="-2.81176">
        <ele>114.45</ele>
        <time>2018-01-25T14:41:03Z</time>
      </trkpt>
      <trkpt lat="47.86332" lon="-2.81177">
        <ele>114.16</ele>
        <time>2018-01-25T14:41:07Z</time>
      </trkpt>
      <trkpt lat="47.86342" lon="-2.81163">
        <ele>111.95</ele>
        <time>2018-01-25T14:41:21Z</time>
      </trkpt>
      <trkpt lat="47.8634" lon="-2.81162">
        <ele>111.68</ele>
        <time>2018-01-25T14:41:23Z</time>
      </trkpt>
      <trkpt lat="47.86333" lon="-2.81161">
        <ele>110.45</ele>
        <time>2018-01-25T14:41:36Z</time>
      </trkpt>
      <trkpt lat="47.86317" lon="-2.81155">
        <ele>109.01</ele>
        <time>2018-01-25T14:41:55Z</time>
      </trkpt>
      <trkpt lat="47.86303" lon="-2.81147">
        <ele>108.45</ele>
        <time>2018-01-25T14:42:05Z</time>
      </trkpt>
      <trkpt lat="47.86303" lon="-2.81141">
        <ele>108.32</ele>
        <time>2018-01-25T14:42:08Z</time>
      </trkpt>
      <trkpt lat="47.86313" lon="-2.81135">
        <ele>107.84</ele>
        <time>2018-01-25T14:42:18Z</time>
      </trkpt>
      <trkpt lat="47.86326" lon="-2.81136">
        <ele>107.84</ele>
        <time>2018-01-25T14:42:31Z</time>
      </trkpt>
      <trkpt lat="47.86341" lon="-2.81138">
        <ele>108.38</ele>
        <time>2018-01-25T14:42:44Z</time>
      </trkpt>
      <trkpt lat="47.86351" lon="-2.81139">
        <ele>108.74</ele>
        <time>2018-01-25T14:42:52Z</time>
      </trkpt>
      <trkpt lat="47.86353" lon="-2.81123">
        <ele>108.99</ele>
        <time>2018-01-25T14:42:58Z</time>
      </trkpt>
      <trkpt lat="47.86342" lon="-2.81103">
        <ele>108.62</ele>
        <time>2018-01-25T14:43:12Z</time>
      </trkpt>
      <trkpt lat="47.86338" lon="-2.81093">
        <ele>108.45</ele>
        <time>2018-01-25T14:43:23Z</time>
      </trkpt>
      <trkpt lat="47.8632" lon="-2.81082">
        <ele>106.64</ele>
        <time>2018-01-25T14:43:34Z</time>
      </trkpt>
      <trkpt lat="47.86304" lon="-2.8107">
        <ele>104.62</ele>
        <time>2018-01-25T14:43:46Z</time>
      </trkpt>
      <trkpt lat="47.86303" lon="-2.81069">
        <ele>104.53</ele>
        <time>2018-01-25T14:43:47Z</time>
      </trkpt>
      <trkpt lat="47.86303" lon="-2.81067">
        <ele>104.45</ele>
        <time>2018-01-25T14:43:48Z</time>
      </trkpt>
      <trkpt lat="47.86294" lon="-2.81054">
        <ele>103.84</ele>
        <time>2018-01-25T14:43:57Z</time>
      </trkpt>
      <trkpt lat="47.86293" lon="-2.81051">
        <ele>103.79</ele>
        <time>2018-01-25T14:43:58Z</time>
      </trkpt>
      <trkpt lat="47.86291" lon="-2.81049">
        <ele>103.75</ele>
        <time>2018-01-25T14:43:59Z</time>
      </trkpt>
      <trkpt lat="47.8629" lon="-2.81047">
        <ele>103.69</ele>
        <time>2018-01-25T14:44:00Z</time>
      </trkpt>
      <trkpt lat="47.86288" lon="-2.81046">
        <ele>103.63</ele>
        <time>2018-01-25T14:44:01Z</time>
      </trkpt>
      <trkpt lat="47.86285" lon="-2.8104">
        <ele>103.42</ele>
        <time>2018-01-25T14:44:06Z</time>
      </trkpt>
      <trkpt lat="47.86284" lon="-2.81039">
        <ele>103.39</ele>
        <time>2018-01-25T14:44:07Z</time>
      </trkpt>
      <trkpt lat="47.86278" lon="-2.81031">
        <ele>103.16</ele>
        <time>2018-01-25T14:44:12Z</time>
      </trkpt>
      <trkpt lat="47.86261" lon="-2.81011">
        <ele>102.65</ele>
        <time>2018-01-25T14:44:26Z</time>
      </trkpt>
      <trkpt lat="47.86254" lon="-2.80998">
        <ele>101.95</ele>
        <time>2018-01-25T14:44:34Z</time>
      </trkpt>
      <trkpt lat="47.86254" lon="-2.80996">
        <ele>101.88</ele>
        <time>2018-01-25T14:44:35Z</time>
      </trkpt>
      <trkpt lat="47.86238" lon="-2.80973">
        <ele>100.84</ele>
        <time>2018-01-25T14:44:50Z</time>
      </trkpt>
      <trkpt lat="47.86224" lon="-2.80951">
        <ele>100.07</ele>
        <time>2018-01-25T14:45:02Z</time>
      </trkpt>
      <trkpt lat="47.86223" lon="-2.80949">
        <ele>100.01</ele>
        <time>2018-01-25T14:45:03Z</time>
      </trkpt>
      <trkpt lat="47.86222" lon="-2.80947">
        <ele>99.94</ele>
        <time>2018-01-25T14:45:04Z</time>
      </trkpt>
      <trkpt lat="47.8622" lon="-2.80945">
        <ele>99.84</ele>
        <time>2018-01-25T14:45:05Z</time>
      </trkpt>
      <trkpt lat="47.86219" lon="-2.80943">
        <ele>99.76</ele>
        <time>2018-01-25T14:45:06Z</time>
      </trkpt>
      <trkpt lat="47.86206" lon="-2.80915">
        <ele>98.96</ele>
        <time>2018-01-25T14:45:20Z</time>
      </trkpt>
      <trkpt lat="47.86204" lon="-2.80914">
        <ele>98.91</ele>
        <time>2018-01-25T14:45:21Z</time>
      </trkpt>
      <trkpt lat="47.86204" lon="-2.80913">
        <ele>98.86</ele>
        <time>2018-01-25T14:45:22Z</time>
      </trkpt>
      <trkpt lat="47.86192" lon="-2.8089">
        <ele>98.52</ele>
        <time>2018-01-25T14:45:37Z</time>
      </trkpt>
      <trkpt lat="47.86189" lon="-2.80882">
        <ele>98.47</ele>
        <time>2018-01-25T14:45:42Z</time>
      </trkpt>
      <trkpt lat="47.86188" lon="-2.8088">
        <ele>98.45</ele>
        <time>2018-01-25T14:45:43Z</time>
      </trkpt>
      <trkpt lat="47.86188" lon="-2.80879">
        <ele>98.44</ele>
        <time>2018-01-25T14:45:44Z</time>
      </trkpt>
      <trkpt lat="47.86178" lon="-2.80846">
        <ele>98.22</ele>
        <time>2018-01-25T14:46:03Z</time>
      </trkpt>
      <trkpt lat="47.86171" lon="-2.80833">
        <ele>97.28</ele>
        <time>2018-01-25T14:46:10Z</time>
      </trkpt>
      <trkpt lat="47.86169" lon="-2.80828">
        <ele>96.98</ele>
        <time>2018-01-25T14:46:12Z</time>
      </trkpt>
      <trkpt lat="47.86164" lon="-2.8082">
        <ele>96.53</ele>
        <time>2018-01-25T14:46:16Z</time>
      </trkpt>
      <trkpt lat="47.86163" lon="-2.80818">
        <ele>96.47</ele>
        <time>2018-01-25T14:46:17Z</time>
      </trkpt>
      <trkpt lat="47.86157" lon="-2.80807">
        <ele>96.19</ele>
        <time>2018-01-25T14:46:24Z</time>
      </trkpt>
      <trkpt lat="47.86148" lon="-2.80787">
        <ele>95.18</ele>
        <time>2018-01-25T14:46:36Z</time>
      </trkpt>
      <trkpt lat="47.86138" lon="-2.80762">
        <ele>93.77</ele>
        <time>2018-01-25T14:46:49Z</time>
      </trkpt>
      <trkpt lat="47.8612" lon="-2.80732">
        <ele>93.64</ele>
        <time>2018-01-25T14:47:01Z</time>
      </trkpt>
      <trkpt lat="47.86097" lon="-2.80706">
        <ele>92.75</ele>
        <time>2018-01-25T14:47:14Z</time>
      </trkpt>
      <trkpt lat="47.86095" lon="-2.80703">
        <ele>92.58</ele>
        <time>2018-01-25T14:47:16Z</time>
      </trkpt>
      <trkpt lat="47.86086" lon="-2.80685">
        <ele>91.7</ele>
        <time>2018-01-25T14:47:24Z</time>
      </trkpt>
      <trkpt lat="47.86073" lon="-2.80675">
        <ele>91.01</ele>
        <time>2018-01-25T14:47:35Z</time>
      </trkpt>
      <trkpt lat="47.86047" lon="-2.80666">
        <ele>90.29</ele>
        <time>2018-01-25T14:47:48Z</time>
      </trkpt>
      <trkpt lat="47.86026" lon="-2.80664">
        <ele>89.59</ele>
        <time>2018-01-25T14:48:02Z</time>
      </trkpt>
      <trkpt lat="47.86008" lon="-2.80667">
        <ele>89.17</ele>
        <time>2018-01-25T14:48:13Z</time>
      </trkpt>
      <trkpt lat="47.85984" lon="-2.80672">
        <ele>88.95</ele>
        <time>2018-01-25T14:48:26Z</time>
      </trkpt>
      <trkpt lat="47.85971" lon="-2.80684">
        <ele>88.32</ele>
        <time>2018-01-25T14:48:35Z</time>
      </trkpt>
      <trkpt lat="47.85946" lon="-2.80687">
        <ele>87.51</ele>
        <time>2018-01-25T14:48:50Z</time>
      </trkpt>
      <trkpt lat="47.85921" lon="-2.80689">
        <ele>87.38</ele>
        <time>2018-01-25T14:49:04Z</time>
      </trkpt>
      <trkpt lat="47.85894" lon="-2.80687">
        <ele>86.68</ele>
        <time>2018-01-25T14:49:21Z</time>
      </trkpt>
      <trkpt lat="47.85871" lon="-2.80682">
        <ele>86.64</ele>
        <time>2018-01-25T14:49:33Z</time>
      </trkpt>
      <trkpt lat="47.85839" lon="-2.80678">
        <ele>86.7</ele>
        <time>2018-01-25T14:49:49Z</time>
      </trkpt>
      <trkpt lat="47.85811" lon="-2.80667">
        <ele>86.46</ele>
        <time>2018-01-25T14:50:05Z</time>
      </trkpt>
      <trkpt lat="47.85787" lon="-2.80654">
        <ele>86.16</ele>
        <time>2018-01-25T14:50:21Z</time>
      </trkpt>
      <trkpt lat="47.85763" lon="-2.80654">
        <ele>85.73</ele>
        <time>2018-01-25T14:50:34Z</time>
      </trkpt>
      <trkpt lat="47.85734" lon="-2.8065">
        <ele>85.98</ele>
        <time>2018-01-25T14:50:50Z</time>
      </trkpt>
      <trkpt lat="47.8571" lon="-2.8065">
        <ele>86.89</ele>
        <time>2018-01-25T14:51:05Z</time>
      </trkpt>
      <trkpt lat="47.85687" lon="-2.80642">
        <ele>88.39</ele>
        <time>2018-01-25T14:51:19Z</time>
      </trkpt>
      <trkpt lat="47.85663" lon="-2.80634">
        <ele>89.84</ele>
        <time>2018-01-25T14:51:35Z</time>
      </trkpt>
      <trkpt lat="47.85639" lon="-2.80628">
        <ele>90.44</ele>
        <time>2018-01-25T14:51:49Z</time>
      </trkpt>
      <trkpt lat="47.85613" lon="-2.80615">
        <ele>91</ele>
        <time>2018-01-25T14:52:04Z</time>
      </trkpt>
      <trkpt lat="47.85593" lon="-2.80597">
        <ele>91.18</ele>
        <time>2018-01-25T14:52:18Z</time>
      </trkpt>
      <trkpt lat="47.85585" lon="-2.80592">
        <ele>91.46</ele>
        <time>2018-01-25T14:52:24Z</time>
      </trkpt>
      <trkpt lat="47.85577" lon="-2.80587">
        <ele>91.54</ele>
        <time>2018-01-25T14:52:31Z</time>
      </trkpt>
      <trkpt lat="47.85576" lon="-2.80586">
        <ele>91.52</ele>
        <time>2018-01-25T14:52:32Z</time>
      </trkpt>
      <trkpt lat="47.85574" lon="-2.80584">
        <ele>91.49</ele>
        <time>2018-01-25T14:52:33Z</time>
      </trkpt>
      <trkpt lat="47.85572" lon="-2.80582">
        <ele>91.47</ele>
        <time>2018-01-25T14:52:34Z</time>
      </trkpt>
      <trkpt lat="47.85555" lon="-2.80565">
        <ele>91.05</ele>
        <time>2018-01-25T14:52:45Z</time>
      </trkpt>
      <trkpt lat="47.85548" lon="-2.80557">
        <ele>90.91</ele>
        <time>2018-01-25T14:52:50Z</time>
      </trkpt>
      <trkpt lat="47.85547" lon="-2.80555">
        <ele>90.88</ele>
        <time>2018-01-25T14:52:51Z</time>
      </trkpt>
      <trkpt lat="47.85528" lon="-2.80546">
        <ele>90.43</ele>
        <time>2018-01-25T14:53:04Z</time>
      </trkpt>
      <trkpt lat="47.85496" lon="-2.80525">
        <ele>89.85</ele>
        <time>2018-01-25T14:53:19Z</time>
      </trkpt>
      <trkpt lat="47.85476" lon="-2.80509">
        <ele>89.87</ele>
        <time>2018-01-25T14:53:32Z</time>
      </trkpt>
      <trkpt lat="47.85474" lon="-2.80507">
        <ele>89.9</ele>
        <time>2018-01-25T14:53:33Z</time>
      </trkpt>
      <trkpt lat="47.85472" lon="-2.80506">
        <ele>89.92</ele>
        <time>2018-01-25T14:53:34Z</time>
      </trkpt>
      <trkpt lat="47.85442" lon="-2.8049">
        <ele>90.5</ele>
        <time>2018-01-25T14:53:51Z</time>
      </trkpt>
      <trkpt lat="47.85422" lon="-2.80488">
        <ele>92.46</ele>
        <time>2018-01-25T14:54:05Z</time>
      </trkpt>
      <trkpt lat="47.85405" lon="-2.80478">
        <ele>95.08</ele>
        <time>2018-01-25T14:54:19Z</time>
      </trkpt>
      <trkpt lat="47.85399" lon="-2.8045">
        <ele>96.97</ele>
        <time>2018-01-25T14:54:32Z</time>
      </trkpt>
      <trkpt lat="47.85401" lon="-2.80408">
        <ele>100.04</ele>
        <time>2018-01-25T14:54:49Z</time>
      </trkpt>
      <trkpt lat="47.85405" lon="-2.80369">
        <ele>102.95</ele>
        <time>2018-01-25T14:55:07Z</time>
      </trkpt>
      <trkpt lat="47.85407" lon="-2.80334">
        <ele>105.12</ele>
        <time>2018-01-25T14:55:24Z</time>
      </trkpt>
      <trkpt lat="47.85392" lon="-2.80304">
        <ele>107.56</ele>
        <time>2018-01-25T14:55:42Z</time>
      </trkpt>
      <trkpt lat="47.85363" lon="-2.8028">
        <ele>107.09</ele>
        <time>2018-01-25T14:56:03Z</time>
      </trkpt>
      <trkpt lat="47.85337" lon="-2.80251">
        <ele>105.39</ele>
        <time>2018-01-25T14:56:23Z</time>
      </trkpt>
      <trkpt lat="47.85315" lon="-2.8022">
        <ele>103.01</ele>
        <time>2018-01-25T14:56:40Z</time>
      </trkpt>
      <trkpt lat="47.85289" lon="-2.80179">
        <ele>100.46</ele>
        <time>2018-01-25T14:57:01Z</time>
      </trkpt>
      <trkpt lat="47.85277" lon="-2.80134">
        <ele>98.74</ele>
        <time>2018-01-25T14:57:21Z</time>
      </trkpt>
      <trkpt lat="47.85268" lon="-2.80081">
        <ele>97.47</ele>
        <time>2018-01-25T14:57:41Z</time>
      </trkpt>
      <trkpt lat="47.8526" lon="-2.8003">
        <ele>96.7</ele>
        <time>2018-01-25T14:58:00Z</time>
      </trkpt>
      <trkpt lat="47.85258" lon="-2.79989">
        <ele>96.27</ele>
        <time>2018-01-25T14:58:16Z</time>
      </trkpt>
      <trkpt lat="47.85264" lon="-2.79938">
        <ele>96.59</ele>
        <time>2018-01-25T14:58:36Z</time>
      </trkpt>
      <trkpt lat="47.85268" lon="-2.7989">
        <ele>97.86</ele>
        <time>2018-01-25T14:58:55Z</time>
      </trkpt>
      <trkpt lat="47.85273" lon="-2.79851">
        <ele>98.77</ele>
        <time>2018-01-25T14:59:12Z</time>
      </trkpt>
      <trkpt lat="47.85275" lon="-2.79812">
        <ele>99.81</ele>
        <time>2018-01-25T14:59:28Z</time>
      </trkpt>
      <trkpt lat="47.85275" lon="-2.79775">
        <ele>100.63</ele>
        <time>2018-01-25T14:59:43Z</time>
      </trkpt>
      <trkpt lat="47.85275" lon="-2.79772">
        <ele>100.66</ele>
        <time>2018-01-25T14:59:44Z</time>
      </trkpt>
      <trkpt lat="47.85275" lon="-2.79768">
        <ele>100.71</ele>
        <time>2018-01-25T14:59:46Z</time>
      </trkpt>
      <trkpt lat="47.85273" lon="-2.79734">
        <ele>101.48</ele>
        <time>2018-01-25T15:00:01Z</time>
      </trkpt>
      <trkpt lat="47.85271" lon="-2.79702">
        <ele>102.53</ele>
        <time>2018-01-25T15:00:15Z</time>
      </trkpt>
      <trkpt lat="47.85272" lon="-2.79662">
        <ele>103.26</ele>
        <time>2018-01-25T15:00:29Z</time>
      </trkpt>
      <trkpt lat="47.85268" lon="-2.79618">
        <ele>104.05</ele>
        <time>2018-01-25T15:00:47Z</time>
      </trkpt>
      <trkpt lat="47.85266" lon="-2.79576">
        <ele>103.36</ele>
        <time>2018-01-25T15:01:05Z</time>
      </trkpt>
      <trkpt lat="47.85256" lon="-2.79534">
        <ele>102.39</ele>
        <time>2018-01-25T15:01:22Z</time>
      </trkpt>
      <trkpt lat="47.85255" lon="-2.7952">
        <ele>102.24</ele>
        <time>2018-01-25T15:01:28Z</time>
      </trkpt>
      <trkpt lat="47.85255" lon="-2.79517">
        <ele>102.2</ele>
        <time>2018-01-25T15:01:29Z</time>
      </trkpt>
      <trkpt lat="47.85257" lon="-2.79505">
        <ele>102.05</ele>
        <time>2018-01-25T15:01:35Z</time>
      </trkpt>
      <trkpt lat="47.85258" lon="-2.79505">
        <ele>102.08</ele>
        <time>2018-01-25T15:01:36Z</time>
      </trkpt>
      <trkpt lat="47.85259" lon="-2.79506">
        <ele>102.12</ele>
        <time>2018-01-25T15:01:37Z</time>
      </trkpt>
      <trkpt lat="47.8526" lon="-2.79507">
        <ele>102.18</ele>
        <time>2018-01-25T15:01:38Z</time>
      </trkpt>
      <trkpt lat="47.85261" lon="-2.79508">
        <ele>102.24</ele>
        <time>2018-01-25T15:01:39Z</time>
      </trkpt>
      <trkpt lat="47.8527" lon="-2.79527">
        <ele>103.93</ele>
        <time>2018-01-25T15:01:51Z</time>
      </trkpt>
      <trkpt lat="47.85273" lon="-2.7953">
        <ele>104.23</ele>
        <time>2018-01-25T15:01:53Z</time>
      </trkpt>
      <trkpt lat="47.85284" lon="-2.79538">
        <ele>107.41</ele>
        <time>2018-01-25T15:02:05Z</time>
      </trkpt>
      <trkpt lat="47.85289" lon="-2.79539">
        <ele>108.59</ele>
        <time>2018-01-25T15:02:10Z</time>
      </trkpt>
      <trkpt lat="47.8529" lon="-2.79538">
        <ele>108.84</ele>
        <time>2018-01-25T15:02:11Z</time>
      </trkpt>
      <trkpt lat="47.85291" lon="-2.79538">
        <ele>109.06</ele>
        <time>2018-01-25T15:02:12Z</time>
      </trkpt>
      <trkpt lat="47.85306" lon="-2.79521">
        <ele>112.15</ele>
        <time>2018-01-25T15:02:27Z</time>
      </trkpt>
      <trkpt lat="47.8531" lon="-2.7951">
        <ele>113.27</ele>
        <time>2018-01-25T15:02:34Z</time>
      </trkpt>
      <trkpt lat="47.8531" lon="-2.79507">
        <ele>113.41</ele>
        <time>2018-01-25T15:02:35Z</time>
      </trkpt>
      <trkpt lat="47.8531" lon="-2.79505">
        <ele>113.54</ele>
        <time>2018-01-25T15:02:36Z</time>
      </trkpt>
      <trkpt lat="47.85309" lon="-2.79476">
        <ele>114.89</ele>
        <time>2018-01-25T15:02:50Z</time>
      </trkpt>
      <trkpt lat="47.85311" lon="-2.79462">
        <ele>115.27</ele>
        <time>2018-01-25T15:02:56Z</time>
      </trkpt>
      <trkpt lat="47.85317" lon="-2.7942">
        <ele>115.56</ele>
        <time>2018-01-25T15:03:13Z</time>
      </trkpt>
      <trkpt lat="47.85318" lon="-2.79406">
        <ele>116.59</ele>
        <time>2018-01-25T15:03:21Z</time>
      </trkpt>
      <trkpt lat="47.85323" lon="-2.79383">
        <ele>118.29</ele>
        <time>2018-01-25T15:03:33Z</time>
      </trkpt>
      <trkpt lat="47.85323" lon="-2.79381">
        <ele>118.37</ele>
        <time>2018-01-25T15:03:34Z</time>
      </trkpt>
      <trkpt lat="47.85324" lon="-2.79379">
        <ele>118.48</ele>
        <time>2018-01-25T15:03:35Z</time>
      </trkpt>
      <trkpt lat="47.85324" lon="-2.79376">
        <ele>118.57</ele>
        <time>2018-01-25T15:03:36Z</time>
      </trkpt>
      <trkpt lat="47.85324" lon="-2.79374">
        <ele>118.79</ele>
        <time>2018-01-25T15:03:37Z</time>
      </trkpt>
      <trkpt lat="47.85324" lon="-2.79371">
        <ele>118.91</ele>
        <time>2018-01-25T15:03:38Z</time>
      </trkpt>
      <trkpt lat="47.85324" lon="-2.79369">
        <ele>119.03</ele>
        <time>2018-01-25T15:03:39Z</time>
      </trkpt>
      <trkpt lat="47.85326" lon="-2.79342">
        <ele>119.8</ele>
        <time>2018-01-25T15:03:52Z</time>
      </trkpt>
      <trkpt lat="47.85325" lon="-2.79325">
        <ele>120.24</ele>
        <time>2018-01-25T15:03:59Z</time>
      </trkpt>
      <trkpt lat="47.85325" lon="-2.79322">
        <ele>120.3</ele>
        <time>2018-01-25T15:04:00Z</time>
      </trkpt>
      <trkpt lat="47.85324" lon="-2.7932">
        <ele>120.43</ele>
        <time>2018-01-25T15:04:01Z</time>
      </trkpt>
      <trkpt lat="47.85324" lon="-2.79318">
        <ele>120.43</ele>
        <time>2018-01-25T15:04:02Z</time>
      </trkpt>
      <trkpt lat="47.85324" lon="-2.79314">
        <ele>120.58</ele>
        <time>2018-01-25T15:04:04Z</time>
      </trkpt>
      <trkpt lat="47.85324" lon="-2.79311">
        <ele>120.62</ele>
        <time>2018-01-25T15:04:05Z</time>
      </trkpt>
      <trkpt lat="47.85325" lon="-2.79304">
        <ele>120.72</ele>
        <time>2018-01-25T15:04:08Z</time>
      </trkpt>
      <trkpt lat="47.85324" lon="-2.79301">
        <ele>120.72</ele>
        <time>2018-01-25T15:04:09Z</time>
      </trkpt>
      <trkpt lat="47.85324" lon="-2.79298">
        <ele>120.72</ele>
        <time>2018-01-25T15:04:10Z</time>
      </trkpt>
      <trkpt lat="47.85324" lon="-2.79295">
        <ele>120.72</ele>
        <time>2018-01-25T15:04:11Z</time>
      </trkpt>
      <trkpt lat="47.85324" lon="-2.79292">
        <ele>120.73</ele>
        <time>2018-01-25T15:04:12Z</time>
      </trkpt>
      <trkpt lat="47.85324" lon="-2.79289">
        <ele>120.74</ele>
        <time>2018-01-25T15:04:13Z</time>
      </trkpt>
      <trkpt lat="47.85324" lon="-2.79286">
        <ele>120.8</ele>
        <time>2018-01-25T15:04:14Z</time>
      </trkpt>
      <trkpt lat="47.85323" lon="-2.79245">
        <ele>121.01</ele>
        <time>2018-01-25T15:04:31Z</time>
      </trkpt>
      <trkpt lat="47.85327" lon="-2.79231">
        <ele>121.27</ele>
        <time>2018-01-25T15:04:38Z</time>
      </trkpt>
      <trkpt lat="47.8534" lon="-2.79198">
        <ele>122.8</ele>
        <time>2018-01-25T15:04:54Z</time>
      </trkpt>
      <trkpt lat="47.85355" lon="-2.79156">
        <ele>124.46</ele>
        <time>2018-01-25T15:05:12Z</time>
      </trkpt>
      <trkpt lat="47.85367" lon="-2.79125">
        <ele>126.13</ele>
        <time>2018-01-25T15:05:28Z</time>
      </trkpt>
      <trkpt lat="47.85369" lon="-2.79122">
        <ele>126.35</ele>
        <time>2018-01-25T15:05:30Z</time>
      </trkpt>
      <trkpt lat="47.8537" lon="-2.7912">
        <ele>126.5</ele>
        <time>2018-01-25T15:05:31Z</time>
      </trkpt>
      <trkpt lat="47.85377" lon="-2.79115">
        <ele>127.7</ele>
        <time>2018-01-25T15:05:37Z</time>
      </trkpt>
      <trkpt lat="47.85387" lon="-2.79101">
        <ele>130.35</ele>
        <time>2018-01-25T15:05:50Z</time>
      </trkpt>
      <trkpt lat="47.85404" lon="-2.79091">
        <ele>132.72</ele>
        <time>2018-01-25T15:06:03Z</time>
      </trkpt>
      <trkpt lat="47.85405" lon="-2.79091">
        <ele>132.84</ele>
        <time>2018-01-25T15:06:04Z</time>
      </trkpt>
      <trkpt lat="47.85422" lon="-2.7908">
        <ele>134.78</ele>
        <time>2018-01-25T15:06:17Z</time>
      </trkpt>
      <trkpt lat="47.85445" lon="-2.79054">
        <ele>134.72</ele>
        <time>2018-01-25T15:06:32Z</time>
      </trkpt>
      <trkpt lat="47.85449" lon="-2.79047">
        <ele>134.5</ele>
        <time>2018-01-25T15:06:35Z</time>
      </trkpt>
      <trkpt lat="47.8545" lon="-2.79046">
        <ele>134.44</ele>
        <time>2018-01-25T15:06:36Z</time>
      </trkpt>
      <trkpt lat="47.85451" lon="-2.79044">
        <ele>134.37</ele>
        <time>2018-01-25T15:06:37Z</time>
      </trkpt>
      <trkpt lat="47.85456" lon="-2.79034">
        <ele>134.33</ele>
        <time>2018-01-25T15:06:41Z</time>
      </trkpt>
      <trkpt lat="47.85456" lon="-2.79032">
        <ele>134.37</ele>
        <time>2018-01-25T15:06:42Z</time>
      </trkpt>
      <trkpt lat="47.85456" lon="-2.7903">
        <ele>134.43</ele>
        <time>2018-01-25T15:06:43Z</time>
      </trkpt>
      <trkpt lat="47.85455" lon="-2.79028">
        <ele>134.52</ele>
        <time>2018-01-25T15:06:44Z</time>
      </trkpt>
      <trkpt lat="47.85453" lon="-2.79027">
        <ele>134.58</ele>
        <time>2018-01-25T15:06:45Z</time>
      </trkpt>
      <trkpt lat="47.85452" lon="-2.79026">
        <ele>134.66</ele>
        <time>2018-01-25T15:06:46Z</time>
      </trkpt>
      <trkpt lat="47.85451" lon="-2.79025">
        <ele>134.78</ele>
        <time>2018-01-25T15:06:47Z</time>
      </trkpt>
      <trkpt lat="47.8543" lon="-2.79013">
        <ele>133.4</ele>
        <time>2018-01-25T15:07:02Z</time>
      </trkpt>
      <trkpt lat="47.85413" lon="-2.79005">
        <ele>130.78</ele>
        <time>2018-01-25T15:07:14Z</time>
      </trkpt>
      <trkpt lat="47.85411" lon="-2.79006">
        <ele>130.53</ele>
        <time>2018-01-25T15:07:15Z</time>
      </trkpt>
      <trkpt lat="47.85408" lon="-2.79007">
        <ele>130.26</ele>
        <time>2018-01-25T15:07:16Z</time>
      </trkpt>
      <trkpt lat="47.85406" lon="-2.79008">
        <ele>129.95</ele>
        <time>2018-01-25T15:07:17Z</time>
      </trkpt>
      <trkpt lat="47.85403" lon="-2.79007">
        <ele>129.54</ele>
        <time>2018-01-25T15:07:18Z</time>
      </trkpt>
      <trkpt lat="47.85401" lon="-2.79006">
        <ele>128.99</ele>
        <time>2018-01-25T15:07:19Z</time>
      </trkpt>
      <trkpt lat="47.85399" lon="-2.79004">
        <ele>128.36</ele>
        <time>2018-01-25T15:07:20Z</time>
      </trkpt>
      <trkpt lat="47.85393" lon="-2.79">
        <ele>126.1</ele>
        <time>2018-01-25T15:07:24Z</time>
      </trkpt>
      <trkpt lat="47.85392" lon="-2.78999">
        <ele>125.65</ele>
        <time>2018-01-25T15:07:25Z</time>
      </trkpt>
      <trkpt lat="47.85389" lon="-2.78997">
        <ele>124.55</ele>
        <time>2018-01-25T15:07:27Z</time>
      </trkpt>
      <trkpt lat="47.85387" lon="-2.78996">
        <ele>124.25</ele>
        <time>2018-01-25T15:07:28Z</time>
      </trkpt>
      <trkpt lat="47.85383" lon="-2.78994">
        <ele>123.45</ele>
        <time>2018-01-25T15:07:31Z</time>
      </trkpt>
      <trkpt lat="47.85382" lon="-2.78992">
        <ele>123.15</ele>
        <time>2018-01-25T15:07:32Z</time>
      </trkpt>
      <trkpt lat="47.85381" lon="-2.78991">
        <ele>122.84</ele>
        <time>2018-01-25T15:07:33Z</time>
      </trkpt>
      <trkpt lat="47.85367" lon="-2.78968">
        <ele>120.24</ele>
        <time>2018-01-25T15:07:45Z</time>
      </trkpt>
      <trkpt lat="47.85364" lon="-2.78958">
        <ele>119.01</ele>
        <time>2018-01-25T15:07:50Z</time>
      </trkpt>
      <trkpt lat="47.85364" lon="-2.78956">
        <ele>118.81</ele>
        <time>2018-01-25T15:07:51Z</time>
      </trkpt>
      <trkpt lat="47.85363" lon="-2.78954">
        <ele>118.65</ele>
        <time>2018-01-25T15:07:52Z</time>
      </trkpt>
      <trkpt lat="47.85362" lon="-2.78951">
        <ele>118.49</ele>
        <time>2018-01-25T15:07:53Z</time>
      </trkpt>
      <trkpt lat="47.85361" lon="-2.78948">
        <ele>118.34</ele>
        <time>2018-01-25T15:07:54Z</time>
      </trkpt>
      <trkpt lat="47.85348" lon="-2.7892">
        <ele>115.28</ele>
        <time>2018-01-25T15:08:08Z</time>
      </trkpt>
      <trkpt lat="47.8534" lon="-2.78892">
        <ele>112.78</ele>
        <time>2018-01-25T15:08:20Z</time>
      </trkpt>
      <trkpt lat="47.85335" lon="-2.78868">
        <ele>110.77</ele>
        <time>2018-01-25T15:08:30Z</time>
      </trkpt>
      <trkpt lat="47.85327" lon="-2.78842">
        <ele>107.76</ele>
        <time>2018-01-25T15:08:42Z</time>
      </trkpt>
      <trkpt lat="47.85312" lon="-2.78844">
        <ele>104.71</ele>
        <time>2018-01-25T15:08:52Z</time>
      </trkpt>
      <trkpt lat="47.853" lon="-2.78858">
        <ele>102.03</ele>
        <time>2018-01-25T15:09:02Z</time>
      </trkpt>
      <trkpt lat="47.85299" lon="-2.78859">
        <ele>101.76</ele>
        <time>2018-01-25T15:09:03Z</time>
      </trkpt>
      <trkpt lat="47.8528" lon="-2.78872">
        <ele>99.49</ele>
        <time>2018-01-25T15:09:16Z</time>
      </trkpt>
      <trkpt lat="47.85255" lon="-2.78878">
        <ele>97.28</ele>
        <time>2018-01-25T15:09:30Z</time>
      </trkpt>
      <trkpt lat="47.85223" lon="-2.78878">
        <ele>95.2</ele>
        <time>2018-01-25T15:09:48Z</time>
      </trkpt>
      <trkpt lat="47.85198" lon="-2.7888">
        <ele>93.58</ele>
        <time>2018-01-25T15:10:04Z</time>
      </trkpt>
      <trkpt lat="47.85175" lon="-2.78871">
        <ele>92.27</ele>
        <time>2018-01-25T15:10:17Z</time>
      </trkpt>
      <trkpt lat="47.85142" lon="-2.78853">
        <ele>90.81</ele>
        <time>2018-01-25T15:10:32Z</time>
      </trkpt>
      <trkpt lat="47.85117" lon="-2.78843">
        <ele>90.06</ele>
        <time>2018-01-25T15:10:43Z</time>
      </trkpt>
      <trkpt lat="47.85088" lon="-2.78832">
        <ele>89.54</ele>
        <time>2018-01-25T15:11:00Z</time>
      </trkpt>
      <trkpt lat="47.85061" lon="-2.78819">
        <ele>88.88</ele>
        <time>2018-01-25T15:11:16Z</time>
      </trkpt>
      <trkpt lat="47.85028" lon="-2.78802">
        <ele>88.44</ele>
        <time>2018-01-25T15:11:38Z</time>
      </trkpt>
      <trkpt lat="47.84999" lon="-2.78788">
        <ele>87.83</ele>
        <time>2018-01-25T15:11:57Z</time>
      </trkpt>
      <trkpt lat="47.84971" lon="-2.78783">
        <ele>86.86</ele>
        <time>2018-01-25T15:12:10Z</time>
      </trkpt>
      <trkpt lat="47.84933" lon="-2.78769">
        <ele>85.64</ele>
        <time>2018-01-25T15:12:21Z</time>
      </trkpt>
      <trkpt lat="47.84899" lon="-2.78763">
        <ele>84.56</ele>
        <time>2018-01-25T15:12:33Z</time>
      </trkpt>
      <trkpt lat="47.84879" lon="-2.78751">
        <ele>85.35</ele>
        <time>2018-01-25T15:12:47Z</time>
      </trkpt>
      <trkpt lat="47.84853" lon="-2.78754">
        <ele>84.84</ele>
        <time>2018-01-25T15:13:03Z</time>
      </trkpt>
      <trkpt lat="47.84824" lon="-2.78756">
        <ele>85.21</ele>
        <time>2018-01-25T15:13:21Z</time>
      </trkpt>
      <trkpt lat="47.84791" lon="-2.78751">
        <ele>84.76</ele>
        <time>2018-01-25T15:13:41Z</time>
      </trkpt>
      <trkpt lat="47.8476" lon="-2.78743">
        <ele>83.99</ele>
        <time>2018-01-25T15:14:00Z</time>
      </trkpt>
      <trkpt lat="47.8473" lon="-2.78738">
        <ele>83.43</ele>
        <time>2018-01-25T15:14:18Z</time>
      </trkpt>
      <trkpt lat="47.84701" lon="-2.78745">
        <ele>82.73</ele>
        <time>2018-01-25T15:14:36Z</time>
      </trkpt>
      <trkpt lat="47.84673" lon="-2.78763">
        <ele>82.35</ele>
        <time>2018-01-25T15:14:55Z</time>
      </trkpt>
      <trkpt lat="47.84641" lon="-2.78742">
        <ele>82.17</ele>
        <time>2018-01-25T15:15:15Z</time>
      </trkpt>
      <trkpt lat="47.84613" lon="-2.78724">
        <ele>82.2</ele>
        <time>2018-01-25T15:15:34Z</time>
      </trkpt>
      <trkpt lat="47.84586" lon="-2.78721">
        <ele>82.27</ele>
        <time>2018-01-25T15:15:51Z</time>
      </trkpt>
      <trkpt lat="47.84576" lon="-2.78723">
        <ele>82.15</ele>
        <time>2018-01-25T15:16:00Z</time>
      </trkpt>
      <trkpt lat="47.84575" lon="-2.78724">
        <ele>82.14</ele>
        <time>2018-01-25T15:16:01Z</time>
      </trkpt>
      <trkpt lat="47.84568" lon="-2.78729">
        <ele>81.81</ele>
        <time>2018-01-25T15:16:16Z</time>
      </trkpt>
      <trkpt lat="47.84566" lon="-2.78725">
        <ele>81.77</ele>
        <time>2018-01-25T15:16:43Z</time>
      </trkpt>
      <trkpt lat="47.84566" lon="-2.78723">
        <ele>81.76</ele>
        <time>2018-01-25T15:16:44Z</time>
      </trkpt>
      <trkpt lat="47.84565" lon="-2.78721">
        <ele>81.76</ele>
        <time>2018-01-25T15:16:45Z</time>
      </trkpt>
      <trkpt lat="47.84564" lon="-2.7872">
        <ele>81.76</ele>
        <time>2018-01-25T15:16:46Z</time>
      </trkpt>
      <trkpt lat="47.84561" lon="-2.78719">
        <ele>81.72</ele>
        <time>2018-01-25T15:16:48Z</time>
      </trkpt>
      <trkpt lat="47.8456" lon="-2.7872">
        <ele>81.69</ele>
        <time>2018-01-25T15:16:49Z</time>
      </trkpt>
      <trkpt lat="47.84559" lon="-2.7872">
        <ele>81.63</ele>
        <time>2018-01-25T15:16:50Z</time>
      </trkpt>
      <trkpt lat="47.84558" lon="-2.78721">
        <ele>81.58</ele>
        <time>2018-01-25T15:16:51Z</time>
      </trkpt>
      <trkpt lat="47.84554" lon="-2.78724">
        <ele>82.01</ele>
        <time>2018-01-25T15:17:02Z</time>
      </trkpt>
      <trkpt lat="47.84552" lon="-2.78719">
        <ele>81.67</ele>
        <time>2018-01-25T15:17:23Z</time>
      </trkpt>
      <trkpt lat="47.84551" lon="-2.78719">
        <ele>81.63</ele>
        <time>2018-01-25T15:17:24Z</time>
      </trkpt>
      <trkpt lat="47.84549" lon="-2.78719">
        <ele>81.58</ele>
        <time>2018-01-25T15:17:25Z</time>
      </trkpt>
      <trkpt lat="47.84548" lon="-2.78718">
        <ele>81.55</ele>
        <time>2018-01-25T15:17:26Z</time>
      </trkpt>
      <trkpt lat="47.84547" lon="-2.78717">
        <ele>81.53</ele>
        <time>2018-01-25T15:17:27Z</time>
      </trkpt>
      <trkpt lat="47.84544" lon="-2.78712">
        <ele>81.58</ele>
        <time>2018-01-25T15:17:38Z</time>
      </trkpt>
      <trkpt lat="47.84547" lon="-2.78713">
        <ele>81.83</ele>
        <time>2018-01-25T15:17:58Z</time>
      </trkpt>
      <trkpt lat="47.84548" lon="-2.78712">
        <ele>81.83</ele>
        <time>2018-01-25T15:17:59Z</time>
      </trkpt>
      <trkpt lat="47.8455" lon="-2.78712">
        <ele>81.83</ele>
        <time>2018-01-25T15:18:00Z</time>
      </trkpt>
      <trkpt lat="47.84551" lon="-2.78711">
        <ele>81.83</ele>
        <time>2018-01-25T15:18:01Z</time>
      </trkpt>
      <trkpt lat="47.84551" lon="-2.78709">
        <ele>81.83</ele>
        <time>2018-01-25T15:18:02Z</time>
      </trkpt>
      <trkpt lat="47.84551" lon="-2.78708">
        <ele>81.83</ele>
        <time>2018-01-25T15:18:03Z</time>
      </trkpt>
      <trkpt lat="47.8455" lon="-2.78707">
        <ele>81.83</ele>
        <time>2018-01-25T15:18:04Z</time>
      </trkpt>
      <trkpt lat="47.84549" lon="-2.78706">
        <ele>81.83</ele>
        <time>2018-01-25T15:18:05Z</time>
      </trkpt>
      <trkpt lat="47.84548" lon="-2.78705">
        <ele>81.78</ele>
        <time>2018-01-25T15:18:06Z</time>
      </trkpt>
      <trkpt lat="47.84547" lon="-2.78705">
        <ele>81.71</ele>
        <time>2018-01-25T15:18:07Z</time>
      </trkpt>
      <trkpt lat="47.84545" lon="-2.78705">
        <ele>81.68</ele>
        <time>2018-01-25T15:18:08Z</time>
      </trkpt>
      <trkpt lat="47.84542" lon="-2.78703">
        <ele>82.02</ele>
        <time>2018-01-25T15:18:22Z</time>
      </trkpt>
      <trkpt lat="47.84546" lon="-2.78702">
        <ele>81.81</ele>
        <time>2018-01-25T15:18:31Z</time>
      </trkpt>
      <trkpt lat="47.84547" lon="-2.78694">
        <ele>81.84</ele>
        <time>2018-01-25T15:18:35Z</time>
      </trkpt>
      <trkpt lat="47.84549" lon="-2.78689">
        <ele>82.21</ele>
        <time>2018-01-25T15:18:49Z</time>
      </trkpt>
      <trkpt lat="47.84553" lon="-2.78692">
        <ele>82.71</ele>
        <time>2018-01-25T15:19:07Z</time>
      </trkpt>
      <trkpt lat="47.84554" lon="-2.78692">
        <ele>82.66</ele>
        <time>2018-01-25T15:19:26Z</time>
      </trkpt>
      <trkpt lat="47.84557" lon="-2.78686">
        <ele>82.63</ele>
        <time>2018-01-25T15:19:38Z</time>
      </trkpt>
      <trkpt lat="47.84566" lon="-2.78681">
        <ele>83.36</ele>
        <time>2018-01-25T15:19:54Z</time>
      </trkpt>
      <trkpt lat="47.8457" lon="-2.78683">
        <ele>83.92</ele>
        <time>2018-01-25T15:20:11Z</time>
      </trkpt>
      <trkpt lat="47.84573" lon="-2.78683">
        <ele>83.78</ele>
        <time>2018-01-25T15:20:13Z</time>
      </trkpt>
      <trkpt lat="47.84582" lon="-2.78688">
        <ele>83.51</ele>
        <time>2018-01-25T15:20:23Z</time>
      </trkpt>
      <trkpt lat="47.84585" lon="-2.78699">
        <ele>83.39</ele>
        <time>2018-01-25T15:20:30Z</time>
      </trkpt>
      <trkpt lat="47.84588" lon="-2.78702">
        <ele>83.28</ele>
        <time>2018-01-25T15:20:33Z</time>
      </trkpt>
      <trkpt lat="47.84593" lon="-2.78708">
        <ele>83.03</ele>
        <time>2018-01-25T15:20:38Z</time>
      </trkpt>
      <trkpt lat="47.84606" lon="-2.78721">
        <ele>82.94</ele>
        <time>2018-01-25T15:20:49Z</time>
      </trkpt>
      <trkpt lat="47.84626" lon="-2.78732">
        <ele>82.7</ele>
        <time>2018-01-25T15:21:05Z</time>
      </trkpt>
      <trkpt lat="47.84649" lon="-2.7875">
        <ele>82.64</ele>
        <time>2018-01-25T15:21:23Z</time>
      </trkpt>
      <trkpt lat="47.84671" lon="-2.78764">
        <ele>82.35</ele>
        <time>2018-01-25T15:21:39Z</time>
      </trkpt>
      <trkpt lat="47.84688" lon="-2.7875">
        <ele>82.65</ele>
        <time>2018-01-25T15:21:54Z</time>
      </trkpt>
      <trkpt lat="47.84716" lon="-2.78736">
        <ele>83.16</ele>
        <time>2018-01-25T15:22:13Z</time>
      </trkpt>
      <trkpt lat="47.84742" lon="-2.78743">
        <ele>83.42</ele>
        <time>2018-01-25T15:22:30Z</time>
      </trkpt>
      <trkpt lat="47.8477" lon="-2.78744">
        <ele>83.83</ele>
        <time>2018-01-25T15:22:49Z</time>
      </trkpt>
      <trkpt lat="47.84773" lon="-2.78744">
        <ele>83.85</ele>
        <time>2018-01-25T15:22:51Z</time>
      </trkpt>
      <trkpt lat="47.84798" lon="-2.78755">
        <ele>84.23</ele>
        <time>2018-01-25T15:23:08Z</time>
      </trkpt>
      <trkpt lat="47.84825" lon="-2.78756">
        <ele>84.68</ele>
        <time>2018-01-25T15:23:25Z</time>
      </trkpt>
      <trkpt lat="47.84853" lon="-2.78753">
        <ele>84.99</ele>
        <time>2018-01-25T15:23:42Z</time>
      </trkpt>
      <trkpt lat="47.84881" lon="-2.7875">
        <ele>85.34</ele>
        <time>2018-01-25T15:24:01Z</time>
      </trkpt>
      <trkpt lat="47.84894" lon="-2.78761">
        <ele>85.19</ele>
        <time>2018-01-25T15:24:10Z</time>
      </trkpt>
      <trkpt lat="47.84923" lon="-2.78768">
        <ele>85.11</ele>
        <time>2018-01-25T15:24:30Z</time>
      </trkpt>
      <trkpt lat="47.84956" lon="-2.78778">
        <ele>85.8</ele>
        <time>2018-01-25T15:24:51Z</time>
      </trkpt>
      <trkpt lat="47.84972" lon="-2.78782">
        <ele>86.12</ele>
        <time>2018-01-25T15:25:03Z</time>
      </trkpt>
      <trkpt lat="47.84981" lon="-2.78781">
        <ele>86.29</ele>
        <time>2018-01-25T15:25:08Z</time>
      </trkpt>
      <trkpt lat="47.8501" lon="-2.78794">
        <ele>86.44</ele>
        <time>2018-01-25T15:25:28Z</time>
      </trkpt>
      <trkpt lat="47.85038" lon="-2.78807">
        <ele>86.87</ele>
        <time>2018-01-25T15:25:48Z</time>
      </trkpt>
      <trkpt lat="47.85066" lon="-2.7882">
        <ele>87.6</ele>
        <time>2018-01-25T15:26:07Z</time>
      </trkpt>
      <trkpt lat="47.85087" lon="-2.78831">
        <ele>87.87</ele>
        <time>2018-01-25T15:26:22Z</time>
      </trkpt>
      <trkpt lat="47.85115" lon="-2.78842">
        <ele>88.48</ele>
        <time>2018-01-25T15:26:41Z</time>
      </trkpt>
      <trkpt lat="47.85137" lon="-2.78854">
        <ele>89.05</ele>
        <time>2018-01-25T15:26:58Z</time>
      </trkpt>
      <trkpt lat="47.85167" lon="-2.78866">
        <ele>89.97</ele>
        <time>2018-01-25T15:27:17Z</time>
      </trkpt>
      <trkpt lat="47.85191" lon="-2.78885">
        <ele>91.02</ele>
        <time>2018-01-25T15:27:33Z</time>
      </trkpt>
      <trkpt lat="47.85198" lon="-2.78915">
        <ele>91.36</ele>
        <time>2018-01-25T15:27:48Z</time>
      </trkpt>
      <trkpt lat="47.85197" lon="-2.78953">
        <ele>90.67</ele>
        <time>2018-01-25T15:28:04Z</time>
      </trkpt>
      <trkpt lat="47.85198" lon="-2.78989">
        <ele>88.82</ele>
        <time>2018-01-25T15:28:20Z</time>
      </trkpt>
      <trkpt lat="47.85211" lon="-2.79031">
        <ele>88.3</ele>
        <time>2018-01-25T15:28:41Z</time>
      </trkpt>
      <trkpt lat="47.85216" lon="-2.79061">
        <ele>88.17</ele>
        <time>2018-01-25T15:28:58Z</time>
      </trkpt>
      <trkpt lat="47.8521" lon="-2.79089">
        <ele>88.71</ele>
        <time>2018-01-25T15:29:17Z</time>
      </trkpt>
      <trkpt lat="47.8521" lon="-2.7909">
        <ele>88.23</ele>
        <time>2018-01-25T15:29:38Z</time>
      </trkpt>
      <trkpt lat="47.85211" lon="-2.79093">
        <ele>88.54</ele>
        <time>2018-01-25T15:30:02Z</time>
      </trkpt>
      <trkpt lat="47.8521" lon="-2.79093">
        <ele>88.39</ele>
        <time>2018-01-25T15:30:18Z</time>
      </trkpt>
      <trkpt lat="47.8521" lon="-2.79086">
        <ele>88.63</ele>
        <time>2018-01-25T15:30:35Z</time>
      </trkpt>
      <trkpt lat="47.85209" lon="-2.79082">
        <ele>88.71</ele>
        <time>2018-01-25T15:30:53Z</time>
      </trkpt>
      <trkpt lat="47.85206" lon="-2.79083">
        <ele>88.94</ele>
        <time>2018-01-25T15:31:13Z</time>
      </trkpt>
      <trkpt lat="47.85208" lon="-2.79081">
        <ele>88.49</ele>
        <time>2018-01-25T15:31:27Z</time>
      </trkpt>
    </trkseg>
  </trk>
</gpx>